<?xml version="1.0" encoding="UTF-8" standalone="no" ?>
<gpx xmlns="http://www.topografix.com/GPX/1/1" xmlns:xsi="http://www.w3.org/2001/XMLSchema-instance" xsi:schemaLocation="http://www.topografix.com/GPX/1/1 http://www.topografix.com/GPX/1/1/gpx.xsd" version="1.1" creator="VisuGPX - https://www.visugpx.com">
  <metadata>
    <name>2016-10-31 - Traversée du Pin</name>
    <desc><![CDATA[Avec Fish,
belle arrête parfois impressionnante.]]></desc>
  </metadata>
  <trk>
    <name><![CDATA[2016-10-31 - Traversée du Pin]]></name>
    <trkseg>
      <trkpt lat="45.22446" lon="5.99886">
        <ele>1300.8</ele>
        <time>2016-10-31T06:07:42Z</time>
      </trkpt>
      <trkpt lat="45.22452" lon="5.99893">
        <ele>1300.32</ele>
        <time>2016-10-31T06:07:53Z</time>
      </trkpt>
      <trkpt lat="45.22456" lon="5.99892">
        <ele>1301.28</ele>
        <time>2016-10-31T06:07:58Z</time>
      </trkpt>
      <trkpt lat="45.22472" lon="5.99873">
        <ele>1303.2</ele>
        <time>2016-10-31T06:08:17Z</time>
      </trkpt>
      <trkpt lat="45.22474" lon="5.99868">
        <ele>1347.43</ele>
        <time>2016-10-31T06:08:23Z</time>
      </trkpt>
      <trkpt lat="45.22475" lon="5.99867">
        <ele>1347.43</ele>
        <time>2016-10-31T06:08:24Z</time>
      </trkpt>
      <trkpt lat="45.22478" lon="5.99859">
        <ele>1347.91</ele>
        <time>2016-10-31T06:08:30Z</time>
      </trkpt>
      <trkpt lat="45.22491" lon="5.9985">
        <ele>1347.91</ele>
        <time>2016-10-31T06:08:45Z</time>
      </trkpt>
      <trkpt lat="45.22494" lon="5.99849">
        <ele>1347.91</ele>
        <time>2016-10-31T06:09:05Z</time>
      </trkpt>
      <trkpt lat="45.22496" lon="5.99853">
        <ele>1347.91</ele>
        <time>2016-10-31T06:09:24Z</time>
      </trkpt>
      <trkpt lat="45.22499" lon="5.99854">
        <ele>1347.91</ele>
        <time>2016-10-31T06:09:42Z</time>
      </trkpt>
      <trkpt lat="45.225" lon="5.99855">
        <ele>1346.94</ele>
        <time>2016-10-31T06:09:47Z</time>
      </trkpt>
      <trkpt lat="45.22501" lon="5.99857">
        <ele>1346.94</ele>
        <time>2016-10-31T06:10:03Z</time>
      </trkpt>
      <trkpt lat="45.22502" lon="5.99858">
        <ele>1346.94</ele>
        <time>2016-10-31T06:10:21Z</time>
      </trkpt>
      <trkpt lat="45.22503" lon="5.99859">
        <ele>1346.94</ele>
        <time>2016-10-31T06:10:33Z</time>
      </trkpt>
      <trkpt lat="45.22505" lon="5.9986">
        <ele>1346.94</ele>
        <time>2016-10-31T06:10:55Z</time>
      </trkpt>
      <trkpt lat="45.22504" lon="5.99859">
        <ele>1346.94</ele>
        <time>2016-10-31T06:11:08Z</time>
      </trkpt>
      <trkpt lat="45.22504" lon="5.99859">
        <ele>1346.46</ele>
        <time>2016-10-31T06:11:22Z</time>
      </trkpt>
      <trkpt lat="45.22501" lon="5.9986">
        <ele>1346.46</ele>
        <time>2016-10-31T06:11:38Z</time>
      </trkpt>
      <trkpt lat="45.22495" lon="5.99871">
        <ele>1346.46</ele>
        <time>2016-10-31T06:11:51Z</time>
      </trkpt>
      <trkpt lat="45.22493" lon="5.99872">
        <ele>1346.46</ele>
        <time>2016-10-31T06:11:53Z</time>
      </trkpt>
      <trkpt lat="45.22479" lon="5.9988">
        <ele>1345.5</ele>
        <time>2016-10-31T06:12:12Z</time>
      </trkpt>
      <trkpt lat="45.22466" lon="5.99884">
        <ele>1344.06</ele>
        <time>2016-10-31T06:12:30Z</time>
      </trkpt>
      <trkpt lat="45.22463" lon="5.99897">
        <ele>1344.54</ele>
        <time>2016-10-31T06:12:45Z</time>
      </trkpt>
      <trkpt lat="45.22468" lon="5.99907">
        <ele>1345.98</ele>
        <time>2016-10-31T06:13:08Z</time>
      </trkpt>
      <trkpt lat="45.22478" lon="5.99928">
        <ele>1349.83</ele>
        <time>2016-10-31T06:13:27Z</time>
      </trkpt>
      <trkpt lat="45.22474" lon="5.99944">
        <ele>1351.75</ele>
        <time>2016-10-31T06:13:45Z</time>
      </trkpt>
      <trkpt lat="45.22474" lon="5.99961">
        <ele>1354.63</ele>
        <time>2016-10-31T06:14:02Z</time>
      </trkpt>
      <trkpt lat="45.22464" lon="5.99972">
        <ele>1357.04</ele>
        <time>2016-10-31T06:14:21Z</time>
      </trkpt>
      <trkpt lat="45.2246" lon="5.99985">
        <ele>1359.92</ele>
        <time>2016-10-31T06:14:41Z</time>
      </trkpt>
      <trkpt lat="45.22456" lon="6.00002">
        <ele>1361.36</ele>
        <time>2016-10-31T06:14:59Z</time>
      </trkpt>
      <trkpt lat="45.22455" lon="6.00018">
        <ele>1363.77</ele>
        <time>2016-10-31T06:15:15Z</time>
      </trkpt>
      <trkpt lat="45.22451" lon="6.00029">
        <ele>1366.65</ele>
        <time>2016-10-31T06:15:34Z</time>
      </trkpt>
      <trkpt lat="45.22446" lon="6.00042">
        <ele>1370.02</ele>
        <time>2016-10-31T06:15:52Z</time>
      </trkpt>
      <trkpt lat="45.22444" lon="6.0006">
        <ele>1372.9</ele>
        <time>2016-10-31T06:16:15Z</time>
      </trkpt>
      <trkpt lat="45.22437" lon="6.00074">
        <ele>1375.78</ele>
        <time>2016-10-31T06:16:35Z</time>
      </trkpt>
      <trkpt lat="45.22435" lon="6.00091">
        <ele>1379.15</ele>
        <time>2016-10-31T06:16:55Z</time>
      </trkpt>
      <trkpt lat="45.22431" lon="6.00102">
        <ele>1381.55</ele>
        <time>2016-10-31T06:17:13Z</time>
      </trkpt>
      <trkpt lat="45.22424" lon="6.00112">
        <ele>1384.44</ele>
        <time>2016-10-31T06:17:33Z</time>
      </trkpt>
      <trkpt lat="45.22418" lon="6.00122">
        <ele>1386.36</ele>
        <time>2016-10-31T06:17:50Z</time>
      </trkpt>
      <trkpt lat="45.22411" lon="6.00129">
        <ele>1388.76</ele>
        <time>2016-10-31T06:18:06Z</time>
      </trkpt>
      <trkpt lat="45.22385" lon="6.00125">
        <ele>1390.68</ele>
        <time>2016-10-31T06:18:23Z</time>
      </trkpt>
      <trkpt lat="45.22362" lon="6.00128">
        <ele>1393.57</ele>
        <time>2016-10-31T06:18:41Z</time>
      </trkpt>
      <trkpt lat="45.22353" lon="6.00143">
        <ele>1395.01</ele>
        <time>2016-10-31T06:18:56Z</time>
      </trkpt>
      <trkpt lat="45.22352" lon="6.00154">
        <ele>1396.45</ele>
        <time>2016-10-31T06:19:05Z</time>
      </trkpt>
      <trkpt lat="45.22338" lon="6.00168">
        <ele>1398.37</ele>
        <time>2016-10-31T06:19:23Z</time>
      </trkpt>
      <trkpt lat="45.22331" lon="6.00182">
        <ele>1399.34</ele>
        <time>2016-10-31T06:19:34Z</time>
      </trkpt>
      <trkpt lat="45.22319" lon="6.00201">
        <ele>1400.78</ele>
        <time>2016-10-31T06:19:50Z</time>
      </trkpt>
      <trkpt lat="45.22308" lon="6.00203">
        <ele>1402.7</ele>
        <time>2016-10-31T06:20:06Z</time>
      </trkpt>
      <trkpt lat="45.22301" lon="6.00204">
        <ele>1404.14</ele>
        <time>2016-10-31T06:20:17Z</time>
      </trkpt>
      <trkpt lat="45.22295" lon="6.00221">
        <ele>1407.03</ele>
        <time>2016-10-31T06:20:35Z</time>
      </trkpt>
      <trkpt lat="45.22289" lon="6.00236">
        <ele>1410.39</ele>
        <time>2016-10-31T06:20:53Z</time>
      </trkpt>
      <trkpt lat="45.2229" lon="6.00249">
        <ele>1413.76</ele>
        <time>2016-10-31T06:21:07Z</time>
      </trkpt>
      <trkpt lat="45.2229" lon="6.0025">
        <ele>1413.76</ele>
        <time>2016-10-31T06:21:10Z</time>
      </trkpt>
      <trkpt lat="45.22297" lon="6.00262">
        <ele>1416.16</ele>
        <time>2016-10-31T06:21:26Z</time>
      </trkpt>
      <trkpt lat="45.22298" lon="6.00265">
        <ele>1418.08</ele>
        <time>2016-10-31T06:21:39Z</time>
      </trkpt>
      <trkpt lat="45.22295" lon="6.00282">
        <ele>1420.49</ele>
        <time>2016-10-31T06:21:56Z</time>
      </trkpt>
      <trkpt lat="45.22296" lon="6.00302">
        <ele>1423.37</ele>
        <time>2016-10-31T06:22:13Z</time>
      </trkpt>
      <trkpt lat="45.22304" lon="6.00317">
        <ele>1425.29</ele>
        <time>2016-10-31T06:22:31Z</time>
      </trkpt>
      <trkpt lat="45.22313" lon="6.00336">
        <ele>1427.21</ele>
        <time>2016-10-31T06:22:47Z</time>
      </trkpt>
      <trkpt lat="45.22317" lon="6.00355">
        <ele>1429.62</ele>
        <time>2016-10-31T06:23:03Z</time>
      </trkpt>
      <trkpt lat="45.2232" lon="6.00371">
        <ele>1432.02</ele>
        <time>2016-10-31T06:23:19Z</time>
      </trkpt>
      <trkpt lat="45.22323" lon="6.00384">
        <ele>1434.42</ele>
        <time>2016-10-31T06:23:33Z</time>
      </trkpt>
      <trkpt lat="45.22326" lon="6.00399">
        <ele>1436.83</ele>
        <time>2016-10-31T06:23:49Z</time>
      </trkpt>
      <trkpt lat="45.22326" lon="6.00401">
        <ele>1436.35</ele>
        <time>2016-10-31T06:23:50Z</time>
      </trkpt>
      <trkpt lat="45.22321" lon="6.00411">
        <ele>1438.75</ele>
        <time>2016-10-31T06:24:04Z</time>
      </trkpt>
      <trkpt lat="45.22314" lon="6.00414">
        <ele>1440.19</ele>
        <time>2016-10-31T06:24:12Z</time>
      </trkpt>
      <trkpt lat="45.22304" lon="6.00426">
        <ele>1442.11</ele>
        <time>2016-10-31T06:24:28Z</time>
      </trkpt>
      <trkpt lat="45.22298" lon="6.00435">
        <ele>1443.56</ele>
        <time>2016-10-31T06:24:42Z</time>
      </trkpt>
      <trkpt lat="45.22292" lon="6.00436">
        <ele>1445</ele>
        <time>2016-10-31T06:24:54Z</time>
      </trkpt>
      <trkpt lat="45.22284" lon="6.00431">
        <ele>1446.92</ele>
        <time>2016-10-31T06:25:10Z</time>
      </trkpt>
      <trkpt lat="45.22275" lon="6.00424">
        <ele>1449.32</ele>
        <time>2016-10-31T06:25:25Z</time>
      </trkpt>
      <trkpt lat="45.22268" lon="6.00425">
        <ele>1451.73</ele>
        <time>2016-10-31T06:25:41Z</time>
      </trkpt>
      <trkpt lat="45.22252" lon="6.0043">
        <ele>1455.09</ele>
        <time>2016-10-31T06:25:56Z</time>
      </trkpt>
      <trkpt lat="45.22245" lon="6.00433">
        <ele>1457.5</ele>
        <time>2016-10-31T06:26:10Z</time>
      </trkpt>
      <trkpt lat="45.22238" lon="6.0043">
        <ele>1460.38</ele>
        <time>2016-10-31T06:26:26Z</time>
      </trkpt>
      <trkpt lat="45.22237" lon="6.00433">
        <ele>1461.34</ele>
        <time>2016-10-31T06:26:34Z</time>
      </trkpt>
      <trkpt lat="45.22238" lon="6.00447">
        <ele>1464.23</ele>
        <time>2016-10-31T06:26:52Z</time>
      </trkpt>
      <trkpt lat="45.22234" lon="6.00457">
        <ele>1466.63</ele>
        <time>2016-10-31T06:27:08Z</time>
      </trkpt>
      <trkpt lat="45.22232" lon="6.00468">
        <ele>1468.55</ele>
        <time>2016-10-31T06:27:26Z</time>
      </trkpt>
      <trkpt lat="45.22233" lon="6.00479">
        <ele>1471.44</ele>
        <time>2016-10-31T06:27:45Z</time>
      </trkpt>
      <trkpt lat="45.22227" lon="6.00487">
        <ele>1474.32</ele>
        <time>2016-10-31T06:28:02Z</time>
      </trkpt>
      <trkpt lat="45.22225" lon="6.00494">
        <ele>1476.24</ele>
        <time>2016-10-31T06:28:18Z</time>
      </trkpt>
      <trkpt lat="45.22223" lon="6.00502">
        <ele>1478.65</ele>
        <time>2016-10-31T06:28:34Z</time>
      </trkpt>
      <trkpt lat="45.22221" lon="6.00508">
        <ele>1480.57</ele>
        <time>2016-10-31T06:28:49Z</time>
      </trkpt>
      <trkpt lat="45.22222" lon="6.00517">
        <ele>1482.49</ele>
        <time>2016-10-31T06:29:06Z</time>
      </trkpt>
      <trkpt lat="45.22224" lon="6.0053">
        <ele>1485.37</ele>
        <time>2016-10-31T06:29:20Z</time>
      </trkpt>
      <trkpt lat="45.22227" lon="6.00537">
        <ele>1486.34</ele>
        <time>2016-10-31T06:29:36Z</time>
      </trkpt>
      <trkpt lat="45.22227" lon="6.00548">
        <ele>1489.22</ele>
        <time>2016-10-31T06:29:53Z</time>
      </trkpt>
      <trkpt lat="45.22227" lon="6.00557">
        <ele>1491.62</ele>
        <time>2016-10-31T06:30:08Z</time>
      </trkpt>
      <trkpt lat="45.22229" lon="6.00567">
        <ele>1493.55</ele>
        <time>2016-10-31T06:30:24Z</time>
      </trkpt>
      <trkpt lat="45.22226" lon="6.00577">
        <ele>1496.43</ele>
        <time>2016-10-31T06:30:43Z</time>
      </trkpt>
      <trkpt lat="45.2223" lon="6.00589">
        <ele>1498.83</ele>
        <time>2016-10-31T06:31:03Z</time>
      </trkpt>
      <trkpt lat="45.22231" lon="6.00601">
        <ele>1501.72</ele>
        <time>2016-10-31T06:31:23Z</time>
      </trkpt>
      <trkpt lat="45.22233" lon="6.0061">
        <ele>1504.12</ele>
        <time>2016-10-31T06:31:41Z</time>
      </trkpt>
      <trkpt lat="45.22236" lon="6.00628">
        <ele>1506.04</ele>
        <time>2016-10-31T06:31:56Z</time>
      </trkpt>
      <trkpt lat="45.22238" lon="6.00638">
        <ele>1508.45</ele>
        <time>2016-10-31T06:32:12Z</time>
      </trkpt>
      <trkpt lat="45.22243" lon="6.00642">
        <ele>1510.37</ele>
        <time>2016-10-31T06:32:28Z</time>
      </trkpt>
      <trkpt lat="45.22248" lon="6.00651">
        <ele>1512.29</ele>
        <time>2016-10-31T06:32:45Z</time>
      </trkpt>
      <trkpt lat="45.22246" lon="6.0066">
        <ele>1514.21</ele>
        <time>2016-10-31T06:33:04Z</time>
      </trkpt>
      <trkpt lat="45.22246" lon="6.00673">
        <ele>1516.14</ele>
        <time>2016-10-31T06:33:20Z</time>
      </trkpt>
      <trkpt lat="45.22244" lon="6.00686">
        <ele>1518.06</ele>
        <time>2016-10-31T06:33:35Z</time>
      </trkpt>
      <trkpt lat="45.22245" lon="6.00692">
        <ele>1518.54</ele>
        <time>2016-10-31T06:33:39Z</time>
      </trkpt>
      <trkpt lat="45.22242" lon="6.00705">
        <ele>1520.46</ele>
        <time>2016-10-31T06:33:56Z</time>
      </trkpt>
      <trkpt lat="45.22244" lon="6.00719">
        <ele>1522.39</ele>
        <time>2016-10-31T06:34:14Z</time>
      </trkpt>
      <trkpt lat="45.22245" lon="6.00737">
        <ele>1525.27</ele>
        <time>2016-10-31T06:34:38Z</time>
      </trkpt>
      <trkpt lat="45.22237" lon="6.00755">
        <ele>1528.15</ele>
        <time>2016-10-31T06:34:59Z</time>
      </trkpt>
      <trkpt lat="45.22234" lon="6.00768">
        <ele>1529.59</ele>
        <time>2016-10-31T06:35:15Z</time>
      </trkpt>
      <trkpt lat="45.22234" lon="6.00778">
        <ele>1532</ele>
        <time>2016-10-31T06:35:31Z</time>
      </trkpt>
      <trkpt lat="45.22233" lon="6.00792">
        <ele>1534.88</ele>
        <time>2016-10-31T06:35:47Z</time>
      </trkpt>
      <trkpt lat="45.22229" lon="6.00802">
        <ele>1537.29</ele>
        <time>2016-10-31T06:36:02Z</time>
      </trkpt>
      <trkpt lat="45.22226" lon="6.00813">
        <ele>1539.69</ele>
        <time>2016-10-31T06:36:19Z</time>
      </trkpt>
      <trkpt lat="45.22225" lon="6.00824">
        <ele>1541.61</ele>
        <time>2016-10-31T06:36:35Z</time>
      </trkpt>
      <trkpt lat="45.22229" lon="6.00834">
        <ele>1544.01</ele>
        <time>2016-10-31T06:36:54Z</time>
      </trkpt>
      <trkpt lat="45.22234" lon="6.00846">
        <ele>1546.9</ele>
        <time>2016-10-31T06:37:14Z</time>
      </trkpt>
      <trkpt lat="45.22238" lon="6.00856">
        <ele>1548.34</ele>
        <time>2016-10-31T06:37:29Z</time>
      </trkpt>
      <trkpt lat="45.22244" lon="6.00866">
        <ele>1549.78</ele>
        <time>2016-10-31T06:37:44Z</time>
      </trkpt>
      <trkpt lat="45.22247" lon="6.00874">
        <ele>1551.71</ele>
        <time>2016-10-31T06:37:59Z</time>
      </trkpt>
      <trkpt lat="45.22252" lon="6.00885">
        <ele>1553.63</ele>
        <time>2016-10-31T06:38:16Z</time>
      </trkpt>
      <trkpt lat="45.22257" lon="6.00888">
        <ele>1555.07</ele>
        <time>2016-10-31T06:38:30Z</time>
      </trkpt>
      <trkpt lat="45.22261" lon="6.00897">
        <ele>1556.99</ele>
        <time>2016-10-31T06:38:47Z</time>
      </trkpt>
      <trkpt lat="45.22256" lon="6.00904">
        <ele>1559.88</ele>
        <time>2016-10-31T06:39:03Z</time>
      </trkpt>
      <trkpt lat="45.22247" lon="6.00908">
        <ele>1561.32</ele>
        <time>2016-10-31T06:39:20Z</time>
      </trkpt>
      <trkpt lat="45.22234" lon="6.00914">
        <ele>1564.68</ele>
        <time>2016-10-31T06:39:39Z</time>
      </trkpt>
      <trkpt lat="45.22227" lon="6.00916">
        <ele>1566.12</ele>
        <time>2016-10-31T06:39:57Z</time>
      </trkpt>
      <trkpt lat="45.2223" lon="6.00926">
        <ele>1567.57</ele>
        <time>2016-10-31T06:40:11Z</time>
      </trkpt>
      <trkpt lat="45.22231" lon="6.00934">
        <ele>1570.45</ele>
        <time>2016-10-31T06:40:26Z</time>
      </trkpt>
      <trkpt lat="45.22234" lon="6.00946">
        <ele>1572.85</ele>
        <time>2016-10-31T06:40:43Z</time>
      </trkpt>
      <trkpt lat="45.22233" lon="6.00961">
        <ele>1575.74</ele>
        <time>2016-10-31T06:41:02Z</time>
      </trkpt>
      <trkpt lat="45.2223" lon="6.00978">
        <ele>1578.14</ele>
        <time>2016-10-31T06:41:21Z</time>
      </trkpt>
      <trkpt lat="45.22234" lon="6.00997">
        <ele>1580.06</ele>
        <time>2016-10-31T06:41:39Z</time>
      </trkpt>
      <trkpt lat="45.22236" lon="6.01011">
        <ele>1581.51</ele>
        <time>2016-10-31T06:41:56Z</time>
      </trkpt>
      <trkpt lat="45.22233" lon="6.01026">
        <ele>1584.39</ele>
        <time>2016-10-31T06:42:14Z</time>
      </trkpt>
      <trkpt lat="45.22236" lon="6.01041">
        <ele>1586.31</ele>
        <time>2016-10-31T06:42:31Z</time>
      </trkpt>
      <trkpt lat="45.22234" lon="6.01058">
        <ele>1588.24</ele>
        <time>2016-10-31T06:42:50Z</time>
      </trkpt>
      <trkpt lat="45.22235" lon="6.01074">
        <ele>1590.64</ele>
        <time>2016-10-31T06:43:08Z</time>
      </trkpt>
      <trkpt lat="45.22238" lon="6.01087">
        <ele>1592.56</ele>
        <time>2016-10-31T06:43:23Z</time>
      </trkpt>
      <trkpt lat="45.2224" lon="6.011">
        <ele>1594.96</ele>
        <time>2016-10-31T06:43:40Z</time>
      </trkpt>
      <trkpt lat="45.22243" lon="6.01114">
        <ele>1596.41</ele>
        <time>2016-10-31T06:43:55Z</time>
      </trkpt>
      <trkpt lat="45.22246" lon="6.01127">
        <ele>1598.33</ele>
        <time>2016-10-31T06:44:10Z</time>
      </trkpt>
      <trkpt lat="45.22247" lon="6.01139">
        <ele>1600.25</ele>
        <time>2016-10-31T06:44:26Z</time>
      </trkpt>
      <trkpt lat="45.22252" lon="6.0115">
        <ele>1602.17</ele>
        <time>2016-10-31T06:44:42Z</time>
      </trkpt>
      <trkpt lat="45.22257" lon="6.01158">
        <ele>1604.1</ele>
        <time>2016-10-31T06:44:56Z</time>
      </trkpt>
      <trkpt lat="45.22262" lon="6.01169">
        <ele>1605.54</ele>
        <time>2016-10-31T06:45:12Z</time>
      </trkpt>
      <trkpt lat="45.22265" lon="6.01181">
        <ele>1607.94</ele>
        <time>2016-10-31T06:45:28Z</time>
      </trkpt>
      <trkpt lat="45.22261" lon="6.01194">
        <ele>1609.38</ele>
        <time>2016-10-31T06:45:47Z</time>
      </trkpt>
      <trkpt lat="45.22252" lon="6.01208">
        <ele>1611.31</ele>
        <time>2016-10-31T06:46:07Z</time>
      </trkpt>
      <trkpt lat="45.22243" lon="6.01222">
        <ele>1613.71</ele>
        <time>2016-10-31T06:46:24Z</time>
      </trkpt>
      <trkpt lat="45.22242" lon="6.01234">
        <ele>1617.07</ele>
        <time>2016-10-31T06:46:42Z</time>
      </trkpt>
      <trkpt lat="45.22239" lon="6.01245">
        <ele>1618.52</ele>
        <time>2016-10-31T06:46:55Z</time>
      </trkpt>
      <trkpt lat="45.22239" lon="6.01256">
        <ele>1621.88</ele>
        <time>2016-10-31T06:47:11Z</time>
      </trkpt>
      <trkpt lat="45.22238" lon="6.01273">
        <ele>1624.28</ele>
        <time>2016-10-31T06:47:27Z</time>
      </trkpt>
      <trkpt lat="45.22242" lon="6.01284">
        <ele>1627.65</ele>
        <time>2016-10-31T06:47:44Z</time>
      </trkpt>
      <trkpt lat="45.22248" lon="6.01292">
        <ele>1629.57</ele>
        <time>2016-10-31T06:47:59Z</time>
      </trkpt>
      <trkpt lat="45.22254" lon="6.01295">
        <ele>1632.46</ele>
        <time>2016-10-31T06:48:18Z</time>
      </trkpt>
      <trkpt lat="45.22258" lon="6.01303">
        <ele>1634.38</ele>
        <time>2016-10-31T06:48:36Z</time>
      </trkpt>
      <trkpt lat="45.22266" lon="6.01305">
        <ele>1636.78</ele>
        <time>2016-10-31T06:48:53Z</time>
      </trkpt>
      <trkpt lat="45.22277" lon="6.01308">
        <ele>1639.67</ele>
        <time>2016-10-31T06:49:09Z</time>
      </trkpt>
      <trkpt lat="45.2228" lon="6.01324">
        <ele>1641.59</ele>
        <time>2016-10-31T06:49:26Z</time>
      </trkpt>
      <trkpt lat="45.22279" lon="6.01338">
        <ele>1643.51</ele>
        <time>2016-10-31T06:49:42Z</time>
      </trkpt>
      <trkpt lat="45.22279" lon="6.01352">
        <ele>1644.95</ele>
        <time>2016-10-31T06:50:02Z</time>
      </trkpt>
      <trkpt lat="45.22266" lon="6.01362">
        <ele>1646.88</ele>
        <time>2016-10-31T06:50:19Z</time>
      </trkpt>
      <trkpt lat="45.22254" lon="6.01368">
        <ele>1649.28</ele>
        <time>2016-10-31T06:50:34Z</time>
      </trkpt>
      <trkpt lat="45.22243" lon="6.01373">
        <ele>1651.2</ele>
        <time>2016-10-31T06:50:51Z</time>
      </trkpt>
      <trkpt lat="45.22237" lon="6.01381">
        <ele>1652.64</ele>
        <time>2016-10-31T06:51:07Z</time>
      </trkpt>
      <trkpt lat="45.22232" lon="6.01399">
        <ele>1654.57</ele>
        <time>2016-10-31T06:51:25Z</time>
      </trkpt>
      <trkpt lat="45.22229" lon="6.01413">
        <ele>1656.97</ele>
        <time>2016-10-31T06:51:41Z</time>
      </trkpt>
      <trkpt lat="45.22228" lon="6.01427">
        <ele>1658.89</ele>
        <time>2016-10-31T06:51:56Z</time>
      </trkpt>
      <trkpt lat="45.22234" lon="6.01446">
        <ele>1658.89</ele>
        <time>2016-10-31T06:52:13Z</time>
      </trkpt>
      <trkpt lat="45.22237" lon="6.01465">
        <ele>1660.33</ele>
        <time>2016-10-31T06:52:30Z</time>
      </trkpt>
      <trkpt lat="45.2224" lon="6.01479">
        <ele>1661.3</ele>
        <time>2016-10-31T06:52:43Z</time>
      </trkpt>
      <trkpt lat="45.22242" lon="6.01496">
        <ele>1662.26</ele>
        <time>2016-10-31T06:52:57Z</time>
      </trkpt>
      <trkpt lat="45.22245" lon="6.01514">
        <ele>1662.26</ele>
        <time>2016-10-31T06:53:11Z</time>
      </trkpt>
      <trkpt lat="45.22249" lon="6.01547">
        <ele>1662.26</ele>
        <time>2016-10-31T06:53:27Z</time>
      </trkpt>
      <trkpt lat="45.22254" lon="6.01574">
        <ele>1662.26</ele>
        <time>2016-10-31T06:53:44Z</time>
      </trkpt>
      <trkpt lat="45.22256" lon="6.01584">
        <ele>1662.26</ele>
        <time>2016-10-31T06:53:50Z</time>
      </trkpt>
      <trkpt lat="45.2226" lon="6.01603">
        <ele>1662.74</ele>
        <time>2016-10-31T06:54:02Z</time>
      </trkpt>
      <trkpt lat="45.22262" lon="6.01623">
        <ele>1663.7</ele>
        <time>2016-10-31T06:54:19Z</time>
      </trkpt>
      <trkpt lat="45.22263" lon="6.01632">
        <ele>1662.26</ele>
        <time>2016-10-31T06:54:27Z</time>
      </trkpt>
      <trkpt lat="45.22262" lon="6.01647">
        <ele>1661.3</ele>
        <time>2016-10-31T06:54:44Z</time>
      </trkpt>
      <trkpt lat="45.2226" lon="6.0166">
        <ele>1660.81</ele>
        <time>2016-10-31T06:55:00Z</time>
      </trkpt>
      <trkpt lat="45.22263" lon="6.01686">
        <ele>1660.33</ele>
        <time>2016-10-31T06:55:16Z</time>
      </trkpt>
      <trkpt lat="45.22263" lon="6.01709">
        <ele>1659.37</ele>
        <time>2016-10-31T06:55:30Z</time>
      </trkpt>
      <trkpt lat="45.22263" lon="6.0172">
        <ele>1659.37</ele>
        <time>2016-10-31T06:55:37Z</time>
      </trkpt>
      <trkpt lat="45.22263" lon="6.01722">
        <ele>1659.37</ele>
        <time>2016-10-31T06:55:38Z</time>
      </trkpt>
      <trkpt lat="45.22261" lon="6.01742">
        <ele>1658.89</ele>
        <time>2016-10-31T06:55:51Z</time>
      </trkpt>
      <trkpt lat="45.22258" lon="6.01749">
        <ele>1658.41</ele>
        <time>2016-10-31T06:55:55Z</time>
      </trkpt>
      <trkpt lat="45.2225" lon="6.01754">
        <ele>1659.85</ele>
        <time>2016-10-31T06:56:04Z</time>
      </trkpt>
      <trkpt lat="45.22234" lon="6.01753">
        <ele>1662.26</ele>
        <time>2016-10-31T06:56:22Z</time>
      </trkpt>
      <trkpt lat="45.22225" lon="6.01757">
        <ele>1665.14</ele>
        <time>2016-10-31T06:56:39Z</time>
      </trkpt>
      <trkpt lat="45.22221" lon="6.0177">
        <ele>1666.58</ele>
        <time>2016-10-31T06:56:52Z</time>
      </trkpt>
      <trkpt lat="45.22224" lon="6.01786">
        <ele>1668.99</ele>
        <time>2016-10-31T06:57:08Z</time>
      </trkpt>
      <trkpt lat="45.2223" lon="6.01798">
        <ele>1669.95</ele>
        <time>2016-10-31T06:57:22Z</time>
      </trkpt>
      <trkpt lat="45.22238" lon="6.01814">
        <ele>1671.39</ele>
        <time>2016-10-31T06:57:39Z</time>
      </trkpt>
      <trkpt lat="45.22245" lon="6.01831">
        <ele>1673.79</ele>
        <time>2016-10-31T06:57:56Z</time>
      </trkpt>
      <trkpt lat="45.22247" lon="6.01844">
        <ele>1676.2</ele>
        <time>2016-10-31T06:58:13Z</time>
      </trkpt>
      <trkpt lat="45.22246" lon="6.01857">
        <ele>1678.12</ele>
        <time>2016-10-31T06:58:26Z</time>
      </trkpt>
      <trkpt lat="45.22249" lon="6.01883">
        <ele>1679.56</ele>
        <time>2016-10-31T06:58:44Z</time>
      </trkpt>
      <trkpt lat="45.22251" lon="6.01908">
        <ele>1681.96</ele>
        <time>2016-10-31T06:59:02Z</time>
      </trkpt>
      <trkpt lat="45.22249" lon="6.01926">
        <ele>1682.93</ele>
        <time>2016-10-31T06:59:18Z</time>
      </trkpt>
      <trkpt lat="45.22247" lon="6.01944">
        <ele>1683.89</ele>
        <time>2016-10-31T06:59:32Z</time>
      </trkpt>
      <trkpt lat="45.22245" lon="6.01962">
        <ele>1684.37</ele>
        <time>2016-10-31T06:59:47Z</time>
      </trkpt>
      <trkpt lat="45.22248" lon="6.01985">
        <ele>1685.81</ele>
        <time>2016-10-31T07:00:02Z</time>
      </trkpt>
      <trkpt lat="45.22251" lon="6.02">
        <ele>1688.21</ele>
        <time>2016-10-31T07:00:18Z</time>
      </trkpt>
      <trkpt lat="45.22249" lon="6.02013">
        <ele>1690.14</ele>
        <time>2016-10-31T07:00:35Z</time>
      </trkpt>
      <trkpt lat="45.22251" lon="6.02028">
        <ele>1693.02</ele>
        <time>2016-10-31T07:00:52Z</time>
      </trkpt>
      <trkpt lat="45.2225" lon="6.02044">
        <ele>1695.9</ele>
        <time>2016-10-31T07:01:10Z</time>
      </trkpt>
      <trkpt lat="45.22248" lon="6.02058">
        <ele>1697.83</ele>
        <time>2016-10-31T07:01:27Z</time>
      </trkpt>
      <trkpt lat="45.22248" lon="6.02071">
        <ele>1701.19</ele>
        <time>2016-10-31T07:01:46Z</time>
      </trkpt>
      <trkpt lat="45.22249" lon="6.02084">
        <ele>1704.07</ele>
        <time>2016-10-31T07:02:06Z</time>
      </trkpt>
      <trkpt lat="45.22251" lon="6.02099">
        <ele>1706.48</ele>
        <time>2016-10-31T07:02:23Z</time>
      </trkpt>
      <trkpt lat="45.22249" lon="6.02119">
        <ele>1707.92</ele>
        <time>2016-10-31T07:02:41Z</time>
      </trkpt>
      <trkpt lat="45.22248" lon="6.02143">
        <ele>1709.36</ele>
        <time>2016-10-31T07:02:59Z</time>
      </trkpt>
      <trkpt lat="45.22243" lon="6.02163">
        <ele>1711.76</ele>
        <time>2016-10-31T07:03:17Z</time>
      </trkpt>
      <trkpt lat="45.22235" lon="6.02171">
        <ele>1714.17</ele>
        <time>2016-10-31T07:03:33Z</time>
      </trkpt>
      <trkpt lat="45.22229" lon="6.02183">
        <ele>1716.09</ele>
        <time>2016-10-31T07:03:50Z</time>
      </trkpt>
      <trkpt lat="45.22225" lon="6.02197">
        <ele>1718.01</ele>
        <time>2016-10-31T07:04:04Z</time>
      </trkpt>
      <trkpt lat="45.22221" lon="6.0221">
        <ele>1718.49</ele>
        <time>2016-10-31T07:04:16Z</time>
      </trkpt>
      <trkpt lat="45.22215" lon="6.0222">
        <ele>1719.46</ele>
        <time>2016-10-31T07:04:27Z</time>
      </trkpt>
      <trkpt lat="45.2221" lon="6.02239">
        <ele>1720.9</ele>
        <time>2016-10-31T07:04:44Z</time>
      </trkpt>
      <trkpt lat="45.22205" lon="6.02253">
        <ele>1723.78</ele>
        <time>2016-10-31T07:05:01Z</time>
      </trkpt>
      <trkpt lat="45.22199" lon="6.02266">
        <ele>1726.67</ele>
        <time>2016-10-31T07:05:17Z</time>
      </trkpt>
      <trkpt lat="45.22194" lon="6.02277">
        <ele>1729.55</ele>
        <time>2016-10-31T07:05:34Z</time>
      </trkpt>
      <trkpt lat="45.22191" lon="6.02286">
        <ele>1731.95</ele>
        <time>2016-10-31T07:05:49Z</time>
      </trkpt>
      <trkpt lat="45.22183" lon="6.02298">
        <ele>1733.39</ele>
        <time>2016-10-31T07:06:04Z</time>
      </trkpt>
      <trkpt lat="45.22171" lon="6.02308">
        <ele>1735.8</ele>
        <time>2016-10-31T07:06:22Z</time>
      </trkpt>
      <trkpt lat="45.22163" lon="6.02318">
        <ele>1738.2</ele>
        <time>2016-10-31T07:06:40Z</time>
      </trkpt>
      <trkpt lat="45.22156" lon="6.02327">
        <ele>1741.57</ele>
        <time>2016-10-31T07:06:56Z</time>
      </trkpt>
      <trkpt lat="45.22149" lon="6.02338">
        <ele>1743.97</ele>
        <time>2016-10-31T07:07:12Z</time>
      </trkpt>
      <trkpt lat="45.22143" lon="6.02344">
        <ele>1746.37</ele>
        <time>2016-10-31T07:07:28Z</time>
      </trkpt>
      <trkpt lat="45.22137" lon="6.02354">
        <ele>1748.78</ele>
        <time>2016-10-31T07:07:47Z</time>
      </trkpt>
      <trkpt lat="45.22129" lon="6.0236">
        <ele>1751.66</ele>
        <time>2016-10-31T07:08:05Z</time>
      </trkpt>
      <trkpt lat="45.22125" lon="6.02365">
        <ele>1753.58</ele>
        <time>2016-10-31T07:08:19Z</time>
      </trkpt>
      <trkpt lat="45.22121" lon="6.0237">
        <ele>1754.54</ele>
        <time>2016-10-31T07:08:39Z</time>
      </trkpt>
      <trkpt lat="45.22115" lon="6.02376">
        <ele>1757.43</ele>
        <time>2016-10-31T07:08:54Z</time>
      </trkpt>
      <trkpt lat="45.22106" lon="6.02385">
        <ele>1760.31</ele>
        <time>2016-10-31T07:09:12Z</time>
      </trkpt>
      <trkpt lat="45.22099" lon="6.02392">
        <ele>1763.68</ele>
        <time>2016-10-31T07:09:32Z</time>
      </trkpt>
      <trkpt lat="45.22102" lon="6.02406">
        <ele>1765.6</ele>
        <time>2016-10-31T07:09:51Z</time>
      </trkpt>
      <trkpt lat="45.22103" lon="6.02415">
        <ele>1767.52</ele>
        <time>2016-10-31T07:10:07Z</time>
      </trkpt>
      <trkpt lat="45.22104" lon="6.02424">
        <ele>1769.44</ele>
        <time>2016-10-31T07:10:27Z</time>
      </trkpt>
      <trkpt lat="45.22094" lon="6.02424">
        <ele>1771.85</ele>
        <time>2016-10-31T07:10:43Z</time>
      </trkpt>
      <trkpt lat="45.22083" lon="6.02421">
        <ele>1774.73</ele>
        <time>2016-10-31T07:10:59Z</time>
      </trkpt>
      <trkpt lat="45.22077" lon="6.02419">
        <ele>1776.17</ele>
        <time>2016-10-31T07:11:14Z</time>
      </trkpt>
      <trkpt lat="45.22078" lon="6.02432">
        <ele>1778.58</ele>
        <time>2016-10-31T07:11:29Z</time>
      </trkpt>
      <trkpt lat="45.22081" lon="6.02444">
        <ele>1780.5</ele>
        <time>2016-10-31T07:11:44Z</time>
      </trkpt>
      <trkpt lat="45.22086" lon="6.02459">
        <ele>1783.86</ele>
        <time>2016-10-31T07:12:03Z</time>
      </trkpt>
      <trkpt lat="45.2209" lon="6.02468">
        <ele>1785.79</ele>
        <time>2016-10-31T07:12:18Z</time>
      </trkpt>
      <trkpt lat="45.22092" lon="6.02479">
        <ele>1788.67</ele>
        <time>2016-10-31T07:12:35Z</time>
      </trkpt>
      <trkpt lat="45.22097" lon="6.02489">
        <ele>1791.07</ele>
        <time>2016-10-31T07:12:50Z</time>
      </trkpt>
      <trkpt lat="45.22105" lon="6.025">
        <ele>1793</ele>
        <time>2016-10-31T07:13:08Z</time>
      </trkpt>
      <trkpt lat="45.22102" lon="6.02503">
        <ele>1793.96</ele>
        <time>2016-10-31T07:13:23Z</time>
      </trkpt>
      <trkpt lat="45.22103" lon="6.025">
        <ele>1793.48</ele>
        <time>2016-10-31T07:13:57Z</time>
      </trkpt>
      <trkpt lat="45.22103" lon="6.025">
        <ele>1793.48</ele>
        <time>2016-10-31T07:13:58Z</time>
      </trkpt>
      <trkpt lat="45.22101" lon="6.02503">
        <ele>1794.44</ele>
        <time>2016-10-31T07:14:14Z</time>
      </trkpt>
      <trkpt lat="45.22101" lon="6.025">
        <ele>1794.44</ele>
        <time>2016-10-31T07:15:03Z</time>
      </trkpt>
      <trkpt lat="45.221" lon="6.02503">
        <ele>1795.88</ele>
        <time>2016-10-31T07:15:34Z</time>
      </trkpt>
      <trkpt lat="45.22101" lon="6.02505">
        <ele>1795.88</ele>
        <time>2016-10-31T07:15:54Z</time>
      </trkpt>
      <trkpt lat="45.22099" lon="6.02504">
        <ele>1796.36</ele>
        <time>2016-10-31T07:16:19Z</time>
      </trkpt>
      <trkpt lat="45.22097" lon="6.02499">
        <ele>1796.84</ele>
        <time>2016-10-31T07:16:46Z</time>
      </trkpt>
      <trkpt lat="45.2209" lon="6.02499">
        <ele>1797.8</ele>
        <time>2016-10-31T07:17:05Z</time>
      </trkpt>
      <trkpt lat="45.22081" lon="6.02496">
        <ele>1799.73</ele>
        <time>2016-10-31T07:17:23Z</time>
      </trkpt>
      <trkpt lat="45.22071" lon="6.02488">
        <ele>1801.65</ele>
        <time>2016-10-31T07:17:40Z</time>
      </trkpt>
      <trkpt lat="45.22062" lon="6.02478">
        <ele>1802.61</ele>
        <time>2016-10-31T07:17:58Z</time>
      </trkpt>
      <trkpt lat="45.22055" lon="6.02473">
        <ele>1803.57</ele>
        <time>2016-10-31T07:18:14Z</time>
      </trkpt>
      <trkpt lat="45.22046" lon="6.02472">
        <ele>1805.49</ele>
        <time>2016-10-31T07:18:32Z</time>
      </trkpt>
      <trkpt lat="45.22037" lon="6.0247">
        <ele>1806.94</ele>
        <time>2016-10-31T07:18:46Z</time>
      </trkpt>
      <trkpt lat="45.22029" lon="6.02459">
        <ele>1808.38</ele>
        <time>2016-10-31T07:19:01Z</time>
      </trkpt>
      <trkpt lat="45.2202" lon="6.02449">
        <ele>1809.34</ele>
        <time>2016-10-31T07:19:16Z</time>
      </trkpt>
      <trkpt lat="45.22009" lon="6.0245">
        <ele>1811.74</ele>
        <time>2016-10-31T07:19:31Z</time>
      </trkpt>
      <trkpt lat="45.22002" lon="6.02454">
        <ele>1814.63</ele>
        <time>2016-10-31T07:19:46Z</time>
      </trkpt>
      <trkpt lat="45.22005" lon="6.02469">
        <ele>1816.07</ele>
        <time>2016-10-31T07:20:02Z</time>
      </trkpt>
      <trkpt lat="45.22011" lon="6.02488">
        <ele>1818.47</ele>
        <time>2016-10-31T07:20:19Z</time>
      </trkpt>
      <trkpt lat="45.22016" lon="6.02502">
        <ele>1820.87</ele>
        <time>2016-10-31T07:20:35Z</time>
      </trkpt>
      <trkpt lat="45.22007" lon="6.02502">
        <ele>1823.28</ele>
        <time>2016-10-31T07:20:52Z</time>
      </trkpt>
      <trkpt lat="45.21996" lon="6.02497">
        <ele>1826.16</ele>
        <time>2016-10-31T07:21:08Z</time>
      </trkpt>
      <trkpt lat="45.21986" lon="6.02487">
        <ele>1827.6</ele>
        <time>2016-10-31T07:21:24Z</time>
      </trkpt>
      <trkpt lat="45.21975" lon="6.0248">
        <ele>1830.01</ele>
        <time>2016-10-31T07:21:41Z</time>
      </trkpt>
      <trkpt lat="45.21963" lon="6.02474">
        <ele>1832.41</ele>
        <time>2016-10-31T07:21:58Z</time>
      </trkpt>
      <trkpt lat="45.21954" lon="6.02468">
        <ele>1835.77</ele>
        <time>2016-10-31T07:22:16Z</time>
      </trkpt>
      <trkpt lat="45.21945" lon="6.02464">
        <ele>1838.66</ele>
        <time>2016-10-31T07:22:32Z</time>
      </trkpt>
      <trkpt lat="45.21935" lon="6.02457">
        <ele>1841.06</ele>
        <time>2016-10-31T07:22:51Z</time>
      </trkpt>
      <trkpt lat="45.21924" lon="6.02451">
        <ele>1843.95</ele>
        <time>2016-10-31T07:23:09Z</time>
      </trkpt>
      <trkpt lat="45.21916" lon="6.02446">
        <ele>1845.87</ele>
        <time>2016-10-31T07:23:26Z</time>
      </trkpt>
      <trkpt lat="45.21909" lon="6.02442">
        <ele>1848.75</ele>
        <time>2016-10-31T07:23:42Z</time>
      </trkpt>
      <trkpt lat="45.21904" lon="6.02437">
        <ele>1851.64</ele>
        <time>2016-10-31T07:23:58Z</time>
      </trkpt>
      <trkpt lat="45.21899" lon="6.02434">
        <ele>1853.08</ele>
        <time>2016-10-31T07:24:14Z</time>
      </trkpt>
      <trkpt lat="45.21889" lon="6.02424">
        <ele>1855.48</ele>
        <time>2016-10-31T07:24:33Z</time>
      </trkpt>
      <trkpt lat="45.21883" lon="6.02418">
        <ele>1858.85</ele>
        <time>2016-10-31T07:24:51Z</time>
      </trkpt>
      <trkpt lat="45.2188" lon="6.02425">
        <ele>1861.25</ele>
        <time>2016-10-31T07:25:07Z</time>
      </trkpt>
      <trkpt lat="45.2188" lon="6.02439">
        <ele>1864.61</ele>
        <time>2016-10-31T07:25:27Z</time>
      </trkpt>
      <trkpt lat="45.21886" lon="6.02453">
        <ele>1866.54</ele>
        <time>2016-10-31T07:25:46Z</time>
      </trkpt>
      <trkpt lat="45.21894" lon="6.02463">
        <ele>1867.98</ele>
        <time>2016-10-31T07:26:02Z</time>
      </trkpt>
      <trkpt lat="45.21902" lon="6.02476">
        <ele>1870.38</ele>
        <time>2016-10-31T07:26:20Z</time>
      </trkpt>
      <trkpt lat="45.21902" lon="6.02484">
        <ele>1873.75</ele>
        <time>2016-10-31T07:26:36Z</time>
      </trkpt>
      <trkpt lat="45.21905" lon="6.02503">
        <ele>1875.19</ele>
        <time>2016-10-31T07:26:56Z</time>
      </trkpt>
      <trkpt lat="45.21909" lon="6.02514">
        <ele>1878.07</ele>
        <time>2016-10-31T07:27:11Z</time>
      </trkpt>
      <trkpt lat="45.21907" lon="6.02526">
        <ele>1881.44</ele>
        <time>2016-10-31T07:27:27Z</time>
      </trkpt>
      <trkpt lat="45.21906" lon="6.02538">
        <ele>1883.84</ele>
        <time>2016-10-31T07:27:45Z</time>
      </trkpt>
      <trkpt lat="45.21899" lon="6.02533">
        <ele>1885.76</ele>
        <time>2016-10-31T07:28:01Z</time>
      </trkpt>
      <trkpt lat="45.21891" lon="6.02525">
        <ele>1888.65</ele>
        <time>2016-10-31T07:28:20Z</time>
      </trkpt>
      <trkpt lat="45.21886" lon="6.02513">
        <ele>1890.57</ele>
        <time>2016-10-31T07:28:36Z</time>
      </trkpt>
      <trkpt lat="45.21876" lon="6.02505">
        <ele>1893.45</ele>
        <time>2016-10-31T07:28:54Z</time>
      </trkpt>
      <trkpt lat="45.21867" lon="6.02497">
        <ele>1896.34</ele>
        <time>2016-10-31T07:29:11Z</time>
      </trkpt>
      <trkpt lat="45.21859" lon="6.02495">
        <ele>1899.7</ele>
        <time>2016-10-31T07:29:27Z</time>
      </trkpt>
      <trkpt lat="45.21857" lon="6.0249">
        <ele>1900.66</ele>
        <time>2016-10-31T07:29:45Z</time>
      </trkpt>
      <trkpt lat="45.21849" lon="6.02487">
        <ele>1903.55</ele>
        <time>2016-10-31T07:30:01Z</time>
      </trkpt>
      <trkpt lat="45.21847" lon="6.02497">
        <ele>1906.43</ele>
        <time>2016-10-31T07:30:17Z</time>
      </trkpt>
      <trkpt lat="45.2185" lon="6.02508">
        <ele>1909.32</ele>
        <time>2016-10-31T07:30:34Z</time>
      </trkpt>
      <trkpt lat="45.21849" lon="6.02515">
        <ele>1912.2</ele>
        <time>2016-10-31T07:30:49Z</time>
      </trkpt>
      <trkpt lat="45.21847" lon="6.02525">
        <ele>1915.56</ele>
        <time>2016-10-31T07:31:06Z</time>
      </trkpt>
      <trkpt lat="45.21847" lon="6.02536">
        <ele>1918.45</ele>
        <time>2016-10-31T07:31:22Z</time>
      </trkpt>
      <trkpt lat="45.21847" lon="6.02547">
        <ele>1920.37</ele>
        <time>2016-10-31T07:31:37Z</time>
      </trkpt>
      <trkpt lat="45.21847" lon="6.02552">
        <ele>1923.25</ele>
        <time>2016-10-31T07:31:53Z</time>
      </trkpt>
      <trkpt lat="45.21847" lon="6.02562">
        <ele>1925.66</ele>
        <time>2016-10-31T07:32:08Z</time>
      </trkpt>
      <trkpt lat="45.21849" lon="6.02574">
        <ele>1927.58</ele>
        <time>2016-10-31T07:32:25Z</time>
      </trkpt>
      <trkpt lat="45.2185" lon="6.0259">
        <ele>1929.5</ele>
        <time>2016-10-31T07:32:40Z</time>
      </trkpt>
      <trkpt lat="45.21847" lon="6.02601">
        <ele>1931.43</ele>
        <time>2016-10-31T07:32:56Z</time>
      </trkpt>
      <trkpt lat="45.21842" lon="6.02615">
        <ele>1933.35</ele>
        <time>2016-10-31T07:33:11Z</time>
      </trkpt>
      <trkpt lat="45.2184" lon="6.02635">
        <ele>1934.79</ele>
        <time>2016-10-31T07:33:29Z</time>
      </trkpt>
      <trkpt lat="45.21846" lon="6.02652">
        <ele>1934.79</ele>
        <time>2016-10-31T07:33:45Z</time>
      </trkpt>
      <trkpt lat="45.21845" lon="6.02673">
        <ele>1936.23</ele>
        <time>2016-10-31T07:34:04Z</time>
      </trkpt>
      <trkpt lat="45.21837" lon="6.02692">
        <ele>1937.67</ele>
        <time>2016-10-31T07:34:21Z</time>
      </trkpt>
      <trkpt lat="45.21832" lon="6.02713">
        <ele>1939.6</ele>
        <time>2016-10-31T07:34:40Z</time>
      </trkpt>
      <trkpt lat="45.21835" lon="6.02706">
        <ele>1939.6</ele>
        <time>2016-10-31T07:35:02Z</time>
      </trkpt>
      <trkpt lat="45.21826" lon="6.02728">
        <ele>1940.08</ele>
        <time>2016-10-31T07:35:22Z</time>
      </trkpt>
      <trkpt lat="45.21822" lon="6.02752">
        <ele>1941.52</ele>
        <time>2016-10-31T07:35:38Z</time>
      </trkpt>
      <trkpt lat="45.21822" lon="6.02756">
        <ele>1941.52</ele>
        <time>2016-10-31T07:35:41Z</time>
      </trkpt>
      <trkpt lat="45.21821" lon="6.02774">
        <ele>1943.44</ele>
        <time>2016-10-31T07:35:56Z</time>
      </trkpt>
      <trkpt lat="45.21821" lon="6.02787">
        <ele>1945.85</ele>
        <time>2016-10-31T07:36:13Z</time>
      </trkpt>
      <trkpt lat="45.21818" lon="6.02798">
        <ele>1947.29</ele>
        <time>2016-10-31T07:36:25Z</time>
      </trkpt>
      <trkpt lat="45.21809" lon="6.0281">
        <ele>1948.25</ele>
        <time>2016-10-31T07:36:41Z</time>
      </trkpt>
      <trkpt lat="45.21807" lon="6.02825">
        <ele>1949.69</ele>
        <time>2016-10-31T07:36:55Z</time>
      </trkpt>
      <trkpt lat="45.21804" lon="6.02843">
        <ele>1951.61</ele>
        <time>2016-10-31T07:37:10Z</time>
      </trkpt>
      <trkpt lat="45.218" lon="6.02854">
        <ele>1954.02</ele>
        <time>2016-10-31T07:37:24Z</time>
      </trkpt>
      <trkpt lat="45.218" lon="6.02864">
        <ele>1956.42</ele>
        <time>2016-10-31T07:37:38Z</time>
      </trkpt>
      <trkpt lat="45.21797" lon="6.02873">
        <ele>1959.3</ele>
        <time>2016-10-31T07:37:52Z</time>
      </trkpt>
      <trkpt lat="45.21804" lon="6.02878">
        <ele>1962.67</ele>
        <time>2016-10-31T07:38:11Z</time>
      </trkpt>
      <trkpt lat="45.21801" lon="6.02887">
        <ele>1965.07</ele>
        <time>2016-10-31T07:38:29Z</time>
      </trkpt>
      <trkpt lat="45.21795" lon="6.029">
        <ele>1966.51</ele>
        <time>2016-10-31T07:38:46Z</time>
      </trkpt>
      <trkpt lat="45.21787" lon="6.02913">
        <ele>1967.96</ele>
        <time>2016-10-31T07:39:02Z</time>
      </trkpt>
      <trkpt lat="45.21779" lon="6.02929">
        <ele>1968.92</ele>
        <time>2016-10-31T07:39:17Z</time>
      </trkpt>
      <trkpt lat="45.21775" lon="6.02943">
        <ele>1971.32</ele>
        <time>2016-10-31T07:39:32Z</time>
      </trkpt>
      <trkpt lat="45.21775" lon="6.02954">
        <ele>1972.28</ele>
        <time>2016-10-31T07:39:46Z</time>
      </trkpt>
      <trkpt lat="45.21773" lon="6.02957">
        <ele>1973.24</ele>
        <time>2016-10-31T07:40:00Z</time>
      </trkpt>
      <trkpt lat="45.2177" lon="6.02959">
        <ele>1973.72</ele>
        <time>2016-10-31T07:40:23Z</time>
      </trkpt>
      <trkpt lat="45.2177" lon="6.02958">
        <ele>1974.2</ele>
        <time>2016-10-31T07:40:47Z</time>
      </trkpt>
      <trkpt lat="45.21776" lon="6.0296">
        <ele>1972.76</ele>
        <time>2016-10-31T07:40:58Z</time>
      </trkpt>
      <trkpt lat="45.21776" lon="6.02962">
        <ele>1972.28</ele>
        <time>2016-10-31T07:40:59Z</time>
      </trkpt>
      <trkpt lat="45.21779" lon="6.02981">
        <ele>1972.28</ele>
        <time>2016-10-31T07:41:14Z</time>
      </trkpt>
      <trkpt lat="45.21781" lon="6.02983">
        <ele>1973.72</ele>
        <time>2016-10-31T07:41:16Z</time>
      </trkpt>
      <trkpt lat="45.21786" lon="6.02991">
        <ele>1976.61</ele>
        <time>2016-10-31T07:41:32Z</time>
      </trkpt>
      <trkpt lat="45.21796" lon="6.03">
        <ele>1979.01</ele>
        <time>2016-10-31T07:41:49Z</time>
      </trkpt>
      <trkpt lat="45.21804" lon="6.03011">
        <ele>1981.9</ele>
        <time>2016-10-31T07:42:06Z</time>
      </trkpt>
      <trkpt lat="45.21807" lon="6.03021">
        <ele>1984.3</ele>
        <time>2016-10-31T07:42:21Z</time>
      </trkpt>
      <trkpt lat="45.21814" lon="6.03018">
        <ele>1987.18</ele>
        <time>2016-10-31T07:42:42Z</time>
      </trkpt>
      <trkpt lat="45.21819" lon="6.03005">
        <ele>1989.59</ele>
        <time>2016-10-31T07:42:57Z</time>
      </trkpt>
      <trkpt lat="45.21824" lon="6.0299">
        <ele>1992.47</ele>
        <time>2016-10-31T07:43:14Z</time>
      </trkpt>
      <trkpt lat="45.21825" lon="6.02974">
        <ele>1993.43</ele>
        <time>2016-10-31T07:43:32Z</time>
      </trkpt>
      <trkpt lat="45.21826" lon="6.02974">
        <ele>1993.91</ele>
        <time>2016-10-31T07:43:52Z</time>
      </trkpt>
      <trkpt lat="45.21827" lon="6.02971">
        <ele>1994.87</ele>
        <time>2016-10-31T07:44:11Z</time>
      </trkpt>
      <trkpt lat="45.21826" lon="6.02987">
        <ele>1994.87</ele>
        <time>2016-10-31T07:44:34Z</time>
      </trkpt>
      <trkpt lat="45.21827" lon="6.02984">
        <ele>1993.91</ele>
        <time>2016-10-31T07:44:56Z</time>
      </trkpt>
      <trkpt lat="45.21824" lon="6.02987">
        <ele>1993.91</ele>
        <time>2016-10-31T07:45:19Z</time>
      </trkpt>
      <trkpt lat="45.21826" lon="6.02995">
        <ele>1993.91</ele>
        <time>2016-10-31T07:45:34Z</time>
      </trkpt>
      <trkpt lat="45.21829" lon="6.02998">
        <ele>1995.35</ele>
        <time>2016-10-31T07:45:40Z</time>
      </trkpt>
      <trkpt lat="45.21833" lon="6.03013">
        <ele>1998.24</ele>
        <time>2016-10-31T07:46:01Z</time>
      </trkpt>
      <trkpt lat="45.21837" lon="6.0302">
        <ele>2001.12</ele>
        <time>2016-10-31T07:46:18Z</time>
      </trkpt>
      <trkpt lat="45.2184" lon="6.03022">
        <ele>2003.52</ele>
        <time>2016-10-31T07:46:36Z</time>
      </trkpt>
      <trkpt lat="45.21846" lon="6.03021">
        <ele>2006.41</ele>
        <time>2016-10-31T07:46:53Z</time>
      </trkpt>
      <trkpt lat="45.21849" lon="6.03019">
        <ele>2008.33</ele>
        <time>2016-10-31T07:47:10Z</time>
      </trkpt>
      <trkpt lat="45.21849" lon="6.03006">
        <ele>2011.22</ele>
        <time>2016-10-31T07:47:29Z</time>
      </trkpt>
      <trkpt lat="45.2185" lon="6.02993">
        <ele>2013.14</ele>
        <time>2016-10-31T07:47:48Z</time>
      </trkpt>
      <trkpt lat="45.21855" lon="6.02984">
        <ele>2015.06</ele>
        <time>2016-10-31T07:48:04Z</time>
      </trkpt>
      <trkpt lat="45.21861" lon="6.02988">
        <ele>2016.98</ele>
        <time>2016-10-31T07:48:21Z</time>
      </trkpt>
      <trkpt lat="45.21867" lon="6.03001">
        <ele>2018.91</ele>
        <time>2016-10-31T07:48:41Z</time>
      </trkpt>
      <trkpt lat="45.21873" lon="6.03006">
        <ele>2022.27</ele>
        <time>2016-10-31T07:48:59Z</time>
      </trkpt>
      <trkpt lat="45.21879" lon="6.03011">
        <ele>2024.67</ele>
        <time>2016-10-31T07:49:18Z</time>
      </trkpt>
      <trkpt lat="45.21883" lon="6.03015">
        <ele>2027.56</ele>
        <time>2016-10-31T07:49:35Z</time>
      </trkpt>
      <trkpt lat="45.21891" lon="6.03019">
        <ele>2029.48</ele>
        <time>2016-10-31T07:49:53Z</time>
      </trkpt>
      <trkpt lat="45.21897" lon="6.03028">
        <ele>2032.36</ele>
        <time>2016-10-31T07:50:12Z</time>
      </trkpt>
      <trkpt lat="45.21906" lon="6.03033">
        <ele>2034.29</ele>
        <time>2016-10-31T07:50:31Z</time>
      </trkpt>
      <trkpt lat="45.21911" lon="6.03037">
        <ele>2036.69</ele>
        <time>2016-10-31T07:50:49Z</time>
      </trkpt>
      <trkpt lat="45.2191" lon="6.03045">
        <ele>2039.09</ele>
        <time>2016-10-31T07:51:03Z</time>
      </trkpt>
      <trkpt lat="45.21915" lon="6.03054">
        <ele>2041.5</ele>
        <time>2016-10-31T07:51:20Z</time>
      </trkpt>
      <trkpt lat="45.21923" lon="6.03056">
        <ele>2043.42</ele>
        <time>2016-10-31T07:51:38Z</time>
      </trkpt>
      <trkpt lat="45.21931" lon="6.03056">
        <ele>2044.86</ele>
        <time>2016-10-31T07:51:54Z</time>
      </trkpt>
      <trkpt lat="45.21946" lon="6.03064">
        <ele>2045.82</ele>
        <time>2016-10-31T07:52:14Z</time>
      </trkpt>
      <trkpt lat="45.21957" lon="6.03065">
        <ele>2046.3</ele>
        <time>2016-10-31T07:52:29Z</time>
      </trkpt>
      <trkpt lat="45.21962" lon="6.03065">
        <ele>2044.86</ele>
        <time>2016-10-31T07:52:40Z</time>
      </trkpt>
      <trkpt lat="45.21963" lon="6.03061">
        <ele>2043.42</ele>
        <time>2016-10-31T07:52:45Z</time>
      </trkpt>
      <trkpt lat="45.21973" lon="6.03044">
        <ele>2042.94</ele>
        <time>2016-10-31T07:53:03Z</time>
      </trkpt>
      <trkpt lat="45.21986" lon="6.03039">
        <ele>2041.02</ele>
        <time>2016-10-31T07:53:20Z</time>
      </trkpt>
      <trkpt lat="45.21999" lon="6.0303">
        <ele>2038.13</ele>
        <time>2016-10-31T07:53:36Z</time>
      </trkpt>
      <trkpt lat="45.22011" lon="6.03036">
        <ele>2036.21</ele>
        <time>2016-10-31T07:53:51Z</time>
      </trkpt>
      <trkpt lat="45.22021" lon="6.03041">
        <ele>2035.73</ele>
        <time>2016-10-31T07:54:06Z</time>
      </trkpt>
      <trkpt lat="45.22031" lon="6.0304">
        <ele>2035.73</ele>
        <time>2016-10-31T07:54:21Z</time>
      </trkpt>
      <trkpt lat="45.22041" lon="6.03049">
        <ele>2033.33</ele>
        <time>2016-10-31T07:54:38Z</time>
      </trkpt>
      <trkpt lat="45.22048" lon="6.03046">
        <ele>2032.84</ele>
        <time>2016-10-31T07:54:54Z</time>
      </trkpt>
      <trkpt lat="45.22052" lon="6.03059">
        <ele>2034.77</ele>
        <time>2016-10-31T07:55:10Z</time>
      </trkpt>
      <trkpt lat="45.22057" lon="6.03057">
        <ele>2037.17</ele>
        <time>2016-10-31T07:55:26Z</time>
      </trkpt>
      <trkpt lat="45.22062" lon="6.03059">
        <ele>2040.54</ele>
        <time>2016-10-31T07:55:44Z</time>
      </trkpt>
      <trkpt lat="45.22069" lon="6.03063">
        <ele>2042.46</ele>
        <time>2016-10-31T07:55:58Z</time>
      </trkpt>
      <trkpt lat="45.22077" lon="6.03067">
        <ele>2044.38</ele>
        <time>2016-10-31T07:56:14Z</time>
      </trkpt>
      <trkpt lat="45.22081" lon="6.03066">
        <ele>2047.26</ele>
        <time>2016-10-31T07:56:28Z</time>
      </trkpt>
      <trkpt lat="45.22087" lon="6.03064">
        <ele>2049.67</ele>
        <time>2016-10-31T07:56:46Z</time>
      </trkpt>
      <trkpt lat="45.22094" lon="6.03076">
        <ele>2049.67</ele>
        <time>2016-10-31T07:57:03Z</time>
      </trkpt>
      <trkpt lat="45.221" lon="6.03086">
        <ele>2050.63</ele>
        <time>2016-10-31T07:57:19Z</time>
      </trkpt>
      <trkpt lat="45.22105" lon="6.03087">
        <ele>2053.03</ele>
        <time>2016-10-31T07:57:36Z</time>
      </trkpt>
      <trkpt lat="45.22114" lon="6.03085">
        <ele>2055.92</ele>
        <time>2016-10-31T07:57:56Z</time>
      </trkpt>
      <trkpt lat="45.22119" lon="6.03082">
        <ele>2058.32</ele>
        <time>2016-10-31T07:58:17Z</time>
      </trkpt>
      <trkpt lat="45.22123" lon="6.03079">
        <ele>2060.72</ele>
        <time>2016-10-31T07:58:34Z</time>
      </trkpt>
      <trkpt lat="45.22127" lon="6.03082">
        <ele>2063.13</ele>
        <time>2016-10-31T07:58:50Z</time>
      </trkpt>
      <trkpt lat="45.22135" lon="6.03081">
        <ele>2064.09</ele>
        <time>2016-10-31T07:59:06Z</time>
      </trkpt>
      <trkpt lat="45.2214" lon="6.03079">
        <ele>2062.65</ele>
        <time>2016-10-31T07:59:17Z</time>
      </trkpt>
      <trkpt lat="45.22149" lon="6.03078">
        <ele>2064.09</ele>
        <time>2016-10-31T07:59:30Z</time>
      </trkpt>
      <trkpt lat="45.22156" lon="6.03078">
        <ele>2064.09</ele>
        <time>2016-10-31T07:59:44Z</time>
      </trkpt>
      <trkpt lat="45.22165" lon="6.03081">
        <ele>2066.97</ele>
        <time>2016-10-31T08:00:04Z</time>
      </trkpt>
      <trkpt lat="45.22174" lon="6.03077">
        <ele>2067.93</ele>
        <time>2016-10-31T08:00:18Z</time>
      </trkpt>
      <trkpt lat="45.22184" lon="6.03084">
        <ele>2069.86</ele>
        <time>2016-10-31T08:00:34Z</time>
      </trkpt>
      <trkpt lat="45.22191" lon="6.03086">
        <ele>2071.3</ele>
        <time>2016-10-31T08:00:48Z</time>
      </trkpt>
      <trkpt lat="45.22195" lon="6.03085">
        <ele>2071.3</ele>
        <time>2016-10-31T08:01:10Z</time>
      </trkpt>
      <trkpt lat="45.22195" lon="6.03085">
        <ele>2071.3</ele>
        <time>2016-10-31T08:01:44Z</time>
      </trkpt>
      <trkpt lat="45.22191" lon="6.03084">
        <ele>2071.78</ele>
        <time>2016-10-31T08:02:13Z</time>
      </trkpt>
      <trkpt lat="45.22195" lon="6.03083">
        <ele>2071.78</ele>
        <time>2016-10-31T08:02:40Z</time>
      </trkpt>
      <trkpt lat="45.22194" lon="6.03088">
        <ele>2071.78</ele>
        <time>2016-10-31T08:03:08Z</time>
      </trkpt>
      <trkpt lat="45.22201" lon="6.03088">
        <ele>2073.7</ele>
        <time>2016-10-31T08:03:27Z</time>
      </trkpt>
      <trkpt lat="45.22206" lon="6.03091">
        <ele>2077.07</ele>
        <time>2016-10-31T08:03:42Z</time>
      </trkpt>
      <trkpt lat="45.2221" lon="6.03093">
        <ele>2079.95</ele>
        <time>2016-10-31T08:04:04Z</time>
      </trkpt>
      <trkpt lat="45.22212" lon="6.03096">
        <ele>2081.87</ele>
        <time>2016-10-31T08:04:19Z</time>
      </trkpt>
      <trkpt lat="45.22217" lon="6.03097">
        <ele>2085.24</ele>
        <time>2016-10-31T08:04:40Z</time>
      </trkpt>
      <trkpt lat="45.22222" lon="6.03093">
        <ele>2087.64</ele>
        <time>2016-10-31T08:04:59Z</time>
      </trkpt>
      <trkpt lat="45.22225" lon="6.03099">
        <ele>2089.08</ele>
        <time>2016-10-31T08:05:15Z</time>
      </trkpt>
      <trkpt lat="45.22226" lon="6.03107">
        <ele>2091.97</ele>
        <time>2016-10-31T08:05:35Z</time>
      </trkpt>
      <trkpt lat="45.22226" lon="6.03109">
        <ele>2092.45</ele>
        <time>2016-10-31T08:06:08Z</time>
      </trkpt>
      <trkpt lat="45.22222" lon="6.03107">
        <ele>2092.45</ele>
        <time>2016-10-31T08:06:37Z</time>
      </trkpt>
      <trkpt lat="45.22224" lon="6.03106">
        <ele>2092.45</ele>
        <time>2016-10-31T08:07:02Z</time>
      </trkpt>
      <trkpt lat="45.22225" lon="6.03104">
        <ele>2092.45</ele>
        <time>2016-10-31T08:07:34Z</time>
      </trkpt>
      <trkpt lat="45.22225" lon="6.03107">
        <ele>2091.49</ele>
        <time>2016-10-31T08:07:52Z</time>
      </trkpt>
      <trkpt lat="45.22225" lon="6.03107">
        <ele>2091.49</ele>
        <time>2016-10-31T08:08:23Z</time>
      </trkpt>
      <trkpt lat="45.22224" lon="6.03107">
        <ele>2091.49</ele>
        <time>2016-10-31T08:09:08Z</time>
      </trkpt>
      <trkpt lat="45.22224" lon="6.03108">
        <ele>2091.97</ele>
        <time>2016-10-31T08:09:49Z</time>
      </trkpt>
      <trkpt lat="45.22225" lon="6.03107">
        <ele>2091.97</ele>
        <time>2016-10-31T08:10:41Z</time>
      </trkpt>
      <trkpt lat="45.22224" lon="6.03107">
        <ele>2092.45</ele>
        <time>2016-10-31T08:11:35Z</time>
      </trkpt>
      <trkpt lat="45.22223" lon="6.03108">
        <ele>2092.93</ele>
        <time>2016-10-31T08:12:21Z</time>
      </trkpt>
      <trkpt lat="45.22225" lon="6.03109">
        <ele>2092.93</ele>
        <time>2016-10-31T08:12:53Z</time>
      </trkpt>
      <trkpt lat="45.22224" lon="6.03107">
        <ele>2093.41</ele>
        <time>2016-10-31T08:13:38Z</time>
      </trkpt>
      <trkpt lat="45.22223" lon="6.03106">
        <ele>2093.41</ele>
        <time>2016-10-31T08:14:20Z</time>
      </trkpt>
      <trkpt lat="45.22224" lon="6.0311">
        <ele>2093.89</ele>
        <time>2016-10-31T08:15:07Z</time>
      </trkpt>
      <trkpt lat="45.22224" lon="6.0311">
        <ele>2095.33</ele>
        <time>2016-10-31T08:15:35Z</time>
      </trkpt>
      <trkpt lat="45.22227" lon="6.03109">
        <ele>2095.33</ele>
        <time>2016-10-31T08:15:58Z</time>
      </trkpt>
      <trkpt lat="45.22227" lon="6.0311">
        <ele>2096.29</ele>
        <time>2016-10-31T08:16:33Z</time>
      </trkpt>
      <trkpt lat="45.22233" lon="6.0311">
        <ele>2096.29</ele>
        <time>2016-10-31T08:17:11Z</time>
      </trkpt>
      <trkpt lat="45.2223" lon="6.03106">
        <ele>2096.77</ele>
        <time>2016-10-31T08:17:43Z</time>
      </trkpt>
      <trkpt lat="45.2223" lon="6.03107">
        <ele>2096.77</ele>
        <time>2016-10-31T08:18:10Z</time>
      </trkpt>
      <trkpt lat="45.22229" lon="6.03108">
        <ele>2096.77</ele>
        <time>2016-10-31T08:18:32Z</time>
      </trkpt>
      <trkpt lat="45.22227" lon="6.03108">
        <ele>2096.77</ele>
        <time>2016-10-31T08:18:49Z</time>
      </trkpt>
      <trkpt lat="45.22226" lon="6.03108">
        <ele>2097.25</ele>
        <time>2016-10-31T08:19:12Z</time>
      </trkpt>
      <trkpt lat="45.22228" lon="6.03108">
        <ele>2097.25</ele>
        <time>2016-10-31T08:19:46Z</time>
      </trkpt>
      <trkpt lat="45.22228" lon="6.0311">
        <ele>2097.73</ele>
        <time>2016-10-31T08:20:15Z</time>
      </trkpt>
      <trkpt lat="45.22229" lon="6.03109">
        <ele>2097.73</ele>
        <time>2016-10-31T08:20:39Z</time>
      </trkpt>
      <trkpt lat="45.22231" lon="6.03108">
        <ele>2097.73</ele>
        <time>2016-10-31T08:21:12Z</time>
      </trkpt>
      <trkpt lat="45.22232" lon="6.03111">
        <ele>2098.7</ele>
        <time>2016-10-31T08:21:38Z</time>
      </trkpt>
      <trkpt lat="45.22233" lon="6.03114">
        <ele>2101.58</ele>
        <time>2016-10-31T08:21:52Z</time>
      </trkpt>
      <trkpt lat="45.22236" lon="6.03116">
        <ele>2104.46</ele>
        <time>2016-10-31T08:22:07Z</time>
      </trkpt>
      <trkpt lat="45.2224" lon="6.03116">
        <ele>2106.39</ele>
        <time>2016-10-31T08:22:23Z</time>
      </trkpt>
      <trkpt lat="45.22242" lon="6.03119">
        <ele>2109.27</ele>
        <time>2016-10-31T08:22:38Z</time>
      </trkpt>
      <trkpt lat="45.22244" lon="6.03116">
        <ele>2111.67</ele>
        <time>2016-10-31T08:22:58Z</time>
      </trkpt>
      <trkpt lat="45.22245" lon="6.03118">
        <ele>2111.67</ele>
        <time>2016-10-31T08:23:27Z</time>
      </trkpt>
      <trkpt lat="45.22243" lon="6.03119">
        <ele>2111.67</ele>
        <time>2016-10-31T08:23:57Z</time>
      </trkpt>
      <trkpt lat="45.22242" lon="6.03119">
        <ele>2112.15</ele>
        <time>2016-10-31T08:24:24Z</time>
      </trkpt>
      <trkpt lat="45.22241" lon="6.03118">
        <ele>2112.15</ele>
        <time>2016-10-31T08:24:53Z</time>
      </trkpt>
      <trkpt lat="45.22243" lon="6.03116">
        <ele>2112.63</ele>
        <time>2016-10-31T08:25:27Z</time>
      </trkpt>
      <trkpt lat="45.22245" lon="6.03118">
        <ele>2113.12</ele>
        <time>2016-10-31T08:26:03Z</time>
      </trkpt>
      <trkpt lat="45.22242" lon="6.03116">
        <ele>2113.12</ele>
        <time>2016-10-31T08:26:33Z</time>
      </trkpt>
      <trkpt lat="45.22246" lon="6.03119">
        <ele>2113.12</ele>
        <time>2016-10-31T08:27:11Z</time>
      </trkpt>
      <trkpt lat="45.22242" lon="6.03122">
        <ele>2113.6</ele>
        <time>2016-10-31T08:27:35Z</time>
      </trkpt>
      <trkpt lat="45.22244" lon="6.03123">
        <ele>2114.08</ele>
        <time>2016-10-31T08:28:15Z</time>
      </trkpt>
      <trkpt lat="45.22244" lon="6.03122">
        <ele>2114.56</ele>
        <time>2016-10-31T08:28:48Z</time>
      </trkpt>
      <trkpt lat="45.22242" lon="6.0312">
        <ele>2115.04</ele>
        <time>2016-10-31T08:29:31Z</time>
      </trkpt>
      <trkpt lat="45.22243" lon="6.03117">
        <ele>2115.52</ele>
        <time>2016-10-31T08:29:57Z</time>
      </trkpt>
      <trkpt lat="45.22244" lon="6.03123">
        <ele>2116.48</ele>
        <time>2016-10-31T08:30:25Z</time>
      </trkpt>
      <trkpt lat="45.22246" lon="6.03123">
        <ele>2117.92</ele>
        <time>2016-10-31T08:30:53Z</time>
      </trkpt>
      <trkpt lat="45.22245" lon="6.03123">
        <ele>2118.4</ele>
        <time>2016-10-31T08:31:16Z</time>
      </trkpt>
      <trkpt lat="45.22248" lon="6.03123">
        <ele>2119.36</ele>
        <time>2016-10-31T08:31:50Z</time>
      </trkpt>
      <trkpt lat="45.22246" lon="6.03123">
        <ele>2120.32</ele>
        <time>2016-10-31T08:32:11Z</time>
      </trkpt>
      <trkpt lat="45.22248" lon="6.03125">
        <ele>2120.81</ele>
        <time>2016-10-31T08:32:40Z</time>
      </trkpt>
      <trkpt lat="45.22249" lon="6.03127">
        <ele>2121.77</ele>
        <time>2016-10-31T08:33:00Z</time>
      </trkpt>
      <trkpt lat="45.22252" lon="6.03125">
        <ele>2123.21</ele>
        <time>2016-10-31T08:33:27Z</time>
      </trkpt>
      <trkpt lat="45.22248" lon="6.03128">
        <ele>2123.21</ele>
        <time>2016-10-31T08:33:48Z</time>
      </trkpt>
      <trkpt lat="45.22252" lon="6.03126">
        <ele>2124.17</ele>
        <time>2016-10-31T08:34:23Z</time>
      </trkpt>
      <trkpt lat="45.22251" lon="6.03122">
        <ele>2124.17</ele>
        <time>2016-10-31T08:34:49Z</time>
      </trkpt>
      <trkpt lat="45.2225" lon="6.03121">
        <ele>2124.17</ele>
        <time>2016-10-31T08:35:13Z</time>
      </trkpt>
      <trkpt lat="45.2225" lon="6.0312">
        <ele>2124.17</ele>
        <time>2016-10-31T08:35:43Z</time>
      </trkpt>
      <trkpt lat="45.22249" lon="6.03122">
        <ele>2124.17</ele>
        <time>2016-10-31T08:36:17Z</time>
      </trkpt>
      <trkpt lat="45.2225" lon="6.03125">
        <ele>2124.17</ele>
        <time>2016-10-31T08:36:47Z</time>
      </trkpt>
      <trkpt lat="45.22248" lon="6.03128">
        <ele>2125.13</ele>
        <time>2016-10-31T08:37:19Z</time>
      </trkpt>
      <trkpt lat="45.22251" lon="6.03128">
        <ele>2126.09</ele>
        <time>2016-10-31T08:37:40Z</time>
      </trkpt>
      <trkpt lat="45.22248" lon="6.03122">
        <ele>2127.53</ele>
        <time>2016-10-31T08:38:05Z</time>
      </trkpt>
      <trkpt lat="45.2225" lon="6.03122">
        <ele>2128.02</ele>
        <time>2016-10-31T08:38:27Z</time>
      </trkpt>
      <trkpt lat="45.22249" lon="6.03121">
        <ele>2128.5</ele>
        <time>2016-10-31T08:38:49Z</time>
      </trkpt>
      <trkpt lat="45.2225" lon="6.03121">
        <ele>2129.46</ele>
        <time>2016-10-31T08:39:18Z</time>
      </trkpt>
      <trkpt lat="45.22249" lon="6.03124">
        <ele>2129.94</ele>
        <time>2016-10-31T08:39:54Z</time>
      </trkpt>
      <trkpt lat="45.22253" lon="6.03123">
        <ele>2130.9</ele>
        <time>2016-10-31T08:40:18Z</time>
      </trkpt>
      <trkpt lat="45.22253" lon="6.03123">
        <ele>2131.86</ele>
        <time>2016-10-31T08:40:41Z</time>
      </trkpt>
      <trkpt lat="45.22253" lon="6.03121">
        <ele>2131.86</ele>
        <time>2016-10-31T08:41:09Z</time>
      </trkpt>
      <trkpt lat="45.22254" lon="6.0312">
        <ele>2132.82</ele>
        <time>2016-10-31T08:41:29Z</time>
      </trkpt>
      <trkpt lat="45.22254" lon="6.03119">
        <ele>2132.82</ele>
        <time>2016-10-31T08:41:55Z</time>
      </trkpt>
      <trkpt lat="45.22255" lon="6.03126">
        <ele>2133.78</ele>
        <time>2016-10-31T08:42:22Z</time>
      </trkpt>
      <trkpt lat="45.22257" lon="6.03122">
        <ele>2133.78</ele>
        <time>2016-10-31T08:42:49Z</time>
      </trkpt>
      <trkpt lat="45.22251" lon="6.03132">
        <ele>2134.26</ele>
        <time>2016-10-31T08:43:13Z</time>
      </trkpt>
      <trkpt lat="45.22252" lon="6.03135">
        <ele>2134.26</ele>
        <time>2016-10-31T08:43:40Z</time>
      </trkpt>
      <trkpt lat="45.22254" lon="6.03128">
        <ele>2134.74</ele>
        <time>2016-10-31T08:44:09Z</time>
      </trkpt>
      <trkpt lat="45.22255" lon="6.03125">
        <ele>2134.74</ele>
        <time>2016-10-31T08:44:37Z</time>
      </trkpt>
      <trkpt lat="45.22255" lon="6.03127">
        <ele>2135.71</ele>
        <time>2016-10-31T08:45:07Z</time>
      </trkpt>
      <trkpt lat="45.22252" lon="6.03132">
        <ele>2136.67</ele>
        <time>2016-10-31T08:45:36Z</time>
      </trkpt>
      <trkpt lat="45.22253" lon="6.03132">
        <ele>2138.11</ele>
        <time>2016-10-31T08:46:01Z</time>
      </trkpt>
      <trkpt lat="45.22252" lon="6.03133">
        <ele>2139.55</ele>
        <time>2016-10-31T08:46:28Z</time>
      </trkpt>
      <trkpt lat="45.22252" lon="6.03133">
        <ele>2140.99</ele>
        <time>2016-10-31T08:46:47Z</time>
      </trkpt>
      <trkpt lat="45.22253" lon="6.03129">
        <ele>2142.44</ele>
        <time>2016-10-31T08:47:09Z</time>
      </trkpt>
      <trkpt lat="45.22255" lon="6.03133">
        <ele>2142.92</ele>
        <time>2016-10-31T08:47:34Z</time>
      </trkpt>
      <trkpt lat="45.22256" lon="6.03133">
        <ele>2144.36</ele>
        <time>2016-10-31T08:48:00Z</time>
      </trkpt>
      <trkpt lat="45.22255" lon="6.03132">
        <ele>2145.32</ele>
        <time>2016-10-31T08:48:28Z</time>
      </trkpt>
      <trkpt lat="45.22255" lon="6.03135">
        <ele>2146.76</ele>
        <time>2016-10-31T08:48:48Z</time>
      </trkpt>
      <trkpt lat="45.22259" lon="6.0313">
        <ele>2147.24</ele>
        <time>2016-10-31T08:49:06Z</time>
      </trkpt>
      <trkpt lat="45.2226" lon="6.03128">
        <ele>2147.24</ele>
        <time>2016-10-31T08:49:27Z</time>
      </trkpt>
      <trkpt lat="45.22261" lon="6.03135">
        <ele>2147.24</ele>
        <time>2016-10-31T08:50:08Z</time>
      </trkpt>
      <trkpt lat="45.22259" lon="6.03138">
        <ele>2148.68</ele>
        <time>2016-10-31T08:50:34Z</time>
      </trkpt>
      <trkpt lat="45.22259" lon="6.03129">
        <ele>2149.65</ele>
        <time>2016-10-31T08:51:01Z</time>
      </trkpt>
      <trkpt lat="45.22258" lon="6.03128">
        <ele>2149.65</ele>
        <time>2016-10-31T08:51:25Z</time>
      </trkpt>
      <trkpt lat="45.2226" lon="6.03134">
        <ele>2150.13</ele>
        <time>2016-10-31T08:52:01Z</time>
      </trkpt>
      <trkpt lat="45.22257" lon="6.03133">
        <ele>2150.61</ele>
        <time>2016-10-31T08:52:27Z</time>
      </trkpt>
      <trkpt lat="45.22261" lon="6.03131">
        <ele>2152.05</ele>
        <time>2016-10-31T08:52:47Z</time>
      </trkpt>
      <trkpt lat="45.22264" lon="6.03135">
        <ele>2153.97</ele>
        <time>2016-10-31T08:53:09Z</time>
      </trkpt>
      <trkpt lat="45.22265" lon="6.03128">
        <ele>2155.41</ele>
        <time>2016-10-31T08:53:35Z</time>
      </trkpt>
      <trkpt lat="45.22267" lon="6.03123">
        <ele>2155.41</ele>
        <time>2016-10-31T08:53:59Z</time>
      </trkpt>
      <trkpt lat="45.22269" lon="6.03126">
        <ele>2155.41</ele>
        <time>2016-10-31T08:54:22Z</time>
      </trkpt>
      <trkpt lat="45.22266" lon="6.03127">
        <ele>2156.37</ele>
        <time>2016-10-31T08:54:46Z</time>
      </trkpt>
      <trkpt lat="45.22261" lon="6.03127">
        <ele>2157.34</ele>
        <time>2016-10-31T08:55:05Z</time>
      </trkpt>
      <trkpt lat="45.22267" lon="6.03122">
        <ele>2157.82</ele>
        <time>2016-10-31T08:55:31Z</time>
      </trkpt>
      <trkpt lat="45.22265" lon="6.03121">
        <ele>2158.78</ele>
        <time>2016-10-31T08:55:50Z</time>
      </trkpt>
      <trkpt lat="45.22269" lon="6.03122">
        <ele>2159.26</ele>
        <time>2016-10-31T08:56:13Z</time>
      </trkpt>
      <trkpt lat="45.22268" lon="6.03124">
        <ele>2160.22</ele>
        <time>2016-10-31T08:56:35Z</time>
      </trkpt>
      <trkpt lat="45.22265" lon="6.03125">
        <ele>2161.66</ele>
        <time>2016-10-31T08:57:00Z</time>
      </trkpt>
      <trkpt lat="45.22269" lon="6.03124">
        <ele>2163.1</ele>
        <time>2016-10-31T08:57:19Z</time>
      </trkpt>
      <trkpt lat="45.22268" lon="6.03126">
        <ele>2163.58</ele>
        <time>2016-10-31T08:57:43Z</time>
      </trkpt>
      <trkpt lat="45.22267" lon="6.03127">
        <ele>2164.55</ele>
        <time>2016-10-31T08:58:06Z</time>
      </trkpt>
      <trkpt lat="45.22269" lon="6.03124">
        <ele>2165.03</ele>
        <time>2016-10-31T08:58:39Z</time>
      </trkpt>
      <trkpt lat="45.22268" lon="6.03124">
        <ele>2165.99</ele>
        <time>2016-10-31T08:59:00Z</time>
      </trkpt>
      <trkpt lat="45.22272" lon="6.03123">
        <ele>2168.87</ele>
        <time>2016-10-31T08:59:21Z</time>
      </trkpt>
      <trkpt lat="45.22273" lon="6.0312">
        <ele>2170.31</ele>
        <time>2016-10-31T08:59:43Z</time>
      </trkpt>
      <trkpt lat="45.22275" lon="6.03122">
        <ele>2172.72</ele>
        <time>2016-10-31T09:00:03Z</time>
      </trkpt>
      <trkpt lat="45.22274" lon="6.03122">
        <ele>2172.72</ele>
        <time>2016-10-31T09:00:27Z</time>
      </trkpt>
      <trkpt lat="45.22273" lon="6.03123">
        <ele>2173.68</ele>
        <time>2016-10-31T09:00:52Z</time>
      </trkpt>
      <trkpt lat="45.22272" lon="6.03124">
        <ele>2173.68</ele>
        <time>2016-10-31T09:01:21Z</time>
      </trkpt>
      <trkpt lat="45.22271" lon="6.03123">
        <ele>2173.68</ele>
        <time>2016-10-31T09:01:59Z</time>
      </trkpt>
      <trkpt lat="45.22269" lon="6.03121">
        <ele>2173.68</ele>
        <time>2016-10-31T09:02:23Z</time>
      </trkpt>
      <trkpt lat="45.22271" lon="6.03123">
        <ele>2173.68</ele>
        <time>2016-10-31T09:02:46Z</time>
      </trkpt>
      <trkpt lat="45.22273" lon="6.03123">
        <ele>2174.16</ele>
        <time>2016-10-31T09:03:24Z</time>
      </trkpt>
      <trkpt lat="45.22273" lon="6.03123">
        <ele>2174.16</ele>
        <time>2016-10-31T09:03:58Z</time>
      </trkpt>
      <trkpt lat="45.22271" lon="6.03122">
        <ele>2174.16</ele>
        <time>2016-10-31T09:04:31Z</time>
      </trkpt>
      <trkpt lat="45.22275" lon="6.03125">
        <ele>2174.64</ele>
        <time>2016-10-31T09:04:53Z</time>
      </trkpt>
      <trkpt lat="45.22277" lon="6.03126">
        <ele>2177.04</ele>
        <time>2016-10-31T09:05:12Z</time>
      </trkpt>
      <trkpt lat="45.22276" lon="6.03126">
        <ele>2178</ele>
        <time>2016-10-31T09:05:32Z</time>
      </trkpt>
      <trkpt lat="45.22277" lon="6.03126">
        <ele>2178.97</ele>
        <time>2016-10-31T09:05:50Z</time>
      </trkpt>
      <trkpt lat="45.22279" lon="6.03126">
        <ele>2179.45</ele>
        <time>2016-10-31T09:06:22Z</time>
      </trkpt>
      <trkpt lat="45.22283" lon="6.03125">
        <ele>2179.45</ele>
        <time>2016-10-31T09:06:43Z</time>
      </trkpt>
      <trkpt lat="45.22286" lon="6.03124">
        <ele>2180.41</ele>
        <time>2016-10-31T09:06:58Z</time>
      </trkpt>
      <trkpt lat="45.22289" lon="6.03121">
        <ele>2181.37</ele>
        <time>2016-10-31T09:07:17Z</time>
      </trkpt>
      <trkpt lat="45.22286" lon="6.03121">
        <ele>2181.85</ele>
        <time>2016-10-31T09:07:49Z</time>
      </trkpt>
      <trkpt lat="45.22286" lon="6.03122">
        <ele>2180.89</ele>
        <time>2016-10-31T09:08:13Z</time>
      </trkpt>
      <trkpt lat="45.22287" lon="6.03121">
        <ele>2180.41</ele>
        <time>2016-10-31T09:08:43Z</time>
      </trkpt>
      <trkpt lat="45.22286" lon="6.03121">
        <ele>2181.85</ele>
        <time>2016-10-31T09:09:17Z</time>
      </trkpt>
      <trkpt lat="45.22286" lon="6.03121">
        <ele>2181.85</ele>
        <time>2016-10-31T09:09:50Z</time>
      </trkpt>
      <trkpt lat="45.22286" lon="6.03121">
        <ele>2181.85</ele>
        <time>2016-10-31T09:10:36Z</time>
      </trkpt>
      <trkpt lat="45.22287" lon="6.0312">
        <ele>2182.33</ele>
        <time>2016-10-31T09:11:03Z</time>
      </trkpt>
      <trkpt lat="45.22286" lon="6.03121">
        <ele>2182.33</ele>
        <time>2016-10-31T09:11:47Z</time>
      </trkpt>
      <trkpt lat="45.22286" lon="6.03121">
        <ele>2182.81</ele>
        <time>2016-10-31T09:12:18Z</time>
      </trkpt>
      <trkpt lat="45.2229" lon="6.03123">
        <ele>2184.25</ele>
        <time>2016-10-31T09:12:42Z</time>
      </trkpt>
      <trkpt lat="45.22294" lon="6.0313">
        <ele>2180.89</ele>
        <time>2016-10-31T09:12:57Z</time>
      </trkpt>
      <trkpt lat="45.22293" lon="6.03136">
        <ele>2180.89</ele>
        <time>2016-10-31T09:13:19Z</time>
      </trkpt>
      <trkpt lat="45.22294" lon="6.03138">
        <ele>2180.89</ele>
        <time>2016-10-31T09:13:49Z</time>
      </trkpt>
      <trkpt lat="45.22293" lon="6.03139">
        <ele>2180.41</ele>
        <time>2016-10-31T09:14:18Z</time>
      </trkpt>
      <trkpt lat="45.22294" lon="6.03143">
        <ele>2181.85</ele>
        <time>2016-10-31T09:14:35Z</time>
      </trkpt>
      <trkpt lat="45.22294" lon="6.03145">
        <ele>2182.33</ele>
        <time>2016-10-31T09:14:51Z</time>
      </trkpt>
      <trkpt lat="45.22297" lon="6.03147">
        <ele>2183.29</ele>
        <time>2016-10-31T09:15:03Z</time>
      </trkpt>
      <trkpt lat="45.223" lon="6.03151">
        <ele>2186.66</ele>
        <time>2016-10-31T09:15:20Z</time>
      </trkpt>
      <trkpt lat="45.22302" lon="6.03153">
        <ele>2188.58</ele>
        <time>2016-10-31T09:15:36Z</time>
      </trkpt>
      <trkpt lat="45.22301" lon="6.03158">
        <ele>2190.02</ele>
        <time>2016-10-31T09:15:51Z</time>
      </trkpt>
      <trkpt lat="45.22303" lon="6.03164">
        <ele>2192.9</ele>
        <time>2016-10-31T09:16:08Z</time>
      </trkpt>
      <trkpt lat="45.22305" lon="6.03165">
        <ele>2195.79</ele>
        <time>2016-10-31T09:16:24Z</time>
      </trkpt>
      <trkpt lat="45.22305" lon="6.03169">
        <ele>2196.75</ele>
        <time>2016-10-31T09:16:46Z</time>
      </trkpt>
      <trkpt lat="45.22305" lon="6.0317">
        <ele>2197.23</ele>
        <time>2016-10-31T09:17:14Z</time>
      </trkpt>
      <trkpt lat="45.22305" lon="6.03171">
        <ele>2197.23</ele>
        <time>2016-10-31T09:17:34Z</time>
      </trkpt>
      <trkpt lat="45.22305" lon="6.03176">
        <ele>2197.23</ele>
        <time>2016-10-31T09:17:56Z</time>
      </trkpt>
      <trkpt lat="45.22306" lon="6.03176">
        <ele>2197.23</ele>
        <time>2016-10-31T09:18:20Z</time>
      </trkpt>
      <trkpt lat="45.22309" lon="6.0318">
        <ele>2195.79</ele>
        <time>2016-10-31T09:18:41Z</time>
      </trkpt>
      <trkpt lat="45.22311" lon="6.03181">
        <ele>2195.79</ele>
        <time>2016-10-31T09:18:59Z</time>
      </trkpt>
      <trkpt lat="45.22312" lon="6.03183">
        <ele>2194.35</ele>
        <time>2016-10-31T09:19:19Z</time>
      </trkpt>
      <trkpt lat="45.22316" lon="6.03186">
        <ele>2193.39</ele>
        <time>2016-10-31T09:19:39Z</time>
      </trkpt>
      <trkpt lat="45.22316" lon="6.03192">
        <ele>2193.39</ele>
        <time>2016-10-31T09:19:59Z</time>
      </trkpt>
      <trkpt lat="45.22317" lon="6.03194">
        <ele>2193.39</ele>
        <time>2016-10-31T09:20:19Z</time>
      </trkpt>
      <trkpt lat="45.22317" lon="6.03197">
        <ele>2194.35</ele>
        <time>2016-10-31T09:20:53Z</time>
      </trkpt>
      <trkpt lat="45.2232" lon="6.03201">
        <ele>2194.35</ele>
        <time>2016-10-31T09:21:22Z</time>
      </trkpt>
      <trkpt lat="45.2232" lon="6.03202">
        <ele>2194.35</ele>
        <time>2016-10-31T09:21:23Z</time>
      </trkpt>
      <trkpt lat="45.22323" lon="6.03204">
        <ele>2195.79</ele>
        <time>2016-10-31T09:21:42Z</time>
      </trkpt>
      <trkpt lat="45.22323" lon="6.03205">
        <ele>2195.79</ele>
        <time>2016-10-31T09:22:08Z</time>
      </trkpt>
      <trkpt lat="45.22327" lon="6.03212">
        <ele>2196.75</ele>
        <time>2016-10-31T09:22:26Z</time>
      </trkpt>
      <trkpt lat="45.2233" lon="6.03214">
        <ele>2198.19</ele>
        <time>2016-10-31T09:22:42Z</time>
      </trkpt>
      <trkpt lat="45.22329" lon="6.03219">
        <ele>2198.19</ele>
        <time>2016-10-31T09:22:59Z</time>
      </trkpt>
      <trkpt lat="45.22331" lon="6.03225">
        <ele>2199.15</ele>
        <time>2016-10-31T09:23:18Z</time>
      </trkpt>
      <trkpt lat="45.22334" lon="6.03227">
        <ele>2200.59</ele>
        <time>2016-10-31T09:23:36Z</time>
      </trkpt>
      <trkpt lat="45.22336" lon="6.03232">
        <ele>2202.04</ele>
        <time>2016-10-31T09:23:53Z</time>
      </trkpt>
      <trkpt lat="45.22337" lon="6.03237">
        <ele>2204.92</ele>
        <time>2016-10-31T09:24:04Z</time>
      </trkpt>
      <trkpt lat="45.2234" lon="6.03242">
        <ele>2208.29</ele>
        <time>2016-10-31T09:24:16Z</time>
      </trkpt>
      <trkpt lat="45.22343" lon="6.03249">
        <ele>2208.77</ele>
        <time>2016-10-31T09:24:30Z</time>
      </trkpt>
      <trkpt lat="45.22347" lon="6.03255">
        <ele>2208.29</ele>
        <time>2016-10-31T09:24:45Z</time>
      </trkpt>
      <trkpt lat="45.22351" lon="6.03258">
        <ele>2208.77</ele>
        <time>2016-10-31T09:25:13Z</time>
      </trkpt>
      <trkpt lat="45.22354" lon="6.03263">
        <ele>2207.32</ele>
        <time>2016-10-31T09:25:28Z</time>
      </trkpt>
      <trkpt lat="45.22356" lon="6.03271">
        <ele>2205.88</ele>
        <time>2016-10-31T09:25:42Z</time>
      </trkpt>
      <trkpt lat="45.2236" lon="6.03277">
        <ele>2204.44</ele>
        <time>2016-10-31T09:25:58Z</time>
      </trkpt>
      <trkpt lat="45.22365" lon="6.0328">
        <ele>2203.48</ele>
        <time>2016-10-31T09:26:15Z</time>
      </trkpt>
      <trkpt lat="45.22367" lon="6.03282">
        <ele>2204.92</ele>
        <time>2016-10-31T09:26:21Z</time>
      </trkpt>
      <trkpt lat="45.22371" lon="6.03289">
        <ele>2205.88</ele>
        <time>2016-10-31T09:26:36Z</time>
      </trkpt>
      <trkpt lat="45.22377" lon="6.03295">
        <ele>2206.84</ele>
        <time>2016-10-31T09:26:53Z</time>
      </trkpt>
      <trkpt lat="45.22378" lon="6.03292">
        <ele>2207.32</ele>
        <time>2016-10-31T09:27:16Z</time>
      </trkpt>
      <trkpt lat="45.22379" lon="6.03293">
        <ele>2207.32</ele>
        <time>2016-10-31T09:27:37Z</time>
      </trkpt>
      <trkpt lat="45.22379" lon="6.03295">
        <ele>2207.32</ele>
        <time>2016-10-31T09:28:10Z</time>
      </trkpt>
      <trkpt lat="45.2238" lon="6.03291">
        <ele>2205.88</ele>
        <time>2016-10-31T09:28:19Z</time>
      </trkpt>
      <trkpt lat="45.22384" lon="6.03287">
        <ele>2205.88</ele>
        <time>2016-10-31T09:28:34Z</time>
      </trkpt>
      <trkpt lat="45.22386" lon="6.03282">
        <ele>2203.48</ele>
        <time>2016-10-31T09:29:03Z</time>
      </trkpt>
      <trkpt lat="45.22386" lon="6.03277">
        <ele>2200.11</ele>
        <time>2016-10-31T09:29:17Z</time>
      </trkpt>
      <trkpt lat="45.2239" lon="6.03272">
        <ele>2197.23</ele>
        <time>2016-10-31T09:29:35Z</time>
      </trkpt>
      <trkpt lat="45.22396" lon="6.03271">
        <ele>2194.83</ele>
        <time>2016-10-31T09:29:51Z</time>
      </trkpt>
      <trkpt lat="45.22402" lon="6.03271">
        <ele>2192.9</ele>
        <time>2016-10-31T09:30:09Z</time>
      </trkpt>
      <trkpt lat="45.22407" lon="6.03269">
        <ele>2192.9</ele>
        <time>2016-10-31T09:30:39Z</time>
      </trkpt>
      <trkpt lat="45.22406" lon="6.03272">
        <ele>2190.5</ele>
        <time>2016-10-31T09:31:05Z</time>
      </trkpt>
      <trkpt lat="45.2241" lon="6.03276">
        <ele>2190.5</ele>
        <time>2016-10-31T09:31:21Z</time>
      </trkpt>
      <trkpt lat="45.22413" lon="6.03278">
        <ele>2189.06</ele>
        <time>2016-10-31T09:31:33Z</time>
      </trkpt>
      <trkpt lat="45.22416" lon="6.03284">
        <ele>2187.14</ele>
        <time>2016-10-31T09:31:51Z</time>
      </trkpt>
      <trkpt lat="45.22418" lon="6.03291">
        <ele>2189.06</ele>
        <time>2016-10-31T09:32:07Z</time>
      </trkpt>
      <trkpt lat="45.22421" lon="6.03292">
        <ele>2189.06</ele>
        <time>2016-10-31T09:32:28Z</time>
      </trkpt>
      <trkpt lat="45.22425" lon="6.03295">
        <ele>2188.58</ele>
        <time>2016-10-31T09:32:43Z</time>
      </trkpt>
      <trkpt lat="45.22429" lon="6.03298">
        <ele>2189.54</ele>
        <time>2016-10-31T09:32:55Z</time>
      </trkpt>
      <trkpt lat="45.22434" lon="6.03305">
        <ele>2191.94</ele>
        <time>2016-10-31T09:33:12Z</time>
      </trkpt>
      <trkpt lat="45.22439" lon="6.0331">
        <ele>2192.9</ele>
        <time>2016-10-31T09:33:30Z</time>
      </trkpt>
      <trkpt lat="45.22442" lon="6.03313">
        <ele>2194.83</ele>
        <time>2016-10-31T09:33:46Z</time>
      </trkpt>
      <trkpt lat="45.22443" lon="6.03316">
        <ele>2193.87</ele>
        <time>2016-10-31T09:33:56Z</time>
      </trkpt>
      <trkpt lat="45.22448" lon="6.03321">
        <ele>2192.42</ele>
        <time>2016-10-31T09:34:14Z</time>
      </trkpt>
      <trkpt lat="45.22449" lon="6.03326">
        <ele>2192.9</ele>
        <time>2016-10-31T09:34:29Z</time>
      </trkpt>
      <trkpt lat="45.2245" lon="6.03332">
        <ele>2194.83</ele>
        <time>2016-10-31T09:34:45Z</time>
      </trkpt>
      <trkpt lat="45.22451" lon="6.03336">
        <ele>2196.27</ele>
        <time>2016-10-31T09:35:06Z</time>
      </trkpt>
      <trkpt lat="45.22453" lon="6.03338">
        <ele>2198.19</ele>
        <time>2016-10-31T09:35:24Z</time>
      </trkpt>
      <trkpt lat="45.22455" lon="6.03341">
        <ele>2199.63</ele>
        <time>2016-10-31T09:35:45Z</time>
      </trkpt>
      <trkpt lat="45.22455" lon="6.03341">
        <ele>2199.63</ele>
        <time>2016-10-31T09:36:06Z</time>
      </trkpt>
      <trkpt lat="45.22455" lon="6.03339">
        <ele>2199.63</ele>
        <time>2016-10-31T09:36:39Z</time>
      </trkpt>
      <trkpt lat="45.22456" lon="6.03339">
        <ele>2199.63</ele>
        <time>2016-10-31T09:37:01Z</time>
      </trkpt>
      <trkpt lat="45.2246" lon="6.03342">
        <ele>2199.15</ele>
        <time>2016-10-31T09:37:34Z</time>
      </trkpt>
      <trkpt lat="45.22463" lon="6.03346">
        <ele>2198.67</ele>
        <time>2016-10-31T09:38:07Z</time>
      </trkpt>
      <trkpt lat="45.22462" lon="6.03345">
        <ele>2198.19</ele>
        <time>2016-10-31T09:38:26Z</time>
      </trkpt>
      <trkpt lat="45.22463" lon="6.03347">
        <ele>2198.19</ele>
        <time>2016-10-31T09:39:01Z</time>
      </trkpt>
      <trkpt lat="45.22461" lon="6.03345">
        <ele>2197.71</ele>
        <time>2016-10-31T09:39:26Z</time>
      </trkpt>
      <trkpt lat="45.22462" lon="6.03346">
        <ele>2197.71</ele>
        <time>2016-10-31T09:39:51Z</time>
      </trkpt>
      <trkpt lat="45.22463" lon="6.03348">
        <ele>2199.15</ele>
        <time>2016-10-31T09:40:10Z</time>
      </trkpt>
      <trkpt lat="45.22464" lon="6.03349">
        <ele>2200.11</ele>
        <time>2016-10-31T09:40:28Z</time>
      </trkpt>
      <trkpt lat="45.22464" lon="6.0335">
        <ele>2201.08</ele>
        <time>2016-10-31T09:40:55Z</time>
      </trkpt>
      <trkpt lat="45.22465" lon="6.0335">
        <ele>2202.04</ele>
        <time>2016-10-31T09:41:12Z</time>
      </trkpt>
      <trkpt lat="45.22466" lon="6.03354">
        <ele>2203</ele>
        <time>2016-10-31T09:41:30Z</time>
      </trkpt>
      <trkpt lat="45.22465" lon="6.03355">
        <ele>2205.4</ele>
        <time>2016-10-31T09:41:45Z</time>
      </trkpt>
      <trkpt lat="45.22466" lon="6.03357">
        <ele>2207.81</ele>
        <time>2016-10-31T09:42:01Z</time>
      </trkpt>
      <trkpt lat="45.22471" lon="6.03362">
        <ele>2210.21</ele>
        <time>2016-10-31T09:42:22Z</time>
      </trkpt>
      <trkpt lat="45.22471" lon="6.03365">
        <ele>2212.61</ele>
        <time>2016-10-31T09:42:38Z</time>
      </trkpt>
      <trkpt lat="45.22472" lon="6.03368">
        <ele>2214.05</ele>
        <time>2016-10-31T09:42:55Z</time>
      </trkpt>
      <trkpt lat="45.22473" lon="6.03376">
        <ele>2216.46</ele>
        <time>2016-10-31T09:43:13Z</time>
      </trkpt>
      <trkpt lat="45.22476" lon="6.03375">
        <ele>2216.46</ele>
        <time>2016-10-31T09:43:31Z</time>
      </trkpt>
      <trkpt lat="45.22479" lon="6.03379">
        <ele>2213.57</ele>
        <time>2016-10-31T09:43:45Z</time>
      </trkpt>
      <trkpt lat="45.22479" lon="6.03379">
        <ele>2213.57</ele>
        <time>2016-10-31T09:44:13Z</time>
      </trkpt>
      <trkpt lat="45.2248" lon="6.03378">
        <ele>2213.57</ele>
        <time>2016-10-31T09:44:39Z</time>
      </trkpt>
      <trkpt lat="45.22481" lon="6.03378">
        <ele>2213.57</ele>
        <time>2016-10-31T09:45:07Z</time>
      </trkpt>
      <trkpt lat="45.22481" lon="6.03376">
        <ele>2213.09</ele>
        <time>2016-10-31T09:45:40Z</time>
      </trkpt>
      <trkpt lat="45.22481" lon="6.03377">
        <ele>2213.09</ele>
        <time>2016-10-31T09:46:05Z</time>
      </trkpt>
      <trkpt lat="45.22481" lon="6.03376">
        <ele>2213.09</ele>
        <time>2016-10-31T09:46:38Z</time>
      </trkpt>
      <trkpt lat="45.22481" lon="6.03377">
        <ele>2212.61</ele>
        <time>2016-10-31T09:47:13Z</time>
      </trkpt>
      <trkpt lat="45.22479" lon="6.03379">
        <ele>2212.61</ele>
        <time>2016-10-31T09:47:39Z</time>
      </trkpt>
      <trkpt lat="45.22479" lon="6.03378">
        <ele>2214.05</ele>
        <time>2016-10-31T09:48:08Z</time>
      </trkpt>
      <trkpt lat="45.22478" lon="6.03379">
        <ele>2214.05</ele>
        <time>2016-10-31T09:48:44Z</time>
      </trkpt>
      <trkpt lat="45.2248" lon="6.03377">
        <ele>2212.61</ele>
        <time>2016-10-31T09:49:17Z</time>
      </trkpt>
      <trkpt lat="45.22479" lon="6.03378">
        <ele>2212.61</ele>
        <time>2016-10-31T09:49:42Z</time>
      </trkpt>
      <trkpt lat="45.22479" lon="6.03379">
        <ele>2212.61</ele>
        <time>2016-10-31T09:50:21Z</time>
      </trkpt>
      <trkpt lat="45.2248" lon="6.0338">
        <ele>2213.09</ele>
        <time>2016-10-31T09:50:57Z</time>
      </trkpt>
      <trkpt lat="45.22479" lon="6.03381">
        <ele>2212.61</ele>
        <time>2016-10-31T09:51:25Z</time>
      </trkpt>
      <trkpt lat="45.22479" lon="6.0338">
        <ele>2212.13</ele>
        <time>2016-10-31T09:51:46Z</time>
      </trkpt>
      <trkpt lat="45.22481" lon="6.03378">
        <ele>2210.69</ele>
        <time>2016-10-31T09:52:02Z</time>
      </trkpt>
      <trkpt lat="45.22483" lon="6.03378">
        <ele>2208.77</ele>
        <time>2016-10-31T09:52:20Z</time>
      </trkpt>
      <trkpt lat="45.22483" lon="6.03377">
        <ele>2207.32</ele>
        <time>2016-10-31T09:52:38Z</time>
      </trkpt>
      <trkpt lat="45.22484" lon="6.03375">
        <ele>2203.96</ele>
        <time>2016-10-31T09:52:54Z</time>
      </trkpt>
      <trkpt lat="45.22486" lon="6.03373">
        <ele>2200.59</ele>
        <time>2016-10-31T09:53:13Z</time>
      </trkpt>
      <trkpt lat="45.22485" lon="6.03374">
        <ele>2198.67</ele>
        <time>2016-10-31T09:53:31Z</time>
      </trkpt>
      <trkpt lat="45.22486" lon="6.03371">
        <ele>2198.67</ele>
        <time>2016-10-31T09:53:56Z</time>
      </trkpt>
      <trkpt lat="45.22493" lon="6.03364">
        <ele>2197.23</ele>
        <time>2016-10-31T09:54:24Z</time>
      </trkpt>
      <trkpt lat="45.22493" lon="6.03363">
        <ele>2196.27</ele>
        <time>2016-10-31T09:54:25Z</time>
      </trkpt>
      <trkpt lat="45.22499" lon="6.03358">
        <ele>2196.27</ele>
        <time>2016-10-31T09:54:39Z</time>
      </trkpt>
      <trkpt lat="45.22496" lon="6.03364">
        <ele>2197.23</ele>
        <time>2016-10-31T09:55:02Z</time>
      </trkpt>
      <trkpt lat="45.22495" lon="6.03364">
        <ele>2197.23</ele>
        <time>2016-10-31T09:55:36Z</time>
      </trkpt>
      <trkpt lat="45.22494" lon="6.03364">
        <ele>2197.71</ele>
        <time>2016-10-31T09:56:12Z</time>
      </trkpt>
      <trkpt lat="45.22494" lon="6.03366">
        <ele>2197.71</ele>
        <time>2016-10-31T09:56:48Z</time>
      </trkpt>
      <trkpt lat="45.22494" lon="6.03365">
        <ele>2197.71</ele>
        <time>2016-10-31T09:57:27Z</time>
      </trkpt>
      <trkpt lat="45.22493" lon="6.03364">
        <ele>2197.71</ele>
        <time>2016-10-31T09:57:59Z</time>
      </trkpt>
      <trkpt lat="45.22493" lon="6.03363">
        <ele>2197.71</ele>
        <time>2016-10-31T09:58:41Z</time>
      </trkpt>
      <trkpt lat="45.22489" lon="6.03365">
        <ele>2197.71</ele>
        <time>2016-10-31T09:59:21Z</time>
      </trkpt>
      <trkpt lat="45.22489" lon="6.03366">
        <ele>2196.27</ele>
        <time>2016-10-31T09:59:35Z</time>
      </trkpt>
      <trkpt lat="45.2249" lon="6.03367">
        <ele>2197.23</ele>
        <time>2016-10-31T09:59:42Z</time>
      </trkpt>
      <trkpt lat="45.22492" lon="6.03364">
        <ele>2197.23</ele>
        <time>2016-10-31T10:00:03Z</time>
      </trkpt>
      <trkpt lat="45.22493" lon="6.03364">
        <ele>2197.23</ele>
        <time>2016-10-31T10:00:22Z</time>
      </trkpt>
      <trkpt lat="45.22492" lon="6.03363">
        <ele>2197.23</ele>
        <time>2016-10-31T10:00:52Z</time>
      </trkpt>
      <trkpt lat="45.22493" lon="6.03364">
        <ele>2197.23</ele>
        <time>2016-10-31T10:01:24Z</time>
      </trkpt>
      <trkpt lat="45.22494" lon="6.03365">
        <ele>2197.23</ele>
        <time>2016-10-31T10:01:47Z</time>
      </trkpt>
      <trkpt lat="45.22496" lon="6.03361">
        <ele>2197.23</ele>
        <time>2016-10-31T10:02:16Z</time>
      </trkpt>
      <trkpt lat="45.22496" lon="6.03361">
        <ele>2197.71</ele>
        <time>2016-10-31T10:02:49Z</time>
      </trkpt>
      <trkpt lat="45.22496" lon="6.03362">
        <ele>2197.71</ele>
        <time>2016-10-31T10:03:24Z</time>
      </trkpt>
      <trkpt lat="45.22499" lon="6.03363">
        <ele>2197.71</ele>
        <time>2016-10-31T10:03:49Z</time>
      </trkpt>
      <trkpt lat="45.22501" lon="6.0336">
        <ele>2197.71</ele>
        <time>2016-10-31T10:03:56Z</time>
      </trkpt>
      <trkpt lat="45.22504" lon="6.03358">
        <ele>2200.59</ele>
        <time>2016-10-31T10:04:05Z</time>
      </trkpt>
      <trkpt lat="45.22511" lon="6.03352">
        <ele>2202.04</ele>
        <time>2016-10-31T10:04:19Z</time>
      </trkpt>
      <trkpt lat="45.22517" lon="6.03352">
        <ele>2202.04</ele>
        <time>2016-10-31T10:04:34Z</time>
      </trkpt>
      <trkpt lat="45.22523" lon="6.03355">
        <ele>2202.04</ele>
        <time>2016-10-31T10:04:47Z</time>
      </trkpt>
      <trkpt lat="45.22528" lon="6.0336">
        <ele>2204.92</ele>
        <time>2016-10-31T10:05:01Z</time>
      </trkpt>
      <trkpt lat="45.22534" lon="6.03362">
        <ele>2204.92</ele>
        <time>2016-10-31T10:05:17Z</time>
      </trkpt>
      <trkpt lat="45.2254" lon="6.03358">
        <ele>2205.4</ele>
        <time>2016-10-31T10:05:34Z</time>
      </trkpt>
      <trkpt lat="45.22542" lon="6.03358">
        <ele>2203.96</ele>
        <time>2016-10-31T10:05:39Z</time>
      </trkpt>
      <trkpt lat="45.22548" lon="6.03357">
        <ele>2201.08</ele>
        <time>2016-10-31T10:05:50Z</time>
      </trkpt>
      <trkpt lat="45.22553" lon="6.03358">
        <ele>2200.11</ele>
        <time>2016-10-31T10:06:08Z</time>
      </trkpt>
      <trkpt lat="45.22559" lon="6.03362">
        <ele>2201.56</ele>
        <time>2016-10-31T10:06:23Z</time>
      </trkpt>
      <trkpt lat="45.22566" lon="6.03366">
        <ele>2203.96</ele>
        <time>2016-10-31T10:06:39Z</time>
      </trkpt>
      <trkpt lat="45.22573" lon="6.03365">
        <ele>2204.92</ele>
        <time>2016-10-31T10:06:52Z</time>
      </trkpt>
      <trkpt lat="45.22578" lon="6.03367">
        <ele>2205.88</ele>
        <time>2016-10-31T10:07:08Z</time>
      </trkpt>
      <trkpt lat="45.22586" lon="6.03364">
        <ele>2207.32</ele>
        <time>2016-10-31T10:07:26Z</time>
      </trkpt>
      <trkpt lat="45.22596" lon="6.0337">
        <ele>2206.36</ele>
        <time>2016-10-31T10:07:43Z</time>
      </trkpt>
      <trkpt lat="45.22602" lon="6.03377">
        <ele>2205.4</ele>
        <time>2016-10-31T10:08:00Z</time>
      </trkpt>
      <trkpt lat="45.22612" lon="6.03377">
        <ele>2204.44</ele>
        <time>2016-10-31T10:08:17Z</time>
      </trkpt>
      <trkpt lat="45.22614" lon="6.03381">
        <ele>2204.44</ele>
        <time>2016-10-31T10:08:53Z</time>
      </trkpt>
      <trkpt lat="45.2262" lon="6.03386">
        <ele>2202.04</ele>
        <time>2016-10-31T10:09:14Z</time>
      </trkpt>
      <trkpt lat="45.22621" lon="6.03389">
        <ele>2202.04</ele>
        <time>2016-10-31T10:09:29Z</time>
      </trkpt>
      <trkpt lat="45.22623" lon="6.03385">
        <ele>2202.04</ele>
        <time>2016-10-31T10:09:48Z</time>
      </trkpt>
      <trkpt lat="45.22623" lon="6.0338">
        <ele>2200.11</ele>
        <time>2016-10-31T10:10:03Z</time>
      </trkpt>
      <trkpt lat="45.2263" lon="6.03379">
        <ele>2197.71</ele>
        <time>2016-10-31T10:10:18Z</time>
      </trkpt>
      <trkpt lat="45.22635" lon="6.03379">
        <ele>2197.23</ele>
        <time>2016-10-31T10:10:34Z</time>
      </trkpt>
      <trkpt lat="45.22641" lon="6.03385">
        <ele>2199.63</ele>
        <time>2016-10-31T10:10:49Z</time>
      </trkpt>
      <trkpt lat="45.22644" lon="6.03388">
        <ele>2201.56</ele>
        <time>2016-10-31T10:11:05Z</time>
      </trkpt>
      <trkpt lat="45.22648" lon="6.03394">
        <ele>2203</ele>
        <time>2016-10-31T10:11:18Z</time>
      </trkpt>
      <trkpt lat="45.22652" lon="6.03397">
        <ele>2203.48</ele>
        <time>2016-10-31T10:11:40Z</time>
      </trkpt>
      <trkpt lat="45.22657" lon="6.03404">
        <ele>2204.92</ele>
        <time>2016-10-31T10:12:05Z</time>
      </trkpt>
      <trkpt lat="45.22656" lon="6.03406">
        <ele>2207.32</ele>
        <time>2016-10-31T10:12:22Z</time>
      </trkpt>
      <trkpt lat="45.22658" lon="6.03408">
        <ele>2208.77</ele>
        <time>2016-10-31T10:12:37Z</time>
      </trkpt>
      <trkpt lat="45.2266" lon="6.03411">
        <ele>2210.69</ele>
        <time>2016-10-31T10:12:52Z</time>
      </trkpt>
      <trkpt lat="45.22656" lon="6.03415">
        <ele>2212.13</ele>
        <time>2016-10-31T10:13:11Z</time>
      </trkpt>
      <trkpt lat="45.22657" lon="6.03419">
        <ele>2215.5</ele>
        <time>2016-10-31T10:13:26Z</time>
      </trkpt>
      <trkpt lat="45.22654" lon="6.0342">
        <ele>2217.9</ele>
        <time>2016-10-31T10:13:43Z</time>
      </trkpt>
      <trkpt lat="45.22654" lon="6.03421">
        <ele>2218.38</ele>
        <time>2016-10-31T10:14:15Z</time>
      </trkpt>
      <trkpt lat="45.22655" lon="6.03422">
        <ele>2218.38</ele>
        <time>2016-10-31T10:14:48Z</time>
      </trkpt>
      <trkpt lat="45.22658" lon="6.03424">
        <ele>2219.34</ele>
        <time>2016-10-31T10:15:14Z</time>
      </trkpt>
      <trkpt lat="45.22663" lon="6.03427">
        <ele>2221.74</ele>
        <time>2016-10-31T10:15:32Z</time>
      </trkpt>
      <trkpt lat="45.22665" lon="6.03431">
        <ele>2224.15</ele>
        <time>2016-10-31T10:15:49Z</time>
      </trkpt>
      <trkpt lat="45.22663" lon="6.03435">
        <ele>2227.51</ele>
        <time>2016-10-31T10:16:03Z</time>
      </trkpt>
      <trkpt lat="45.22664" lon="6.03439">
        <ele>2229.43</ele>
        <time>2016-10-31T10:16:19Z</time>
      </trkpt>
      <trkpt lat="45.22668" lon="6.03442">
        <ele>2232.8</ele>
        <time>2016-10-31T10:16:39Z</time>
      </trkpt>
      <trkpt lat="45.2267" lon="6.0344">
        <ele>2233.76</ele>
        <time>2016-10-31T10:16:55Z</time>
      </trkpt>
      <trkpt lat="45.2267" lon="6.0344">
        <ele>2233.76</ele>
        <time>2016-10-31T10:17:16Z</time>
      </trkpt>
      <trkpt lat="45.2267" lon="6.03442">
        <ele>2234.24</ele>
        <time>2016-10-31T10:18:01Z</time>
      </trkpt>
      <trkpt lat="45.2267" lon="6.03443">
        <ele>2235.2</ele>
        <time>2016-10-31T10:18:40Z</time>
      </trkpt>
      <trkpt lat="45.22672" lon="6.03445">
        <ele>2236.64</ele>
        <time>2016-10-31T10:18:57Z</time>
      </trkpt>
      <trkpt lat="45.22673" lon="6.03446">
        <ele>2238.09</ele>
        <time>2016-10-31T10:19:23Z</time>
      </trkpt>
      <trkpt lat="45.22674" lon="6.03447">
        <ele>2239.53</ele>
        <time>2016-10-31T10:19:39Z</time>
      </trkpt>
      <trkpt lat="45.22675" lon="6.03448">
        <ele>2240.97</ele>
        <time>2016-10-31T10:19:59Z</time>
      </trkpt>
      <trkpt lat="45.22675" lon="6.03449">
        <ele>2241.93</ele>
        <time>2016-10-31T10:20:17Z</time>
      </trkpt>
      <trkpt lat="45.22677" lon="6.0345">
        <ele>2244.33</ele>
        <time>2016-10-31T10:20:36Z</time>
      </trkpt>
      <trkpt lat="45.22678" lon="6.03452">
        <ele>2245.3</ele>
        <time>2016-10-31T10:21:03Z</time>
      </trkpt>
      <trkpt lat="45.22678" lon="6.03453">
        <ele>2246.74</ele>
        <time>2016-10-31T10:21:25Z</time>
      </trkpt>
      <trkpt lat="45.22679" lon="6.03455">
        <ele>2248.66</ele>
        <time>2016-10-31T10:21:45Z</time>
      </trkpt>
      <trkpt lat="45.22683" lon="6.03456">
        <ele>2250.1</ele>
        <time>2016-10-31T10:22:04Z</time>
      </trkpt>
      <trkpt lat="45.22684" lon="6.03458">
        <ele>2247.7</ele>
        <time>2016-10-31T10:22:23Z</time>
      </trkpt>
      <trkpt lat="45.22688" lon="6.03462">
        <ele>2247.22</ele>
        <time>2016-10-31T10:22:41Z</time>
      </trkpt>
      <trkpt lat="45.22692" lon="6.03461">
        <ele>2247.7</ele>
        <time>2016-10-31T10:22:57Z</time>
      </trkpt>
      <trkpt lat="45.22696" lon="6.0346">
        <ele>2244.82</ele>
        <time>2016-10-31T10:23:16Z</time>
      </trkpt>
      <trkpt lat="45.22702" lon="6.03457">
        <ele>2242.41</ele>
        <time>2016-10-31T10:23:34Z</time>
      </trkpt>
      <trkpt lat="45.22708" lon="6.03463">
        <ele>2241.93</ele>
        <time>2016-10-31T10:23:51Z</time>
      </trkpt>
      <trkpt lat="45.22712" lon="6.03464">
        <ele>2241.45</ele>
        <time>2016-10-31T10:24:07Z</time>
      </trkpt>
      <trkpt lat="45.22714" lon="6.03466">
        <ele>2242.41</ele>
        <time>2016-10-31T10:24:11Z</time>
      </trkpt>
      <trkpt lat="45.22721" lon="6.03469">
        <ele>2245.3</ele>
        <time>2016-10-31T10:24:26Z</time>
      </trkpt>
      <trkpt lat="45.2272" lon="6.03475">
        <ele>2247.7</ele>
        <time>2016-10-31T10:24:41Z</time>
      </trkpt>
      <trkpt lat="45.2272" lon="6.03477">
        <ele>2250.1</ele>
        <time>2016-10-31T10:24:55Z</time>
      </trkpt>
      <trkpt lat="45.22721" lon="6.03482">
        <ele>2252.99</ele>
        <time>2016-10-31T10:25:13Z</time>
      </trkpt>
      <trkpt lat="45.22724" lon="6.03486">
        <ele>2256.35</ele>
        <time>2016-10-31T10:25:28Z</time>
      </trkpt>
      <trkpt lat="45.22729" lon="6.0349">
        <ele>2257.79</ele>
        <time>2016-10-31T10:25:50Z</time>
      </trkpt>
      <trkpt lat="45.22733" lon="6.03494">
        <ele>2260.68</ele>
        <time>2016-10-31T10:26:06Z</time>
      </trkpt>
      <trkpt lat="45.22737" lon="6.03495">
        <ele>2263.08</ele>
        <time>2016-10-31T10:26:25Z</time>
      </trkpt>
      <trkpt lat="45.22741" lon="6.03496">
        <ele>2265.96</ele>
        <time>2016-10-31T10:26:42Z</time>
      </trkpt>
      <trkpt lat="45.22745" lon="6.03499">
        <ele>2268.85</ele>
        <time>2016-10-31T10:26:59Z</time>
      </trkpt>
      <trkpt lat="45.22748" lon="6.03499">
        <ele>2271.25</ele>
        <time>2016-10-31T10:27:16Z</time>
      </trkpt>
      <trkpt lat="45.2275" lon="6.035">
        <ele>2272.69</ele>
        <time>2016-10-31T10:27:35Z</time>
      </trkpt>
      <trkpt lat="45.22753" lon="6.03499">
        <ele>2273.66</ele>
        <time>2016-10-31T10:28:03Z</time>
      </trkpt>
      <trkpt lat="45.22757" lon="6.03498">
        <ele>2276.06</ele>
        <time>2016-10-31T10:28:21Z</time>
      </trkpt>
      <trkpt lat="45.22762" lon="6.035">
        <ele>2277.98</ele>
        <time>2016-10-31T10:28:41Z</time>
      </trkpt>
      <trkpt lat="45.22766" lon="6.03501">
        <ele>2281.35</ele>
        <time>2016-10-31T10:28:57Z</time>
      </trkpt>
      <trkpt lat="45.22766" lon="6.03502">
        <ele>2281.35</ele>
        <time>2016-10-31T10:28:58Z</time>
      </trkpt>
      <trkpt lat="45.22772" lon="6.03503">
        <ele>2284.23</ele>
        <time>2016-10-31T10:29:17Z</time>
      </trkpt>
      <trkpt lat="45.22776" lon="6.03505">
        <ele>2287.11</ele>
        <time>2016-10-31T10:29:34Z</time>
      </trkpt>
      <trkpt lat="45.22778" lon="6.03508">
        <ele>2288.56</ele>
        <time>2016-10-31T10:29:47Z</time>
      </trkpt>
      <trkpt lat="45.22779" lon="6.03511">
        <ele>2290</ele>
        <time>2016-10-31T10:30:01Z</time>
      </trkpt>
      <trkpt lat="45.22783" lon="6.03512">
        <ele>2292.88</ele>
        <time>2016-10-31T10:30:15Z</time>
      </trkpt>
      <trkpt lat="45.22787" lon="6.0351">
        <ele>2296.25</ele>
        <time>2016-10-31T10:30:35Z</time>
      </trkpt>
      <trkpt lat="45.22789" lon="6.03514">
        <ele>2298.65</ele>
        <time>2016-10-31T10:30:51Z</time>
      </trkpt>
      <trkpt lat="45.22787" lon="6.03514">
        <ele>2298.65</ele>
        <time>2016-10-31T10:31:20Z</time>
      </trkpt>
      <trkpt lat="45.22788" lon="6.03517">
        <ele>2298.65</ele>
        <time>2016-10-31T10:31:50Z</time>
      </trkpt>
      <trkpt lat="45.22788" lon="6.0351">
        <ele>2299.61</ele>
        <time>2016-10-31T10:32:09Z</time>
      </trkpt>
      <trkpt lat="45.22789" lon="6.03509">
        <ele>2300.09</ele>
        <time>2016-10-31T10:32:45Z</time>
      </trkpt>
      <trkpt lat="45.22792" lon="6.03508">
        <ele>2300.57</ele>
        <time>2016-10-31T10:33:07Z</time>
      </trkpt>
      <trkpt lat="45.22791" lon="6.03508">
        <ele>2301.05</ele>
        <time>2016-10-31T10:33:34Z</time>
      </trkpt>
      <trkpt lat="45.22792" lon="6.03507">
        <ele>2303.94</ele>
        <time>2016-10-31T10:33:57Z</time>
      </trkpt>
      <trkpt lat="45.22793" lon="6.03509">
        <ele>2305.86</ele>
        <time>2016-10-31T10:34:16Z</time>
      </trkpt>
      <trkpt lat="45.22795" lon="6.03509">
        <ele>2308.26</ele>
        <time>2016-10-31T10:34:39Z</time>
      </trkpt>
      <trkpt lat="45.22797" lon="6.0351">
        <ele>2310.67</ele>
        <time>2016-10-31T10:34:58Z</time>
      </trkpt>
      <trkpt lat="45.22799" lon="6.0351">
        <ele>2312.59</ele>
        <time>2016-10-31T10:35:11Z</time>
      </trkpt>
      <trkpt lat="45.22802" lon="6.03512">
        <ele>2314.99</ele>
        <time>2016-10-31T10:35:27Z</time>
      </trkpt>
      <trkpt lat="45.22804" lon="6.03511">
        <ele>2316.91</ele>
        <time>2016-10-31T10:35:37Z</time>
      </trkpt>
      <trkpt lat="45.22807" lon="6.03513">
        <ele>2319.8</ele>
        <time>2016-10-31T10:35:54Z</time>
      </trkpt>
      <trkpt lat="45.2281" lon="6.03513">
        <ele>2322.2</ele>
        <time>2016-10-31T10:36:16Z</time>
      </trkpt>
      <trkpt lat="45.22812" lon="6.03517">
        <ele>2324.61</ele>
        <time>2016-10-31T10:36:36Z</time>
      </trkpt>
      <trkpt lat="45.22812" lon="6.03518">
        <ele>2325.09</ele>
        <time>2016-10-31T10:36:58Z</time>
      </trkpt>
      <trkpt lat="45.22812" lon="6.03519">
        <ele>2323.64</ele>
        <time>2016-10-31T10:37:23Z</time>
      </trkpt>
      <trkpt lat="45.22812" lon="6.03518">
        <ele>2324.12</ele>
        <time>2016-10-31T10:37:47Z</time>
      </trkpt>
      <trkpt lat="45.22812" lon="6.03517">
        <ele>2324.12</ele>
        <time>2016-10-31T10:38:25Z</time>
      </trkpt>
      <trkpt lat="45.22813" lon="6.03517">
        <ele>2324.12</ele>
        <time>2016-10-31T10:39:12Z</time>
      </trkpt>
      <trkpt lat="45.22813" lon="6.03516">
        <ele>2324.12</ele>
        <time>2016-10-31T10:40:07Z</time>
      </trkpt>
      <trkpt lat="45.22813" lon="6.03517">
        <ele>2324.12</ele>
        <time>2016-10-31T10:40:50Z</time>
      </trkpt>
      <trkpt lat="45.22812" lon="6.03517">
        <ele>2323.64</ele>
        <time>2016-10-31T10:41:19Z</time>
      </trkpt>
      <trkpt lat="45.22812" lon="6.03516">
        <ele>2325.09</ele>
        <time>2016-10-31T10:41:29Z</time>
      </trkpt>
      <trkpt lat="45.22812" lon="6.03519">
        <ele>2325.09</ele>
        <time>2016-10-31T10:42:02Z</time>
      </trkpt>
      <trkpt lat="45.22813" lon="6.03521">
        <ele>2325.57</ele>
        <time>2016-10-31T10:42:28Z</time>
      </trkpt>
      <trkpt lat="45.22812" lon="6.03519">
        <ele>2325.57</ele>
        <time>2016-10-31T10:42:54Z</time>
      </trkpt>
      <trkpt lat="45.22811" lon="6.03519">
        <ele>2325.57</ele>
        <time>2016-10-31T10:43:24Z</time>
      </trkpt>
      <trkpt lat="45.22812" lon="6.03519">
        <ele>2325.57</ele>
        <time>2016-10-31T10:43:52Z</time>
      </trkpt>
      <trkpt lat="45.22812" lon="6.0352">
        <ele>2326.05</ele>
        <time>2016-10-31T10:44:20Z</time>
      </trkpt>
      <trkpt lat="45.22812" lon="6.03521">
        <ele>2326.05</ele>
        <time>2016-10-31T10:44:53Z</time>
      </trkpt>
      <trkpt lat="45.22812" lon="6.0352">
        <ele>2326.05</ele>
        <time>2016-10-31T10:45:26Z</time>
      </trkpt>
      <trkpt lat="45.22812" lon="6.0352">
        <ele>2326.05</ele>
        <time>2016-10-31T10:45:54Z</time>
      </trkpt>
      <trkpt lat="45.22811" lon="6.03519">
        <ele>2326.53</ele>
        <time>2016-10-31T10:46:21Z</time>
      </trkpt>
      <trkpt lat="45.22811" lon="6.03519">
        <ele>2326.53</ele>
        <time>2016-10-31T10:46:43Z</time>
      </trkpt>
      <trkpt lat="45.22811" lon="6.03519">
        <ele>2326.53</ele>
        <time>2016-10-31T10:47:25Z</time>
      </trkpt>
      <trkpt lat="45.22812" lon="6.03519">
        <ele>2326.53</ele>
        <time>2016-10-31T10:48:00Z</time>
      </trkpt>
      <trkpt lat="45.22811" lon="6.0352">
        <ele>2327.01</ele>
        <time>2016-10-31T10:48:30Z</time>
      </trkpt>
      <trkpt lat="45.22812" lon="6.0352">
        <ele>2327.01</ele>
        <time>2016-10-31T10:49:08Z</time>
      </trkpt>
      <trkpt lat="45.22812" lon="6.03519">
        <ele>2327.01</ele>
        <time>2016-10-31T10:49:32Z</time>
      </trkpt>
      <trkpt lat="45.22812" lon="6.03519">
        <ele>2327.01</ele>
        <time>2016-10-31T10:50:01Z</time>
      </trkpt>
      <trkpt lat="45.22811" lon="6.0352">
        <ele>2327.49</ele>
        <time>2016-10-31T10:50:41Z</time>
      </trkpt>
      <trkpt lat="45.22811" lon="6.03519">
        <ele>2327.49</ele>
        <time>2016-10-31T10:51:20Z</time>
      </trkpt>
      <trkpt lat="45.22811" lon="6.03518">
        <ele>2327.49</ele>
        <time>2016-10-31T10:51:57Z</time>
      </trkpt>
      <trkpt lat="45.22811" lon="6.03519">
        <ele>2327.49</ele>
        <time>2016-10-31T10:52:37Z</time>
      </trkpt>
      <trkpt lat="45.22811" lon="6.03519">
        <ele>2327.97</ele>
        <time>2016-10-31T10:53:24Z</time>
      </trkpt>
      <trkpt lat="45.22811" lon="6.03518">
        <ele>2327.97</ele>
        <time>2016-10-31T10:54:11Z</time>
      </trkpt>
      <trkpt lat="45.22811" lon="6.03519">
        <ele>2327.97</ele>
        <time>2016-10-31T10:54:43Z</time>
      </trkpt>
      <trkpt lat="45.22811" lon="6.03519">
        <ele>2328.45</ele>
        <time>2016-10-31T10:55:20Z</time>
      </trkpt>
      <trkpt lat="45.22811" lon="6.03518">
        <ele>2328.93</ele>
        <time>2016-10-31T10:55:44Z</time>
      </trkpt>
      <trkpt lat="45.22812" lon="6.03517">
        <ele>2328.93</ele>
        <time>2016-10-31T10:56:11Z</time>
      </trkpt>
      <trkpt lat="45.22812" lon="6.03518">
        <ele>2328.93</ele>
        <time>2016-10-31T10:56:41Z</time>
      </trkpt>
      <trkpt lat="45.22812" lon="6.03517">
        <ele>2328.93</ele>
        <time>2016-10-31T10:57:11Z</time>
      </trkpt>
      <trkpt lat="45.22812" lon="6.03517">
        <ele>2328.93</ele>
        <time>2016-10-31T10:57:44Z</time>
      </trkpt>
      <trkpt lat="45.22812" lon="6.03517">
        <ele>2328.93</ele>
        <time>2016-10-31T10:58:21Z</time>
      </trkpt>
      <trkpt lat="45.22812" lon="6.03517">
        <ele>2328.45</ele>
        <time>2016-10-31T10:58:59Z</time>
      </trkpt>
      <trkpt lat="45.22812" lon="6.03517">
        <ele>2328.45</ele>
        <time>2016-10-31T10:59:40Z</time>
      </trkpt>
      <trkpt lat="45.22812" lon="6.03517">
        <ele>2328.45</ele>
        <time>2016-10-31T11:00:18Z</time>
      </trkpt>
      <trkpt lat="45.22812" lon="6.03516">
        <ele>2327.01</ele>
        <time>2016-10-31T11:00:39Z</time>
      </trkpt>
      <trkpt lat="45.22812" lon="6.03515">
        <ele>2327.01</ele>
        <time>2016-10-31T11:01:01Z</time>
      </trkpt>
      <trkpt lat="45.22812" lon="6.03516">
        <ele>2328.45</ele>
        <time>2016-10-31T11:01:34Z</time>
      </trkpt>
      <trkpt lat="45.22811" lon="6.03516">
        <ele>2328.45</ele>
        <time>2016-10-31T11:02:00Z</time>
      </trkpt>
      <trkpt lat="45.2281" lon="6.03516">
        <ele>2328.45</ele>
        <time>2016-10-31T11:02:42Z</time>
      </trkpt>
      <trkpt lat="45.22811" lon="6.03515">
        <ele>2328.45</ele>
        <time>2016-10-31T11:03:22Z</time>
      </trkpt>
      <trkpt lat="45.22812" lon="6.03516">
        <ele>2327.97</ele>
        <time>2016-10-31T11:04:09Z</time>
      </trkpt>
      <trkpt lat="45.22812" lon="6.03519">
        <ele>2328.45</ele>
        <time>2016-10-31T11:04:38Z</time>
      </trkpt>
      <trkpt lat="45.22812" lon="6.0352">
        <ele>2328.45</ele>
        <time>2016-10-31T11:05:10Z</time>
      </trkpt>
      <trkpt lat="45.22813" lon="6.0352">
        <ele>2328.45</ele>
        <time>2016-10-31T11:05:36Z</time>
      </trkpt>
      <trkpt lat="45.22814" lon="6.03522">
        <ele>2328.45</ele>
        <time>2016-10-31T11:05:59Z</time>
      </trkpt>
      <trkpt lat="45.22813" lon="6.03523">
        <ele>2328.45</ele>
        <time>2016-10-31T11:06:21Z</time>
      </trkpt>
      <trkpt lat="45.22815" lon="6.03526">
        <ele>2328.45</ele>
        <time>2016-10-31T11:06:51Z</time>
      </trkpt>
      <trkpt lat="45.2282" lon="6.03525">
        <ele>2327.01</ele>
        <time>2016-10-31T11:07:22Z</time>
      </trkpt>
      <trkpt lat="45.22818" lon="6.03525">
        <ele>2326.53</ele>
        <time>2016-10-31T11:07:42Z</time>
      </trkpt>
      <trkpt lat="45.22819" lon="6.03524">
        <ele>2326.05</ele>
        <time>2016-10-31T11:08:06Z</time>
      </trkpt>
      <trkpt lat="45.22819" lon="6.03526">
        <ele>2325.57</ele>
        <time>2016-10-31T11:08:30Z</time>
      </trkpt>
      <trkpt lat="45.2282" lon="6.03525">
        <ele>2324.61</ele>
        <time>2016-10-31T11:08:56Z</time>
      </trkpt>
      <trkpt lat="45.22821" lon="6.03526">
        <ele>2323.16</ele>
        <time>2016-10-31T11:09:20Z</time>
      </trkpt>
      <trkpt lat="45.22822" lon="6.03527">
        <ele>2321.72</ele>
        <time>2016-10-31T11:09:43Z</time>
      </trkpt>
      <trkpt lat="45.22822" lon="6.03529">
        <ele>2321.72</ele>
        <time>2016-10-31T11:10:05Z</time>
      </trkpt>
      <trkpt lat="45.22824" lon="6.03529">
        <ele>2322.68</ele>
        <time>2016-10-31T11:10:15Z</time>
      </trkpt>
      <trkpt lat="45.22824" lon="6.0353">
        <ele>2323.64</ele>
        <time>2016-10-31T11:10:36Z</time>
      </trkpt>
      <trkpt lat="45.22826" lon="6.0353">
        <ele>2324.12</ele>
        <time>2016-10-31T11:11:00Z</time>
      </trkpt>
      <trkpt lat="45.22822" lon="6.03533">
        <ele>2324.12</ele>
        <time>2016-10-31T11:11:36Z</time>
      </trkpt>
      <trkpt lat="45.22825" lon="6.03532">
        <ele>2324.61</ele>
        <time>2016-10-31T11:11:58Z</time>
      </trkpt>
      <trkpt lat="45.22826" lon="6.03533">
        <ele>2325.09</ele>
        <time>2016-10-31T11:12:17Z</time>
      </trkpt>
      <trkpt lat="45.22826" lon="6.03535">
        <ele>2325.57</ele>
        <time>2016-10-31T11:12:40Z</time>
      </trkpt>
      <trkpt lat="45.22825" lon="6.03536">
        <ele>2325.57</ele>
        <time>2016-10-31T11:13:13Z</time>
      </trkpt>
      <trkpt lat="45.22826" lon="6.03534">
        <ele>2325.57</ele>
        <time>2016-10-31T11:13:42Z</time>
      </trkpt>
      <trkpt lat="45.22828" lon="6.03535">
        <ele>2326.05</ele>
        <time>2016-10-31T11:14:17Z</time>
      </trkpt>
      <trkpt lat="45.22825" lon="6.03539">
        <ele>2326.53</ele>
        <time>2016-10-31T11:14:41Z</time>
      </trkpt>
      <trkpt lat="45.22824" lon="6.03538">
        <ele>2327.01</ele>
        <time>2016-10-31T11:15:03Z</time>
      </trkpt>
      <trkpt lat="45.22824" lon="6.03539">
        <ele>2327.01</ele>
        <time>2016-10-31T11:15:30Z</time>
      </trkpt>
      <trkpt lat="45.22825" lon="6.03539">
        <ele>2327.01</ele>
        <time>2016-10-31T11:15:58Z</time>
      </trkpt>
      <trkpt lat="45.22826" lon="6.03541">
        <ele>2327.01</ele>
        <time>2016-10-31T11:16:23Z</time>
      </trkpt>
      <trkpt lat="45.22825" lon="6.0354">
        <ele>2327.01</ele>
        <time>2016-10-31T11:16:58Z</time>
      </trkpt>
      <trkpt lat="45.22826" lon="6.03543">
        <ele>2327.01</ele>
        <time>2016-10-31T11:17:22Z</time>
      </trkpt>
      <trkpt lat="45.22828" lon="6.03546">
        <ele>2327.01</ele>
        <time>2016-10-31T11:17:44Z</time>
      </trkpt>
      <trkpt lat="45.22828" lon="6.03544">
        <ele>2327.01</ele>
        <time>2016-10-31T11:18:13Z</time>
      </trkpt>
      <trkpt lat="45.22829" lon="6.03545">
        <ele>2325.09</ele>
        <time>2016-10-31T11:18:36Z</time>
      </trkpt>
      <trkpt lat="45.22831" lon="6.03544">
        <ele>2324.12</ele>
        <time>2016-10-31T11:19:04Z</time>
      </trkpt>
      <trkpt lat="45.22828" lon="6.03545">
        <ele>2323.16</ele>
        <time>2016-10-31T11:19:27Z</time>
      </trkpt>
      <trkpt lat="45.2283" lon="6.03546">
        <ele>2323.16</ele>
        <time>2016-10-31T11:19:46Z</time>
      </trkpt>
      <trkpt lat="45.22832" lon="6.03544">
        <ele>2322.68</ele>
        <time>2016-10-31T11:20:07Z</time>
      </trkpt>
      <trkpt lat="45.22834" lon="6.03547">
        <ele>2322.2</ele>
        <time>2016-10-31T11:20:25Z</time>
      </trkpt>
      <trkpt lat="45.22832" lon="6.03547">
        <ele>2322.68</ele>
        <time>2016-10-31T11:20:47Z</time>
      </trkpt>
      <trkpt lat="45.22832" lon="6.0355">
        <ele>2322.68</ele>
        <time>2016-10-31T11:21:08Z</time>
      </trkpt>
      <trkpt lat="45.22833" lon="6.0355">
        <ele>2322.68</ele>
        <time>2016-10-31T11:21:31Z</time>
      </trkpt>
      <trkpt lat="45.22833" lon="6.0355">
        <ele>2322.68</ele>
        <time>2016-10-31T11:21:58Z</time>
      </trkpt>
      <trkpt lat="45.22831" lon="6.03554">
        <ele>2322.68</ele>
        <time>2016-10-31T11:22:28Z</time>
      </trkpt>
      <trkpt lat="45.22833" lon="6.0355">
        <ele>2322.68</ele>
        <time>2016-10-31T11:23:03Z</time>
      </trkpt>
      <trkpt lat="45.22833" lon="6.03549">
        <ele>2321.24</ele>
        <time>2016-10-31T11:23:40Z</time>
      </trkpt>
      <trkpt lat="45.22832" lon="6.03551">
        <ele>2321.24</ele>
        <time>2016-10-31T11:24:15Z</time>
      </trkpt>
      <trkpt lat="45.22832" lon="6.0355">
        <ele>2321.24</ele>
        <time>2016-10-31T11:24:43Z</time>
      </trkpt>
      <trkpt lat="45.22831" lon="6.03554">
        <ele>2321.24</ele>
        <time>2016-10-31T11:25:10Z</time>
      </trkpt>
      <trkpt lat="45.22832" lon="6.03553">
        <ele>2321.24</ele>
        <time>2016-10-31T11:25:30Z</time>
      </trkpt>
      <trkpt lat="45.22831" lon="6.0355">
        <ele>2320.76</ele>
        <time>2016-10-31T11:26:02Z</time>
      </trkpt>
      <trkpt lat="45.2283" lon="6.03551">
        <ele>2320.76</ele>
        <time>2016-10-31T11:26:43Z</time>
      </trkpt>
      <trkpt lat="45.22831" lon="6.03554">
        <ele>2320.28</ele>
        <time>2016-10-31T11:27:11Z</time>
      </trkpt>
      <trkpt lat="45.22831" lon="6.03557">
        <ele>2319.32</ele>
        <time>2016-10-31T11:27:33Z</time>
      </trkpt>
      <trkpt lat="45.22832" lon="6.03558">
        <ele>2318.84</ele>
        <time>2016-10-31T11:28:01Z</time>
      </trkpt>
      <trkpt lat="45.22833" lon="6.03559">
        <ele>2318.36</ele>
        <time>2016-10-31T11:28:28Z</time>
      </trkpt>
      <trkpt lat="45.22832" lon="6.03559">
        <ele>2317.4</ele>
        <time>2016-10-31T11:28:51Z</time>
      </trkpt>
      <trkpt lat="45.22832" lon="6.03558">
        <ele>2317.4</ele>
        <time>2016-10-31T11:29:19Z</time>
      </trkpt>
      <trkpt lat="45.22832" lon="6.03558">
        <ele>2315.95</ele>
        <time>2016-10-31T11:29:39Z</time>
      </trkpt>
      <trkpt lat="45.22833" lon="6.0356">
        <ele>2315.95</ele>
        <time>2016-10-31T11:30:01Z</time>
      </trkpt>
      <trkpt lat="45.22833" lon="6.03562">
        <ele>2314.99</ele>
        <time>2016-10-31T11:30:18Z</time>
      </trkpt>
      <trkpt lat="45.22833" lon="6.03562">
        <ele>2314.51</ele>
        <time>2016-10-31T11:30:44Z</time>
      </trkpt>
      <trkpt lat="45.2283" lon="6.03567">
        <ele>2314.51</ele>
        <time>2016-10-31T11:31:28Z</time>
      </trkpt>
      <trkpt lat="45.22831" lon="6.03565">
        <ele>2314.51</ele>
        <time>2016-10-31T11:31:55Z</time>
      </trkpt>
      <trkpt lat="45.22832" lon="6.03563">
        <ele>2314.51</ele>
        <time>2016-10-31T11:32:18Z</time>
      </trkpt>
      <trkpt lat="45.22833" lon="6.03562">
        <ele>2314.51</ele>
        <time>2016-10-31T11:32:41Z</time>
      </trkpt>
      <trkpt lat="45.22833" lon="6.03562">
        <ele>2314.51</ele>
        <time>2016-10-31T11:33:16Z</time>
      </trkpt>
      <trkpt lat="45.22832" lon="6.03561">
        <ele>2314.51</ele>
        <time>2016-10-31T11:33:47Z</time>
      </trkpt>
      <trkpt lat="45.22832" lon="6.0356">
        <ele>2314.51</ele>
        <time>2016-10-31T11:34:31Z</time>
      </trkpt>
      <trkpt lat="45.22832" lon="6.03561">
        <ele>2314.51</ele>
        <time>2016-10-31T11:35:03Z</time>
      </trkpt>
      <trkpt lat="45.22833" lon="6.03561">
        <ele>2314.03</ele>
        <time>2016-10-31T11:35:43Z</time>
      </trkpt>
      <trkpt lat="45.22833" lon="6.03561">
        <ele>2314.03</ele>
        <time>2016-10-31T11:36:16Z</time>
      </trkpt>
      <trkpt lat="45.22832" lon="6.03562">
        <ele>2314.03</ele>
        <time>2016-10-31T11:36:44Z</time>
      </trkpt>
      <trkpt lat="45.22833" lon="6.03565">
        <ele>2314.03</ele>
        <time>2016-10-31T11:37:11Z</time>
      </trkpt>
      <trkpt lat="45.22836" lon="6.03563">
        <ele>2314.03</ele>
        <time>2016-10-31T11:37:45Z</time>
      </trkpt>
      <trkpt lat="45.22833" lon="6.03569">
        <ele>2314.03</ele>
        <time>2016-10-31T11:38:26Z</time>
      </trkpt>
      <trkpt lat="45.22832" lon="6.0357">
        <ele>2313.07</ele>
        <time>2016-10-31T11:38:50Z</time>
      </trkpt>
      <trkpt lat="45.22832" lon="6.0357">
        <ele>2313.07</ele>
        <time>2016-10-31T11:39:15Z</time>
      </trkpt>
      <trkpt lat="45.22832" lon="6.03571">
        <ele>2312.59</ele>
        <time>2016-10-31T11:39:40Z</time>
      </trkpt>
      <trkpt lat="45.22833" lon="6.03571">
        <ele>2311.63</ele>
        <time>2016-10-31T11:39:57Z</time>
      </trkpt>
      <trkpt lat="45.22835" lon="6.03573">
        <ele>2310.19</ele>
        <time>2016-10-31T11:40:24Z</time>
      </trkpt>
      <trkpt lat="45.22834" lon="6.03574">
        <ele>2309.22</ele>
        <time>2016-10-31T11:40:47Z</time>
      </trkpt>
      <trkpt lat="45.22833" lon="6.03573">
        <ele>2309.22</ele>
        <time>2016-10-31T11:41:21Z</time>
      </trkpt>
      <trkpt lat="45.22834" lon="6.03573">
        <ele>2309.22</ele>
        <time>2016-10-31T11:41:59Z</time>
      </trkpt>
      <trkpt lat="45.22833" lon="6.03573">
        <ele>2309.22</ele>
        <time>2016-10-31T11:42:35Z</time>
      </trkpt>
      <trkpt lat="45.22835" lon="6.03575">
        <ele>2308.74</ele>
        <time>2016-10-31T11:43:06Z</time>
      </trkpt>
      <trkpt lat="45.22834" lon="6.03572">
        <ele>2308.74</ele>
        <time>2016-10-31T11:43:28Z</time>
      </trkpt>
      <trkpt lat="45.22834" lon="6.03572">
        <ele>2308.74</ele>
        <time>2016-10-31T11:43:59Z</time>
      </trkpt>
      <trkpt lat="45.22833" lon="6.03573">
        <ele>2308.74</ele>
        <time>2016-10-31T11:44:31Z</time>
      </trkpt>
      <trkpt lat="45.22833" lon="6.03573">
        <ele>2308.74</ele>
        <time>2016-10-31T11:45:05Z</time>
      </trkpt>
      <trkpt lat="45.22833" lon="6.03572">
        <ele>2308.74</ele>
        <time>2016-10-31T11:45:51Z</time>
      </trkpt>
      <trkpt lat="45.22834" lon="6.03575">
        <ele>2308.74</ele>
        <time>2016-10-31T11:46:26Z</time>
      </trkpt>
      <trkpt lat="45.22834" lon="6.03575">
        <ele>2308.74</ele>
        <time>2016-10-31T11:46:46Z</time>
      </trkpt>
      <trkpt lat="45.22834" lon="6.03574">
        <ele>2308.74</ele>
        <time>2016-10-31T11:47:11Z</time>
      </trkpt>
      <trkpt lat="45.22835" lon="6.03573">
        <ele>2308.74</ele>
        <time>2016-10-31T11:47:48Z</time>
      </trkpt>
      <trkpt lat="45.22833" lon="6.03574">
        <ele>2308.74</ele>
        <time>2016-10-31T11:48:22Z</time>
      </trkpt>
      <trkpt lat="45.22834" lon="6.03574">
        <ele>2310.19</ele>
        <time>2016-10-31T11:48:26Z</time>
      </trkpt>
      <trkpt lat="45.22835" lon="6.03573">
        <ele>2310.67</ele>
        <time>2016-10-31T11:48:50Z</time>
      </trkpt>
      <trkpt lat="45.22837" lon="6.03573">
        <ele>2310.67</ele>
        <time>2016-10-31T11:49:31Z</time>
      </trkpt>
      <trkpt lat="45.22837" lon="6.03574">
        <ele>2311.63</ele>
        <time>2016-10-31T11:49:51Z</time>
      </trkpt>
      <trkpt lat="45.22836" lon="6.03575">
        <ele>2312.11</ele>
        <time>2016-10-31T11:50:13Z</time>
      </trkpt>
      <trkpt lat="45.22836" lon="6.03576">
        <ele>2313.07</ele>
        <time>2016-10-31T11:50:39Z</time>
      </trkpt>
      <trkpt lat="45.22838" lon="6.03576">
        <ele>2314.03</ele>
        <time>2016-10-31T11:51:07Z</time>
      </trkpt>
      <trkpt lat="45.22837" lon="6.03577">
        <ele>2314.03</ele>
        <time>2016-10-31T11:51:38Z</time>
      </trkpt>
      <trkpt lat="45.22835" lon="6.03578">
        <ele>2314.03</ele>
        <time>2016-10-31T11:52:12Z</time>
      </trkpt>
      <trkpt lat="45.22838" lon="6.03578">
        <ele>2315.47</ele>
        <time>2016-10-31T11:52:34Z</time>
      </trkpt>
      <trkpt lat="45.22841" lon="6.03578">
        <ele>2316.91</ele>
        <time>2016-10-31T11:52:59Z</time>
      </trkpt>
      <trkpt lat="45.22841" lon="6.03579">
        <ele>2317.4</ele>
        <time>2016-10-31T11:53:20Z</time>
      </trkpt>
      <trkpt lat="45.2284" lon="6.03582">
        <ele>2317.4</ele>
        <time>2016-10-31T11:53:53Z</time>
      </trkpt>
      <trkpt lat="45.22841" lon="6.03583">
        <ele>2317.4</ele>
        <time>2016-10-31T11:54:17Z</time>
      </trkpt>
      <trkpt lat="45.22842" lon="6.03585">
        <ele>2318.36</ele>
        <time>2016-10-31T11:54:37Z</time>
      </trkpt>
      <trkpt lat="45.22842" lon="6.03586">
        <ele>2319.32</ele>
        <time>2016-10-31T11:54:59Z</time>
      </trkpt>
      <trkpt lat="45.22843" lon="6.03587">
        <ele>2319.32</ele>
        <time>2016-10-31T11:55:17Z</time>
      </trkpt>
      <trkpt lat="45.22844" lon="6.03591">
        <ele>2319.32</ele>
        <time>2016-10-31T11:55:37Z</time>
      </trkpt>
      <trkpt lat="45.22843" lon="6.03593">
        <ele>2319.32</ele>
        <time>2016-10-31T11:55:56Z</time>
      </trkpt>
      <trkpt lat="45.22845" lon="6.0359">
        <ele>2319.32</ele>
        <time>2016-10-31T11:56:26Z</time>
      </trkpt>
      <trkpt lat="45.22845" lon="6.0359">
        <ele>2319.32</ele>
        <time>2016-10-31T11:56:53Z</time>
      </trkpt>
      <trkpt lat="45.22845" lon="6.03594">
        <ele>2319.32</ele>
        <time>2016-10-31T11:57:19Z</time>
      </trkpt>
      <trkpt lat="45.22846" lon="6.03592">
        <ele>2319.32</ele>
        <time>2016-10-31T11:57:46Z</time>
      </trkpt>
      <trkpt lat="45.22845" lon="6.03592">
        <ele>2319.32</ele>
        <time>2016-10-31T11:58:09Z</time>
      </trkpt>
      <trkpt lat="45.22845" lon="6.03592">
        <ele>2319.32</ele>
        <time>2016-10-31T11:58:43Z</time>
      </trkpt>
      <trkpt lat="45.22847" lon="6.03592">
        <ele>2319.32</ele>
        <time>2016-10-31T11:59:10Z</time>
      </trkpt>
      <trkpt lat="45.22845" lon="6.03592">
        <ele>2319.8</ele>
        <time>2016-10-31T11:59:38Z</time>
      </trkpt>
      <trkpt lat="45.22847" lon="6.03592">
        <ele>2319.8</ele>
        <time>2016-10-31T12:00:05Z</time>
      </trkpt>
      <trkpt lat="45.22848" lon="6.03595">
        <ele>2319.8</ele>
        <time>2016-10-31T12:00:29Z</time>
      </trkpt>
      <trkpt lat="45.22845" lon="6.03593">
        <ele>2319.8</ele>
        <time>2016-10-31T12:00:58Z</time>
      </trkpt>
      <trkpt lat="45.22845" lon="6.03592">
        <ele>2319.8</ele>
        <time>2016-10-31T12:01:32Z</time>
      </trkpt>
      <trkpt lat="45.22844" lon="6.03594">
        <ele>2319.8</ele>
        <time>2016-10-31T12:01:58Z</time>
      </trkpt>
      <trkpt lat="45.22845" lon="6.03594">
        <ele>2319.32</ele>
        <time>2016-10-31T12:02:26Z</time>
      </trkpt>
      <trkpt lat="45.22844" lon="6.03594">
        <ele>2319.32</ele>
        <time>2016-10-31T12:02:46Z</time>
      </trkpt>
      <trkpt lat="45.22843" lon="6.03593">
        <ele>2319.32</ele>
        <time>2016-10-31T12:03:14Z</time>
      </trkpt>
      <trkpt lat="45.22844" lon="6.03593">
        <ele>2319.32</ele>
        <time>2016-10-31T12:03:38Z</time>
      </trkpt>
      <trkpt lat="45.22843" lon="6.03594">
        <ele>2319.32</ele>
        <time>2016-10-31T12:04:00Z</time>
      </trkpt>
      <trkpt lat="45.22846" lon="6.03593">
        <ele>2319.32</ele>
        <time>2016-10-31T12:04:28Z</time>
      </trkpt>
      <trkpt lat="45.22846" lon="6.03593">
        <ele>2319.32</ele>
        <time>2016-10-31T12:04:59Z</time>
      </trkpt>
      <trkpt lat="45.22846" lon="6.03594">
        <ele>2319.32</ele>
        <time>2016-10-31T12:05:31Z</time>
      </trkpt>
      <trkpt lat="45.22845" lon="6.03595">
        <ele>2319.32</ele>
        <time>2016-10-31T12:05:59Z</time>
      </trkpt>
      <trkpt lat="45.22845" lon="6.03593">
        <ele>2319.32</ele>
        <time>2016-10-31T12:06:20Z</time>
      </trkpt>
      <trkpt lat="45.22843" lon="6.03595">
        <ele>2319.32</ele>
        <time>2016-10-31T12:06:57Z</time>
      </trkpt>
      <trkpt lat="45.22844" lon="6.03593">
        <ele>2319.32</ele>
        <time>2016-10-31T12:07:22Z</time>
      </trkpt>
      <trkpt lat="45.22846" lon="6.03594">
        <ele>2319.32</ele>
        <time>2016-10-31T12:07:55Z</time>
      </trkpt>
      <trkpt lat="45.22844" lon="6.03593">
        <ele>2318.84</ele>
        <time>2016-10-31T12:08:27Z</time>
      </trkpt>
      <trkpt lat="45.22845" lon="6.03594">
        <ele>2319.32</ele>
        <time>2016-10-31T12:08:54Z</time>
      </trkpt>
      <trkpt lat="45.22846" lon="6.03595">
        <ele>2316.43</ele>
        <time>2016-10-31T12:09:09Z</time>
      </trkpt>
      <trkpt lat="45.22848" lon="6.03598">
        <ele>2314.51</ele>
        <time>2016-10-31T12:09:30Z</time>
      </trkpt>
      <trkpt lat="45.22847" lon="6.03597">
        <ele>2313.55</ele>
        <time>2016-10-31T12:09:49Z</time>
      </trkpt>
      <trkpt lat="45.22847" lon="6.03596">
        <ele>2313.55</ele>
        <time>2016-10-31T12:10:18Z</time>
      </trkpt>
      <trkpt lat="45.22849" lon="6.03599">
        <ele>2313.55</ele>
        <time>2016-10-31T12:10:41Z</time>
      </trkpt>
      <trkpt lat="45.22848" lon="6.03598">
        <ele>2313.55</ele>
        <time>2016-10-31T12:11:08Z</time>
      </trkpt>
      <trkpt lat="45.22849" lon="6.03596">
        <ele>2313.55</ele>
        <time>2016-10-31T12:11:43Z</time>
      </trkpt>
      <trkpt lat="45.22848" lon="6.03596">
        <ele>2313.55</ele>
        <time>2016-10-31T12:12:24Z</time>
      </trkpt>
      <trkpt lat="45.22848" lon="6.03595">
        <ele>2313.55</ele>
        <time>2016-10-31T12:12:47Z</time>
      </trkpt>
      <trkpt lat="45.22848" lon="6.03595">
        <ele>2313.55</ele>
        <time>2016-10-31T12:13:25Z</time>
      </trkpt>
      <trkpt lat="45.22849" lon="6.03597">
        <ele>2313.55</ele>
        <time>2016-10-31T12:13:59Z</time>
      </trkpt>
      <trkpt lat="45.22848" lon="6.03593">
        <ele>2313.55</ele>
        <time>2016-10-31T12:14:44Z</time>
      </trkpt>
      <trkpt lat="45.22846" lon="6.03594">
        <ele>2314.51</ele>
        <time>2016-10-31T12:15:21Z</time>
      </trkpt>
      <trkpt lat="45.22847" lon="6.03593">
        <ele>2314.51</ele>
        <time>2016-10-31T12:16:00Z</time>
      </trkpt>
      <trkpt lat="45.22848" lon="6.03593">
        <ele>2314.51</ele>
        <time>2016-10-31T12:16:49Z</time>
      </trkpt>
      <trkpt lat="45.22848" lon="6.03594">
        <ele>2314.99</ele>
        <time>2016-10-31T12:17:25Z</time>
      </trkpt>
      <trkpt lat="45.22849" lon="6.03596">
        <ele>2314.99</ele>
        <time>2016-10-31T12:18:02Z</time>
      </trkpt>
      <trkpt lat="45.22849" lon="6.03597">
        <ele>2314.99</ele>
        <time>2016-10-31T12:18:30Z</time>
      </trkpt>
      <trkpt lat="45.22847" lon="6.03594">
        <ele>2314.99</ele>
        <time>2016-10-31T12:19:01Z</time>
      </trkpt>
      <trkpt lat="45.22847" lon="6.03594">
        <ele>2314.99</ele>
        <time>2016-10-31T12:19:26Z</time>
      </trkpt>
      <trkpt lat="45.22847" lon="6.03593">
        <ele>2314.99</ele>
        <time>2016-10-31T12:19:49Z</time>
      </trkpt>
      <trkpt lat="45.22847" lon="6.03593">
        <ele>2314.99</ele>
        <time>2016-10-31T12:20:18Z</time>
      </trkpt>
      <trkpt lat="45.22847" lon="6.03595">
        <ele>2314.99</ele>
        <time>2016-10-31T12:20:54Z</time>
      </trkpt>
      <trkpt lat="45.22849" lon="6.03598">
        <ele>2315.95</ele>
        <time>2016-10-31T12:21:21Z</time>
      </trkpt>
      <trkpt lat="45.22851" lon="6.03599">
        <ele>2316.43</ele>
        <time>2016-10-31T12:21:53Z</time>
      </trkpt>
      <trkpt lat="45.22851" lon="6.03597">
        <ele>2316.43</ele>
        <time>2016-10-31T12:22:29Z</time>
      </trkpt>
      <trkpt lat="45.22852" lon="6.03598">
        <ele>2316.43</ele>
        <time>2016-10-31T12:23:14Z</time>
      </trkpt>
      <trkpt lat="45.22852" lon="6.03599">
        <ele>2316.43</ele>
        <time>2016-10-31T12:23:51Z</time>
      </trkpt>
      <trkpt lat="45.22852" lon="6.036">
        <ele>2315.47</ele>
        <time>2016-10-31T12:24:15Z</time>
      </trkpt>
      <trkpt lat="45.22853" lon="6.03603">
        <ele>2316.91</ele>
        <time>2016-10-31T12:24:45Z</time>
      </trkpt>
      <trkpt lat="45.22851" lon="6.03604">
        <ele>2318.36</ele>
        <time>2016-10-31T12:25:10Z</time>
      </trkpt>
      <trkpt lat="45.22849" lon="6.03607">
        <ele>2318.84</ele>
        <time>2016-10-31T12:25:34Z</time>
      </trkpt>
      <trkpt lat="45.22853" lon="6.03607">
        <ele>2318.84</ele>
        <time>2016-10-31T12:25:59Z</time>
      </trkpt>
      <trkpt lat="45.22854" lon="6.03609">
        <ele>2319.32</ele>
        <time>2016-10-31T12:26:28Z</time>
      </trkpt>
      <trkpt lat="45.22855" lon="6.03609">
        <ele>2321.24</ele>
        <time>2016-10-31T12:26:55Z</time>
      </trkpt>
      <trkpt lat="45.22855" lon="6.03609">
        <ele>2321.72</ele>
        <time>2016-10-31T12:27:31Z</time>
      </trkpt>
      <trkpt lat="45.22856" lon="6.03611">
        <ele>2324.12</ele>
        <time>2016-10-31T12:27:55Z</time>
      </trkpt>
      <trkpt lat="45.22859" lon="6.03611">
        <ele>2326.05</ele>
        <time>2016-10-31T12:28:16Z</time>
      </trkpt>
      <trkpt lat="45.22862" lon="6.03611">
        <ele>2328.45</ele>
        <time>2016-10-31T12:28:35Z</time>
      </trkpt>
      <trkpt lat="45.22862" lon="6.03611">
        <ele>2329.89</ele>
        <time>2016-10-31T12:28:57Z</time>
      </trkpt>
      <trkpt lat="45.22864" lon="6.03613">
        <ele>2332.78</ele>
        <time>2016-10-31T12:29:16Z</time>
      </trkpt>
      <trkpt lat="45.22866" lon="6.03616">
        <ele>2334.22</ele>
        <time>2016-10-31T12:29:30Z</time>
      </trkpt>
      <trkpt lat="45.22871" lon="6.03617">
        <ele>2336.62</ele>
        <time>2016-10-31T12:29:47Z</time>
      </trkpt>
      <trkpt lat="45.22871" lon="6.03619">
        <ele>2337.1</ele>
        <time>2016-10-31T12:30:11Z</time>
      </trkpt>
      <trkpt lat="45.22872" lon="6.03619">
        <ele>2337.1</ele>
        <time>2016-10-31T12:30:36Z</time>
      </trkpt>
      <trkpt lat="45.22875" lon="6.0362">
        <ele>2338.06</ele>
        <time>2016-10-31T12:30:58Z</time>
      </trkpt>
      <trkpt lat="45.22877" lon="6.03621">
        <ele>2339.02</ele>
        <time>2016-10-31T12:31:19Z</time>
      </trkpt>
      <trkpt lat="45.2288" lon="6.03625">
        <ele>2340.47</ele>
        <time>2016-10-31T12:31:36Z</time>
      </trkpt>
      <trkpt lat="45.22883" lon="6.03629">
        <ele>2343.35</ele>
        <time>2016-10-31T12:31:52Z</time>
      </trkpt>
      <trkpt lat="45.22886" lon="6.03633">
        <ele>2345.27</ele>
        <time>2016-10-31T12:32:07Z</time>
      </trkpt>
      <trkpt lat="45.22888" lon="6.03631">
        <ele>2344.79</ele>
        <time>2016-10-31T12:32:40Z</time>
      </trkpt>
      <trkpt lat="45.22887" lon="6.03632">
        <ele>2344.79</ele>
        <time>2016-10-31T12:33:09Z</time>
      </trkpt>
      <trkpt lat="45.22886" lon="6.03633">
        <ele>2344.79</ele>
        <time>2016-10-31T12:33:54Z</time>
      </trkpt>
      <trkpt lat="45.22886" lon="6.03632">
        <ele>2344.79</ele>
        <time>2016-10-31T12:34:23Z</time>
      </trkpt>
      <trkpt lat="45.22886" lon="6.03632">
        <ele>2344.79</ele>
        <time>2016-10-31T12:34:51Z</time>
      </trkpt>
      <trkpt lat="45.22886" lon="6.03632">
        <ele>2344.79</ele>
        <time>2016-10-31T12:35:16Z</time>
      </trkpt>
      <trkpt lat="45.22886" lon="6.03635">
        <ele>2344.79</ele>
        <time>2016-10-31T12:35:52Z</time>
      </trkpt>
      <trkpt lat="45.22888" lon="6.03635">
        <ele>2344.79</ele>
        <time>2016-10-31T12:36:15Z</time>
      </trkpt>
      <trkpt lat="45.22887" lon="6.03635">
        <ele>2343.35</ele>
        <time>2016-10-31T12:36:44Z</time>
      </trkpt>
      <trkpt lat="45.22885" lon="6.03635">
        <ele>2342.87</ele>
        <time>2016-10-31T12:37:24Z</time>
      </trkpt>
      <trkpt lat="45.22885" lon="6.03635">
        <ele>2342.87</ele>
        <time>2016-10-31T12:37:59Z</time>
      </trkpt>
      <trkpt lat="45.22887" lon="6.03638">
        <ele>2342.39</ele>
        <time>2016-10-31T12:38:20Z</time>
      </trkpt>
      <trkpt lat="45.22887" lon="6.03643">
        <ele>2339.51</ele>
        <time>2016-10-31T12:38:41Z</time>
      </trkpt>
      <trkpt lat="45.2289" lon="6.03644">
        <ele>2339.51</ele>
        <time>2016-10-31T12:39:04Z</time>
      </trkpt>
      <trkpt lat="45.2289" lon="6.03644">
        <ele>2339.51</ele>
        <time>2016-10-31T12:39:30Z</time>
      </trkpt>
      <trkpt lat="45.22891" lon="6.03643">
        <ele>2339.51</ele>
        <time>2016-10-31T12:39:52Z</time>
      </trkpt>
      <trkpt lat="45.22891" lon="6.03644">
        <ele>2339.51</ele>
        <time>2016-10-31T12:40:17Z</time>
      </trkpt>
      <trkpt lat="45.2289" lon="6.03644">
        <ele>2339.02</ele>
        <time>2016-10-31T12:40:51Z</time>
      </trkpt>
      <trkpt lat="45.2289" lon="6.03645">
        <ele>2339.02</ele>
        <time>2016-10-31T12:41:16Z</time>
      </trkpt>
      <trkpt lat="45.2289" lon="6.03644">
        <ele>2339.02</ele>
        <time>2016-10-31T12:41:36Z</time>
      </trkpt>
      <trkpt lat="45.2289" lon="6.03645">
        <ele>2338.54</ele>
        <time>2016-10-31T12:41:57Z</time>
      </trkpt>
      <trkpt lat="45.2289" lon="6.03646">
        <ele>2338.54</ele>
        <time>2016-10-31T12:42:17Z</time>
      </trkpt>
      <trkpt lat="45.2289" lon="6.03645">
        <ele>2338.54</ele>
        <time>2016-10-31T12:42:47Z</time>
      </trkpt>
      <trkpt lat="45.2289" lon="6.03644">
        <ele>2338.54</ele>
        <time>2016-10-31T12:43:23Z</time>
      </trkpt>
      <trkpt lat="45.2289" lon="6.03644">
        <ele>2338.54</ele>
        <time>2016-10-31T12:43:56Z</time>
      </trkpt>
      <trkpt lat="45.2289" lon="6.03644">
        <ele>2338.54</ele>
        <time>2016-10-31T12:44:33Z</time>
      </trkpt>
      <trkpt lat="45.22891" lon="6.03645">
        <ele>2338.54</ele>
        <time>2016-10-31T12:45:08Z</time>
      </trkpt>
      <trkpt lat="45.2289" lon="6.03645">
        <ele>2338.54</ele>
        <time>2016-10-31T12:45:47Z</time>
      </trkpt>
      <trkpt lat="45.22891" lon="6.03645">
        <ele>2339.02</ele>
        <time>2016-10-31T12:46:10Z</time>
      </trkpt>
      <trkpt lat="45.22891" lon="6.03644">
        <ele>2339.02</ele>
        <time>2016-10-31T12:46:37Z</time>
      </trkpt>
      <trkpt lat="45.2289" lon="6.03644">
        <ele>2339.02</ele>
        <time>2016-10-31T12:47:15Z</time>
      </trkpt>
      <trkpt lat="45.22891" lon="6.03645">
        <ele>2339.02</ele>
        <time>2016-10-31T12:47:51Z</time>
      </trkpt>
      <trkpt lat="45.22893" lon="6.03644">
        <ele>2339.02</ele>
        <time>2016-10-31T12:48:25Z</time>
      </trkpt>
      <trkpt lat="45.22892" lon="6.03646">
        <ele>2339.02</ele>
        <time>2016-10-31T12:48:53Z</time>
      </trkpt>
      <trkpt lat="45.22891" lon="6.03645">
        <ele>2339.02</ele>
        <time>2016-10-31T12:49:24Z</time>
      </trkpt>
      <trkpt lat="45.22893" lon="6.03645">
        <ele>2338.54</ele>
        <time>2016-10-31T12:49:53Z</time>
      </trkpt>
      <trkpt lat="45.22894" lon="6.03646">
        <ele>2338.54</ele>
        <time>2016-10-31T12:50:15Z</time>
      </trkpt>
      <trkpt lat="45.22893" lon="6.03645">
        <ele>2338.54</ele>
        <time>2016-10-31T12:50:39Z</time>
      </trkpt>
      <trkpt lat="45.22892" lon="6.03646">
        <ele>2338.54</ele>
        <time>2016-10-31T12:51:10Z</time>
      </trkpt>
      <trkpt lat="45.22894" lon="6.03644">
        <ele>2338.54</ele>
        <time>2016-10-31T12:51:40Z</time>
      </trkpt>
      <trkpt lat="45.22893" lon="6.03644">
        <ele>2338.54</ele>
        <time>2016-10-31T12:52:04Z</time>
      </trkpt>
      <trkpt lat="45.22893" lon="6.03644">
        <ele>2337.58</ele>
        <time>2016-10-31T12:52:20Z</time>
      </trkpt>
      <trkpt lat="45.22895" lon="6.03645">
        <ele>2335.18</ele>
        <time>2016-10-31T12:52:43Z</time>
      </trkpt>
      <trkpt lat="45.22895" lon="6.03646">
        <ele>2333.26</ele>
        <time>2016-10-31T12:52:55Z</time>
      </trkpt>
      <trkpt lat="45.22896" lon="6.03646">
        <ele>2331.81</ele>
        <time>2016-10-31T12:52:56Z</time>
      </trkpt>
      <trkpt lat="45.229" lon="6.03647">
        <ele>2328.45</ele>
        <time>2016-10-31T12:53:04Z</time>
      </trkpt>
      <trkpt lat="45.229" lon="6.03648">
        <ele>2325.57</ele>
        <time>2016-10-31T12:53:22Z</time>
      </trkpt>
      <trkpt lat="45.22902" lon="6.03649">
        <ele>2323.16</ele>
        <time>2016-10-31T12:53:32Z</time>
      </trkpt>
      <trkpt lat="45.22905" lon="6.03649">
        <ele>2319.8</ele>
        <time>2016-10-31T12:53:39Z</time>
      </trkpt>
      <trkpt lat="45.22906" lon="6.0365">
        <ele>2316.91</ele>
        <time>2016-10-31T12:53:55Z</time>
      </trkpt>
      <trkpt lat="45.22906" lon="6.03647">
        <ele>2314.99</ele>
        <time>2016-10-31T12:54:11Z</time>
      </trkpt>
      <trkpt lat="45.22905" lon="6.03646">
        <ele>2314.99</ele>
        <time>2016-10-31T12:54:13Z</time>
      </trkpt>
      <trkpt lat="45.22904" lon="6.03646">
        <ele>2314.51</ele>
        <time>2016-10-31T12:54:24Z</time>
      </trkpt>
      <trkpt lat="45.22909" lon="6.03648">
        <ele>2312.11</ele>
        <time>2016-10-31T12:54:39Z</time>
      </trkpt>
      <trkpt lat="45.2291" lon="6.03647">
        <ele>2311.15</ele>
        <time>2016-10-31T12:54:57Z</time>
      </trkpt>
      <trkpt lat="45.22916" lon="6.03646">
        <ele>2308.74</ele>
        <time>2016-10-31T12:55:13Z</time>
      </trkpt>
      <trkpt lat="45.22912" lon="6.03649">
        <ele>2307.78</ele>
        <time>2016-10-31T12:55:33Z</time>
      </trkpt>
      <trkpt lat="45.2291" lon="6.03649">
        <ele>2307.78</ele>
        <time>2016-10-31T12:55:56Z</time>
      </trkpt>
      <trkpt lat="45.2291" lon="6.03647">
        <ele>2307.78</ele>
        <time>2016-10-31T12:56:17Z</time>
      </trkpt>
      <trkpt lat="45.22911" lon="6.03648">
        <ele>2307.78</ele>
        <time>2016-10-31T12:56:36Z</time>
      </trkpt>
      <trkpt lat="45.22912" lon="6.03651">
        <ele>2307.78</ele>
        <time>2016-10-31T12:56:50Z</time>
      </trkpt>
      <trkpt lat="45.22913" lon="6.03648">
        <ele>2307.3</ele>
        <time>2016-10-31T12:57:19Z</time>
      </trkpt>
      <trkpt lat="45.22914" lon="6.03647">
        <ele>2307.3</ele>
        <time>2016-10-31T12:57:58Z</time>
      </trkpt>
      <trkpt lat="45.22916" lon="6.03648">
        <ele>2307.3</ele>
        <time>2016-10-31T12:58:48Z</time>
      </trkpt>
      <trkpt lat="45.22915" lon="6.03646">
        <ele>2307.3</ele>
        <time>2016-10-31T12:59:23Z</time>
      </trkpt>
      <trkpt lat="45.22917" lon="6.03648">
        <ele>2307.78</ele>
        <time>2016-10-31T12:59:56Z</time>
      </trkpt>
      <trkpt lat="45.22918" lon="6.03651">
        <ele>2307.78</ele>
        <time>2016-10-31T13:00:23Z</time>
      </trkpt>
      <trkpt lat="45.22915" lon="6.03648">
        <ele>2307.78</ele>
        <time>2016-10-31T13:00:57Z</time>
      </trkpt>
      <trkpt lat="45.2291" lon="6.03645">
        <ele>2307.78</ele>
        <time>2016-10-31T13:01:34Z</time>
      </trkpt>
      <trkpt lat="45.2291" lon="6.03644">
        <ele>2307.3</ele>
        <time>2016-10-31T13:01:55Z</time>
      </trkpt>
      <trkpt lat="45.22911" lon="6.03645">
        <ele>2307.3</ele>
        <time>2016-10-31T13:02:20Z</time>
      </trkpt>
      <trkpt lat="45.22915" lon="6.03644">
        <ele>2307.3</ele>
        <time>2016-10-31T13:02:40Z</time>
      </trkpt>
      <trkpt lat="45.22922" lon="6.03645">
        <ele>2307.3</ele>
        <time>2016-10-31T13:03:05Z</time>
      </trkpt>
      <trkpt lat="45.22928" lon="6.03646">
        <ele>2307.3</ele>
        <time>2016-10-31T13:03:26Z</time>
      </trkpt>
      <trkpt lat="45.22926" lon="6.03643">
        <ele>2307.3</ele>
        <time>2016-10-31T13:03:42Z</time>
      </trkpt>
      <trkpt lat="45.22929" lon="6.03644">
        <ele>2307.78</ele>
        <time>2016-10-31T13:04:03Z</time>
      </trkpt>
      <trkpt lat="45.22933" lon="6.03647">
        <ele>2307.78</ele>
        <time>2016-10-31T13:04:28Z</time>
      </trkpt>
      <trkpt lat="45.22933" lon="6.03647">
        <ele>2307.78</ele>
        <time>2016-10-31T13:04:49Z</time>
      </trkpt>
      <trkpt lat="45.22932" lon="6.03645">
        <ele>2307.78</ele>
        <time>2016-10-31T13:05:07Z</time>
      </trkpt>
      <trkpt lat="45.22935" lon="6.03649">
        <ele>2308.26</ele>
        <time>2016-10-31T13:05:27Z</time>
      </trkpt>
      <trkpt lat="45.2294" lon="6.03654">
        <ele>2308.26</ele>
        <time>2016-10-31T13:05:46Z</time>
      </trkpt>
      <trkpt lat="45.22938" lon="6.03648">
        <ele>2307.78</ele>
        <time>2016-10-31T13:06:04Z</time>
      </trkpt>
      <trkpt lat="45.22937" lon="6.03647">
        <ele>2308.26</ele>
        <time>2016-10-31T13:06:21Z</time>
      </trkpt>
      <trkpt lat="45.22932" lon="6.03647">
        <ele>2307.78</ele>
        <time>2016-10-31T13:06:40Z</time>
      </trkpt>
      <trkpt lat="45.22929" lon="6.03645">
        <ele>2308.26</ele>
        <time>2016-10-31T13:06:59Z</time>
      </trkpt>
      <trkpt lat="45.22925" lon="6.03641">
        <ele>2309.7</ele>
        <time>2016-10-31T13:07:14Z</time>
      </trkpt>
      <trkpt lat="45.22924" lon="6.03641">
        <ele>2309.7</ele>
        <time>2016-10-31T13:07:29Z</time>
      </trkpt>
      <trkpt lat="45.22921" lon="6.03646">
        <ele>2309.7</ele>
        <time>2016-10-31T13:07:55Z</time>
      </trkpt>
      <trkpt lat="45.22915" lon="6.03638">
        <ele>2309.7</ele>
        <time>2016-10-31T13:08:13Z</time>
      </trkpt>
      <trkpt lat="45.22914" lon="6.03638">
        <ele>2309.7</ele>
        <time>2016-10-31T13:08:38Z</time>
      </trkpt>
      <trkpt lat="45.22913" lon="6.0364">
        <ele>2309.7</ele>
        <time>2016-10-31T13:09:00Z</time>
      </trkpt>
      <trkpt lat="45.22915" lon="6.03644">
        <ele>2309.7</ele>
        <time>2016-10-31T13:09:20Z</time>
      </trkpt>
      <trkpt lat="45.22917" lon="6.03644">
        <ele>2309.7</ele>
        <time>2016-10-31T13:09:38Z</time>
      </trkpt>
      <trkpt lat="45.22926" lon="6.03648">
        <ele>2309.7</ele>
        <time>2016-10-31T13:09:59Z</time>
      </trkpt>
      <trkpt lat="45.22929" lon="6.0365">
        <ele>2309.7</ele>
        <time>2016-10-31T13:10:24Z</time>
      </trkpt>
      <trkpt lat="45.22927" lon="6.03648">
        <ele>2309.7</ele>
        <time>2016-10-31T13:10:46Z</time>
      </trkpt>
      <trkpt lat="45.2292" lon="6.03645">
        <ele>2309.7</ele>
        <time>2016-10-31T13:11:15Z</time>
      </trkpt>
      <trkpt lat="45.22921" lon="6.03648">
        <ele>2309.22</ele>
        <time>2016-10-31T13:11:33Z</time>
      </trkpt>
      <trkpt lat="45.2292" lon="6.0365">
        <ele>2310.67</ele>
        <time>2016-10-31T13:11:53Z</time>
      </trkpt>
      <trkpt lat="45.2292" lon="6.03651">
        <ele>2312.11</ele>
        <time>2016-10-31T13:12:15Z</time>
      </trkpt>
      <trkpt lat="45.2292" lon="6.03652">
        <ele>2314.99</ele>
        <time>2016-10-31T13:12:32Z</time>
      </trkpt>
      <trkpt lat="45.22923" lon="6.03655">
        <ele>2316.43</ele>
        <time>2016-10-31T13:12:52Z</time>
      </trkpt>
      <trkpt lat="45.22924" lon="6.03653">
        <ele>2318.84</ele>
        <time>2016-10-31T13:13:10Z</time>
      </trkpt>
      <trkpt lat="45.22926" lon="6.03653">
        <ele>2320.28</ele>
        <time>2016-10-31T13:13:32Z</time>
      </trkpt>
      <trkpt lat="45.22927" lon="6.03652">
        <ele>2321.72</ele>
        <time>2016-10-31T13:13:53Z</time>
      </trkpt>
      <trkpt lat="45.22927" lon="6.03653">
        <ele>2323.64</ele>
        <time>2016-10-31T13:14:18Z</time>
      </trkpt>
      <trkpt lat="45.22926" lon="6.03654">
        <ele>2324.12</ele>
        <time>2016-10-31T13:14:42Z</time>
      </trkpt>
      <trkpt lat="45.22928" lon="6.03657">
        <ele>2324.61</ele>
        <time>2016-10-31T13:15:06Z</time>
      </trkpt>
      <trkpt lat="45.22928" lon="6.03656">
        <ele>2325.09</ele>
        <time>2016-10-31T13:15:28Z</time>
      </trkpt>
      <trkpt lat="45.2293" lon="6.03658">
        <ele>2325.57</ele>
        <time>2016-10-31T13:15:48Z</time>
      </trkpt>
      <trkpt lat="45.22929" lon="6.03657">
        <ele>2324.61</ele>
        <time>2016-10-31T13:16:13Z</time>
      </trkpt>
      <trkpt lat="45.22927" lon="6.03657">
        <ele>2324.61</ele>
        <time>2016-10-31T13:16:34Z</time>
      </trkpt>
      <trkpt lat="45.2293" lon="6.03661">
        <ele>2324.12</ele>
        <time>2016-10-31T13:16:57Z</time>
      </trkpt>
      <trkpt lat="45.22931" lon="6.03661">
        <ele>2325.57</ele>
        <time>2016-10-31T13:17:01Z</time>
      </trkpt>
      <trkpt lat="45.22931" lon="6.03661">
        <ele>2326.53</ele>
        <time>2016-10-31T13:17:20Z</time>
      </trkpt>
      <trkpt lat="45.22932" lon="6.03661">
        <ele>2328.45</ele>
        <time>2016-10-31T13:17:36Z</time>
      </trkpt>
      <trkpt lat="45.22935" lon="6.03666">
        <ele>2331.81</ele>
        <time>2016-10-31T13:17:51Z</time>
      </trkpt>
      <trkpt lat="45.22938" lon="6.03668">
        <ele>2333.26</ele>
        <time>2016-10-31T13:18:05Z</time>
      </trkpt>
      <trkpt lat="45.2294" lon="6.03672">
        <ele>2336.14</ele>
        <time>2016-10-31T13:18:23Z</time>
      </trkpt>
      <trkpt lat="45.2294" lon="6.03678">
        <ele>2337.58</ele>
        <time>2016-10-31T13:18:42Z</time>
      </trkpt>
      <trkpt lat="45.22942" lon="6.03684">
        <ele>2338.06</ele>
        <time>2016-10-31T13:18:59Z</time>
      </trkpt>
      <trkpt lat="45.22944" lon="6.03685">
        <ele>2338.54</ele>
        <time>2016-10-31T13:19:21Z</time>
      </trkpt>
      <trkpt lat="45.22944" lon="6.03685">
        <ele>2339.02</ele>
        <time>2016-10-31T13:19:43Z</time>
      </trkpt>
      <trkpt lat="45.22943" lon="6.03686">
        <ele>2339.02</ele>
        <time>2016-10-31T13:20:15Z</time>
      </trkpt>
      <trkpt lat="45.22944" lon="6.03691">
        <ele>2339.51</ele>
        <time>2016-10-31T13:20:40Z</time>
      </trkpt>
      <trkpt lat="45.22946" lon="6.03691">
        <ele>2337.58</ele>
        <time>2016-10-31T13:21:02Z</time>
      </trkpt>
      <trkpt lat="45.22947" lon="6.03689">
        <ele>2337.58</ele>
        <time>2016-10-31T13:21:33Z</time>
      </trkpt>
      <trkpt lat="45.22946" lon="6.03688">
        <ele>2337.1</ele>
        <time>2016-10-31T13:21:52Z</time>
      </trkpt>
      <trkpt lat="45.22947" lon="6.0369">
        <ele>2337.1</ele>
        <time>2016-10-31T13:22:20Z</time>
      </trkpt>
      <trkpt lat="45.22947" lon="6.0369">
        <ele>2337.1</ele>
        <time>2016-10-31T13:22:46Z</time>
      </trkpt>
      <trkpt lat="45.22947" lon="6.03688">
        <ele>2337.1</ele>
        <time>2016-10-31T13:23:11Z</time>
      </trkpt>
      <trkpt lat="45.22948" lon="6.0369">
        <ele>2337.1</ele>
        <time>2016-10-31T13:23:44Z</time>
      </trkpt>
      <trkpt lat="45.22947" lon="6.03693">
        <ele>2337.1</ele>
        <time>2016-10-31T13:24:15Z</time>
      </trkpt>
      <trkpt lat="45.22946" lon="6.03695">
        <ele>2336.62</ele>
        <time>2016-10-31T13:24:34Z</time>
      </trkpt>
      <trkpt lat="45.22946" lon="6.03696">
        <ele>2336.62</ele>
        <time>2016-10-31T13:25:01Z</time>
      </trkpt>
      <trkpt lat="45.22947" lon="6.03694">
        <ele>2336.62</ele>
        <time>2016-10-31T13:25:21Z</time>
      </trkpt>
      <trkpt lat="45.22947" lon="6.03691">
        <ele>2335.66</ele>
        <time>2016-10-31T13:25:45Z</time>
      </trkpt>
      <trkpt lat="45.22948" lon="6.03691">
        <ele>2333.74</ele>
        <time>2016-10-31T13:26:04Z</time>
      </trkpt>
      <trkpt lat="45.22947" lon="6.03692">
        <ele>2333.26</ele>
        <time>2016-10-31T13:26:22Z</time>
      </trkpt>
      <trkpt lat="45.2295" lon="6.03693">
        <ele>2331.81</ele>
        <time>2016-10-31T13:26:46Z</time>
      </trkpt>
      <trkpt lat="45.22949" lon="6.03693">
        <ele>2330.37</ele>
        <time>2016-10-31T13:27:05Z</time>
      </trkpt>
      <trkpt lat="45.22949" lon="6.03692">
        <ele>2328.45</ele>
        <time>2016-10-31T13:27:26Z</time>
      </trkpt>
      <trkpt lat="45.22952" lon="6.0369">
        <ele>2327.97</ele>
        <time>2016-10-31T13:27:51Z</time>
      </trkpt>
      <trkpt lat="45.2295" lon="6.03689">
        <ele>2327.01</ele>
        <time>2016-10-31T13:28:15Z</time>
      </trkpt>
      <trkpt lat="45.22948" lon="6.03684">
        <ele>2326.05</ele>
        <time>2016-10-31T13:28:41Z</time>
      </trkpt>
      <trkpt lat="45.2295" lon="6.03688">
        <ele>2325.09</ele>
        <time>2016-10-31T13:29:03Z</time>
      </trkpt>
      <trkpt lat="45.22956" lon="6.03697">
        <ele>2324.12</ele>
        <time>2016-10-31T13:29:27Z</time>
      </trkpt>
      <trkpt lat="45.22957" lon="6.03695">
        <ele>2324.12</ele>
        <time>2016-10-31T13:29:51Z</time>
      </trkpt>
      <trkpt lat="45.2296" lon="6.03698">
        <ele>2323.64</ele>
        <time>2016-10-31T13:30:06Z</time>
      </trkpt>
      <trkpt lat="45.22959" lon="6.03696">
        <ele>2322.2</ele>
        <time>2016-10-31T13:30:25Z</time>
      </trkpt>
      <trkpt lat="45.22954" lon="6.03693">
        <ele>2320.76</ele>
        <time>2016-10-31T13:30:43Z</time>
      </trkpt>
      <trkpt lat="45.22969" lon="6.03694">
        <ele>2319.8</ele>
        <time>2016-10-31T13:31:05Z</time>
      </trkpt>
      <trkpt lat="45.22966" lon="6.03692">
        <ele>2319.32</ele>
        <time>2016-10-31T13:31:27Z</time>
      </trkpt>
      <trkpt lat="45.22971" lon="6.03698">
        <ele>2319.32</ele>
        <time>2016-10-31T13:31:55Z</time>
      </trkpt>
      <trkpt lat="45.22965" lon="6.03689">
        <ele>2318.84</ele>
        <time>2016-10-31T13:32:14Z</time>
      </trkpt>
      <trkpt lat="45.22972" lon="6.0369">
        <ele>2317.88</ele>
        <time>2016-10-31T13:32:35Z</time>
      </trkpt>
      <trkpt lat="45.22967" lon="6.03688">
        <ele>2317.88</ele>
        <time>2016-10-31T13:33:02Z</time>
      </trkpt>
      <trkpt lat="45.22965" lon="6.0369">
        <ele>2317.4</ele>
        <time>2016-10-31T13:33:32Z</time>
      </trkpt>
      <trkpt lat="45.22966" lon="6.03689">
        <ele>2316.91</ele>
        <time>2016-10-31T13:34:01Z</time>
      </trkpt>
      <trkpt lat="45.22966" lon="6.03686">
        <ele>2315.95</ele>
        <time>2016-10-31T13:34:26Z</time>
      </trkpt>
      <trkpt lat="45.22965" lon="6.03687">
        <ele>2314.51</ele>
        <time>2016-10-31T13:34:48Z</time>
      </trkpt>
      <trkpt lat="45.22966" lon="6.03685">
        <ele>2313.07</ele>
        <time>2016-10-31T13:35:16Z</time>
      </trkpt>
      <trkpt lat="45.22966" lon="6.03683">
        <ele>2313.07</ele>
        <time>2016-10-31T13:35:42Z</time>
      </trkpt>
      <trkpt lat="45.2297" lon="6.03682">
        <ele>2312.11</ele>
        <time>2016-10-31T13:36:08Z</time>
      </trkpt>
      <trkpt lat="45.22971" lon="6.03687">
        <ele>2310.67</ele>
        <time>2016-10-31T13:36:32Z</time>
      </trkpt>
      <trkpt lat="45.22976" lon="6.03686">
        <ele>2310.19</ele>
        <time>2016-10-31T13:36:57Z</time>
      </trkpt>
      <trkpt lat="45.22968" lon="6.03686">
        <ele>2309.7</ele>
        <time>2016-10-31T13:37:22Z</time>
      </trkpt>
      <trkpt lat="45.22967" lon="6.03689">
        <ele>2309.22</ele>
        <time>2016-10-31T13:37:48Z</time>
      </trkpt>
      <trkpt lat="45.22965" lon="6.03688">
        <ele>2307.78</ele>
        <time>2016-10-31T13:38:12Z</time>
      </trkpt>
      <trkpt lat="45.22966" lon="6.03686">
        <ele>2307.78</ele>
        <time>2016-10-31T13:38:35Z</time>
      </trkpt>
      <trkpt lat="45.22971" lon="6.03688">
        <ele>2307.78</ele>
        <time>2016-10-31T13:39:05Z</time>
      </trkpt>
      <trkpt lat="45.22976" lon="6.03689">
        <ele>2307.78</ele>
        <time>2016-10-31T13:39:32Z</time>
      </trkpt>
      <trkpt lat="45.22977" lon="6.03687">
        <ele>2307.78</ele>
        <time>2016-10-31T13:39:55Z</time>
      </trkpt>
      <trkpt lat="45.22973" lon="6.03685">
        <ele>2307.78</ele>
        <time>2016-10-31T13:40:27Z</time>
      </trkpt>
      <trkpt lat="45.22974" lon="6.03685">
        <ele>2307.78</ele>
        <time>2016-10-31T13:40:51Z</time>
      </trkpt>
      <trkpt lat="45.22967" lon="6.03682">
        <ele>2307.78</ele>
        <time>2016-10-31T13:41:23Z</time>
      </trkpt>
      <trkpt lat="45.22969" lon="6.03683">
        <ele>2307.78</ele>
        <time>2016-10-31T13:41:54Z</time>
      </trkpt>
      <trkpt lat="45.22975" lon="6.03686">
        <ele>2307.78</ele>
        <time>2016-10-31T13:42:20Z</time>
      </trkpt>
      <trkpt lat="45.22974" lon="6.03685">
        <ele>2307.78</ele>
        <time>2016-10-31T13:42:51Z</time>
      </trkpt>
      <trkpt lat="45.22974" lon="6.03684">
        <ele>2308.26</ele>
        <time>2016-10-31T13:43:21Z</time>
      </trkpt>
      <trkpt lat="45.22986" lon="6.03685">
        <ele>2308.26</ele>
        <time>2016-10-31T13:43:54Z</time>
      </trkpt>
      <trkpt lat="45.22981" lon="6.03687">
        <ele>2308.26</ele>
        <time>2016-10-31T13:44:35Z</time>
      </trkpt>
      <trkpt lat="45.22966" lon="6.03684">
        <ele>2307.78</ele>
        <time>2016-10-31T13:45:04Z</time>
      </trkpt>
      <trkpt lat="45.22965" lon="6.03681">
        <ele>2304.42</ele>
        <time>2016-10-31T13:45:20Z</time>
      </trkpt>
      <trkpt lat="45.22965" lon="6.03679">
        <ele>2301.53</ele>
        <time>2016-10-31T13:45:27Z</time>
      </trkpt>
      <trkpt lat="45.22965" lon="6.03679">
        <ele>2300.57</ele>
        <time>2016-10-31T13:45:29Z</time>
      </trkpt>
      <trkpt lat="45.22966" lon="6.03679">
        <ele>2298.65</ele>
        <time>2016-10-31T13:45:37Z</time>
      </trkpt>
      <trkpt lat="45.22967" lon="6.0368">
        <ele>2297.21</ele>
        <time>2016-10-31T13:45:54Z</time>
      </trkpt>
      <trkpt lat="45.22966" lon="6.03682">
        <ele>2295.77</ele>
        <time>2016-10-31T13:46:08Z</time>
      </trkpt>
      <trkpt lat="45.22966" lon="6.03682">
        <ele>2295.77</ele>
        <time>2016-10-31T13:46:09Z</time>
      </trkpt>
      <trkpt lat="45.22966" lon="6.03679">
        <ele>2293.84</ele>
        <time>2016-10-31T13:46:12Z</time>
      </trkpt>
      <trkpt lat="45.22966" lon="6.03685">
        <ele>2292.4</ele>
        <time>2016-10-31T13:46:27Z</time>
      </trkpt>
      <trkpt lat="45.22965" lon="6.03685">
        <ele>2290.96</ele>
        <time>2016-10-31T13:46:38Z</time>
      </trkpt>
      <trkpt lat="45.22966" lon="6.03678">
        <ele>2288.56</ele>
        <time>2016-10-31T13:46:55Z</time>
      </trkpt>
      <trkpt lat="45.2297" lon="6.03675">
        <ele>2287.59</ele>
        <time>2016-10-31T13:47:14Z</time>
      </trkpt>
      <trkpt lat="45.22973" lon="6.03675">
        <ele>2287.59</ele>
        <time>2016-10-31T13:47:40Z</time>
      </trkpt>
      <trkpt lat="45.22972" lon="6.03675">
        <ele>2287.11</ele>
        <time>2016-10-31T13:48:08Z</time>
      </trkpt>
      <trkpt lat="45.22974" lon="6.03675">
        <ele>2287.11</ele>
        <time>2016-10-31T13:48:39Z</time>
      </trkpt>
      <trkpt lat="45.22974" lon="6.03678">
        <ele>2286.63</ele>
        <time>2016-10-31T13:49:05Z</time>
      </trkpt>
      <trkpt lat="45.22976" lon="6.03678">
        <ele>2286.63</ele>
        <time>2016-10-31T13:49:37Z</time>
      </trkpt>
      <trkpt lat="45.22973" lon="6.03679">
        <ele>2286.63</ele>
        <time>2016-10-31T13:50:04Z</time>
      </trkpt>
      <trkpt lat="45.22975" lon="6.03676">
        <ele>2286.15</ele>
        <time>2016-10-31T13:50:38Z</time>
      </trkpt>
      <trkpt lat="45.22967" lon="6.0367">
        <ele>2286.15</ele>
        <time>2016-10-31T13:51:16Z</time>
      </trkpt>
      <trkpt lat="45.22969" lon="6.03671">
        <ele>2286.15</ele>
        <time>2016-10-31T13:51:48Z</time>
      </trkpt>
      <trkpt lat="45.22972" lon="6.03676">
        <ele>2286.15</ele>
        <time>2016-10-31T13:52:05Z</time>
      </trkpt>
      <trkpt lat="45.22972" lon="6.03678">
        <ele>2285.19</ele>
        <time>2016-10-31T13:52:26Z</time>
      </trkpt>
      <trkpt lat="45.22972" lon="6.03675">
        <ele>2285.19</ele>
        <time>2016-10-31T13:52:58Z</time>
      </trkpt>
      <trkpt lat="45.22973" lon="6.03677">
        <ele>2285.19</ele>
        <time>2016-10-31T13:53:35Z</time>
      </trkpt>
      <trkpt lat="45.22974" lon="6.03675">
        <ele>2285.19</ele>
        <time>2016-10-31T13:54:16Z</time>
      </trkpt>
      <trkpt lat="45.22974" lon="6.0367">
        <ele>2284.71</ele>
        <time>2016-10-31T13:54:49Z</time>
      </trkpt>
      <trkpt lat="45.22977" lon="6.03674">
        <ele>2287.59</ele>
        <time>2016-10-31T13:55:00Z</time>
      </trkpt>
      <trkpt lat="45.22978" lon="6.03674">
        <ele>2282.79</ele>
        <time>2016-10-31T13:55:01Z</time>
      </trkpt>
      <trkpt lat="45.22978" lon="6.03675">
        <ele>2286.15</ele>
        <time>2016-10-31T13:55:05Z</time>
      </trkpt>
      <trkpt lat="45.22974" lon="6.03672">
        <ele>2286.15</ele>
        <time>2016-10-31T13:55:22Z</time>
      </trkpt>
      <trkpt lat="45.22974" lon="6.03672">
        <ele>2283.75</ele>
        <time>2016-10-31T13:55:24Z</time>
      </trkpt>
      <trkpt lat="45.22976" lon="6.03672">
        <ele>2285.67</ele>
        <time>2016-10-31T13:55:31Z</time>
      </trkpt>
      <trkpt lat="45.22975" lon="6.03675">
        <ele>2283.75</ele>
        <time>2016-10-31T13:55:44Z</time>
      </trkpt>
      <trkpt lat="45.22973" lon="6.03674">
        <ele>2288.08</ele>
        <time>2016-10-31T13:55:47Z</time>
      </trkpt>
      <trkpt lat="45.22971" lon="6.03674">
        <ele>2282.31</ele>
        <time>2016-10-31T13:55:48Z</time>
      </trkpt>
      <trkpt lat="45.22971" lon="6.03674">
        <ele>2285.19</ele>
        <time>2016-10-31T13:55:49Z</time>
      </trkpt>
      <trkpt lat="45.22974" lon="6.03675">
        <ele>2283.75</ele>
        <time>2016-10-31T13:56:02Z</time>
      </trkpt>
      <trkpt lat="45.22977" lon="6.03674">
        <ele>2283.75</ele>
        <time>2016-10-31T13:56:09Z</time>
      </trkpt>
      <trkpt lat="45.22977" lon="6.03674">
        <ele>2287.11</ele>
        <time>2016-10-31T13:56:10Z</time>
      </trkpt>
      <trkpt lat="45.22977" lon="6.03673">
        <ele>2284.71</ele>
        <time>2016-10-31T13:56:11Z</time>
      </trkpt>
      <trkpt lat="45.22983" lon="6.03671">
        <ele>2288.08</ele>
        <time>2016-10-31T13:56:36Z</time>
      </trkpt>
      <trkpt lat="45.22983" lon="6.03671">
        <ele>2284.23</ele>
        <time>2016-10-31T13:56:37Z</time>
      </trkpt>
      <trkpt lat="45.22983" lon="6.03672">
        <ele>2284.23</ele>
        <time>2016-10-31T13:56:38Z</time>
      </trkpt>
      <trkpt lat="45.22976" lon="6.03675">
        <ele>2285.67</ele>
        <time>2016-10-31T13:56:53Z</time>
      </trkpt>
      <trkpt lat="45.22975" lon="6.03674">
        <ele>2289.04</ele>
        <time>2016-10-31T13:56:55Z</time>
      </trkpt>
      <trkpt lat="45.22975" lon="6.03674">
        <ele>2284.23</ele>
        <time>2016-10-31T13:56:56Z</time>
      </trkpt>
      <trkpt lat="45.22975" lon="6.03677">
        <ele>2286.15</ele>
        <time>2016-10-31T13:57:00Z</time>
      </trkpt>
      <trkpt lat="45.22975" lon="6.03678">
        <ele>2284.23</ele>
        <time>2016-10-31T13:57:37Z</time>
      </trkpt>
      <trkpt lat="45.2298" lon="6.03668">
        <ele>2284.23</ele>
        <time>2016-10-31T13:58:09Z</time>
      </trkpt>
      <trkpt lat="45.22971" lon="6.03664">
        <ele>2284.23</ele>
        <time>2016-10-31T13:58:50Z</time>
      </trkpt>
      <trkpt lat="45.22989" lon="6.03681">
        <ele>2284.23</ele>
        <time>2016-10-31T13:59:22Z</time>
      </trkpt>
      <trkpt lat="45.2299" lon="6.03672">
        <ele>2284.23</ele>
        <time>2016-10-31T13:59:48Z</time>
      </trkpt>
      <trkpt lat="45.22976" lon="6.0368">
        <ele>2283.75</ele>
        <time>2016-10-31T14:00:24Z</time>
      </trkpt>
      <trkpt lat="45.22982" lon="6.03633">
        <ele>2283.75</ele>
        <time>2016-10-31T14:00:53Z</time>
      </trkpt>
      <trkpt lat="45.22979" lon="6.03642">
        <ele>2283.75</ele>
        <time>2016-10-31T14:01:14Z</time>
      </trkpt>
      <trkpt lat="45.22973" lon="6.03631">
        <ele>2283.27</ele>
        <time>2016-10-31T14:01:44Z</time>
      </trkpt>
      <trkpt lat="45.2297" lon="6.03614">
        <ele>2284.71</ele>
        <time>2016-10-31T14:01:50Z</time>
      </trkpt>
      <trkpt lat="45.22966" lon="6.03637">
        <ele>2284.71</ele>
        <time>2016-10-31T14:02:08Z</time>
      </trkpt>
      <trkpt lat="45.22969" lon="6.03664">
        <ele>2284.71</ele>
        <time>2016-10-31T14:02:31Z</time>
      </trkpt>
      <trkpt lat="45.22969" lon="6.03661">
        <ele>2284.71</ele>
        <time>2016-10-31T14:02:54Z</time>
      </trkpt>
      <trkpt lat="45.22968" lon="6.03657">
        <ele>2284.23</ele>
        <time>2016-10-31T14:03:24Z</time>
      </trkpt>
      <trkpt lat="45.22978" lon="6.03658">
        <ele>2284.23</ele>
        <time>2016-10-31T14:04:03Z</time>
      </trkpt>
      <trkpt lat="45.2298" lon="6.03662">
        <ele>2284.23</ele>
        <time>2016-10-31T14:04:31Z</time>
      </trkpt>
      <trkpt lat="45.22982" lon="6.03668">
        <ele>2282.31</ele>
        <time>2016-10-31T14:04:40Z</time>
      </trkpt>
      <trkpt lat="45.22973" lon="6.03668">
        <ele>2281.83</ele>
        <time>2016-10-31T14:05:04Z</time>
      </trkpt>
      <trkpt lat="45.22967" lon="6.03658">
        <ele>2279.9</ele>
        <time>2016-10-31T14:05:25Z</time>
      </trkpt>
      <trkpt lat="45.22964" lon="6.03658">
        <ele>2276.54</ele>
        <time>2016-10-31T14:05:38Z</time>
      </trkpt>
      <trkpt lat="45.22962" lon="6.03654">
        <ele>2274.14</ele>
        <time>2016-10-31T14:05:55Z</time>
      </trkpt>
      <trkpt lat="45.22962" lon="6.0365">
        <ele>2271.25</ele>
        <time>2016-10-31T14:06:06Z</time>
      </trkpt>
      <trkpt lat="45.22963" lon="6.03648">
        <ele>2269.33</ele>
        <time>2016-10-31T14:06:15Z</time>
      </trkpt>
      <trkpt lat="45.22961" lon="6.03645">
        <ele>2266.45</ele>
        <time>2016-10-31T14:06:29Z</time>
      </trkpt>
      <trkpt lat="45.22962" lon="6.03636">
        <ele>2263.56</ele>
        <time>2016-10-31T14:06:44Z</time>
      </trkpt>
      <trkpt lat="45.22963" lon="6.03626">
        <ele>2260.68</ele>
        <time>2016-10-31T14:06:55Z</time>
      </trkpt>
      <trkpt lat="45.22963" lon="6.03626">
        <ele>2260.68</ele>
        <time>2016-10-31T14:06:56Z</time>
      </trkpt>
      <trkpt lat="45.2296" lon="6.0362">
        <ele>2257.79</ele>
        <time>2016-10-31T14:07:13Z</time>
      </trkpt>
      <trkpt lat="45.22961" lon="6.03616">
        <ele>2255.87</ele>
        <time>2016-10-31T14:07:22Z</time>
      </trkpt>
      <trkpt lat="45.22961" lon="6.0361">
        <ele>2254.43</ele>
        <time>2016-10-31T14:07:26Z</time>
      </trkpt>
      <trkpt lat="45.22959" lon="6.03599">
        <ele>2251.54</ele>
        <time>2016-10-31T14:07:38Z</time>
      </trkpt>
      <trkpt lat="45.22956" lon="6.03602">
        <ele>2248.18</ele>
        <time>2016-10-31T14:07:54Z</time>
      </trkpt>
      <trkpt lat="45.22955" lon="6.03595">
        <ele>2245.3</ele>
        <time>2016-10-31T14:08:12Z</time>
      </trkpt>
      <trkpt lat="45.2296" lon="6.03602">
        <ele>2242.89</ele>
        <time>2016-10-31T14:08:24Z</time>
      </trkpt>
      <trkpt lat="45.22966" lon="6.03599">
        <ele>2239.05</ele>
        <time>2016-10-31T14:08:37Z</time>
      </trkpt>
      <trkpt lat="45.22967" lon="6.03597">
        <ele>2238.09</ele>
        <time>2016-10-31T14:08:39Z</time>
      </trkpt>
      <trkpt lat="45.2297" lon="6.03591">
        <ele>2234.72</ele>
        <time>2016-10-31T14:08:46Z</time>
      </trkpt>
      <trkpt lat="45.22973" lon="6.03586">
        <ele>2232.8</ele>
        <time>2016-10-31T14:09:00Z</time>
      </trkpt>
      <trkpt lat="45.22977" lon="6.03584">
        <ele>2228.95</ele>
        <time>2016-10-31T14:09:16Z</time>
      </trkpt>
      <trkpt lat="45.22981" lon="6.0358">
        <ele>2226.07</ele>
        <time>2016-10-31T14:09:23Z</time>
      </trkpt>
      <trkpt lat="45.22984" lon="6.03574">
        <ele>2222.71</ele>
        <time>2016-10-31T14:09:31Z</time>
      </trkpt>
      <trkpt lat="45.22985" lon="6.03566">
        <ele>2219.82</ele>
        <time>2016-10-31T14:09:42Z</time>
      </trkpt>
      <trkpt lat="45.22985" lon="6.03558">
        <ele>2216.46</ele>
        <time>2016-10-31T14:09:50Z</time>
      </trkpt>
      <trkpt lat="45.22989" lon="6.03552">
        <ele>2213.57</ele>
        <time>2016-10-31T14:09:58Z</time>
      </trkpt>
      <trkpt lat="45.22989" lon="6.03552">
        <ele>2213.57</ele>
        <time>2016-10-31T14:09:59Z</time>
      </trkpt>
      <trkpt lat="45.22989" lon="6.03538">
        <ele>2210.69</ele>
        <time>2016-10-31T14:10:12Z</time>
      </trkpt>
      <trkpt lat="45.22992" lon="6.03537">
        <ele>2208.77</ele>
        <time>2016-10-31T14:10:28Z</time>
      </trkpt>
      <trkpt lat="45.22998" lon="6.03534">
        <ele>2207.81</ele>
        <time>2016-10-31T14:10:41Z</time>
      </trkpt>
      <trkpt lat="45.22999" lon="6.03529">
        <ele>2206.84</ele>
        <time>2016-10-31T14:10:59Z</time>
      </trkpt>
      <trkpt lat="45.23" lon="6.03518">
        <ele>2203.96</ele>
        <time>2016-10-31T14:11:11Z</time>
      </trkpt>
      <trkpt lat="45.23" lon="6.03504">
        <ele>2201.08</ele>
        <time>2016-10-31T14:11:25Z</time>
      </trkpt>
      <trkpt lat="45.22999" lon="6.03491">
        <ele>2198.19</ele>
        <time>2016-10-31T14:11:40Z</time>
      </trkpt>
      <trkpt lat="45.23002" lon="6.03482">
        <ele>2195.79</ele>
        <time>2016-10-31T14:11:54Z</time>
      </trkpt>
      <trkpt lat="45.23002" lon="6.0348">
        <ele>2195.79</ele>
        <time>2016-10-31T14:11:57Z</time>
      </trkpt>
      <trkpt lat="45.23005" lon="6.03471">
        <ele>2195.31</ele>
        <time>2016-10-31T14:12:11Z</time>
      </trkpt>
      <trkpt lat="45.23006" lon="6.03469">
        <ele>2197.23</ele>
        <time>2016-10-31T14:12:15Z</time>
      </trkpt>
      <trkpt lat="45.23008" lon="6.0346">
        <ele>2198.19</ele>
        <time>2016-10-31T14:12:30Z</time>
      </trkpt>
      <trkpt lat="45.23006" lon="6.03445">
        <ele>2198.67</ele>
        <time>2016-10-31T14:12:44Z</time>
      </trkpt>
      <trkpt lat="45.23004" lon="6.03431">
        <ele>2198.67</ele>
        <time>2016-10-31T14:12:59Z</time>
      </trkpt>
      <trkpt lat="45.23001" lon="6.03419">
        <ele>2196.75</ele>
        <time>2016-10-31T14:13:14Z</time>
      </trkpt>
      <trkpt lat="45.22998" lon="6.03408">
        <ele>2198.19</ele>
        <time>2016-10-31T14:13:30Z</time>
      </trkpt>
      <trkpt lat="45.22999" lon="6.0339">
        <ele>2200.11</ele>
        <time>2016-10-31T14:13:48Z</time>
      </trkpt>
      <trkpt lat="45.23001" lon="6.03383">
        <ele>2200.11</ele>
        <time>2016-10-31T14:14:10Z</time>
      </trkpt>
      <trkpt lat="45.23" lon="6.03366">
        <ele>2200.11</ele>
        <time>2016-10-31T14:14:23Z</time>
      </trkpt>
      <trkpt lat="45.22998" lon="6.03358">
        <ele>2197.23</ele>
        <time>2016-10-31T14:14:29Z</time>
      </trkpt>
      <trkpt lat="45.22997" lon="6.03353">
        <ele>2196.75</ele>
        <time>2016-10-31T14:14:32Z</time>
      </trkpt>
      <trkpt lat="45.22996" lon="6.0335">
        <ele>2197.23</ele>
        <time>2016-10-31T14:14:34Z</time>
      </trkpt>
      <trkpt lat="45.22989" lon="6.03333">
        <ele>2196.27</ele>
        <time>2016-10-31T14:14:50Z</time>
      </trkpt>
      <trkpt lat="45.22983" lon="6.03316">
        <ele>2193.39</ele>
        <time>2016-10-31T14:15:04Z</time>
      </trkpt>
      <trkpt lat="45.2298" lon="6.03303">
        <ele>2190.02</ele>
        <time>2016-10-31T14:15:15Z</time>
      </trkpt>
      <trkpt lat="45.22978" lon="6.03293">
        <ele>2187.14</ele>
        <time>2016-10-31T14:15:28Z</time>
      </trkpt>
      <trkpt lat="45.22975" lon="6.03287">
        <ele>2183.77</ele>
        <time>2016-10-31T14:15:39Z</time>
      </trkpt>
      <trkpt lat="45.22969" lon="6.03282">
        <ele>2180.41</ele>
        <time>2016-10-31T14:15:50Z</time>
      </trkpt>
      <trkpt lat="45.22967" lon="6.0328">
        <ele>2177.04</ele>
        <time>2016-10-31T14:16:02Z</time>
      </trkpt>
      <trkpt lat="45.22963" lon="6.03279">
        <ele>2173.68</ele>
        <time>2016-10-31T14:16:12Z</time>
      </trkpt>
      <trkpt lat="45.22962" lon="6.03274">
        <ele>2170.31</ele>
        <time>2016-10-31T14:16:22Z</time>
      </trkpt>
      <trkpt lat="45.22957" lon="6.03261">
        <ele>2166.95</ele>
        <time>2016-10-31T14:16:35Z</time>
      </trkpt>
      <trkpt lat="45.22956" lon="6.03244">
        <ele>2164.55</ele>
        <time>2016-10-31T14:16:51Z</time>
      </trkpt>
      <trkpt lat="45.22959" lon="6.03234">
        <ele>2161.18</ele>
        <time>2016-10-31T14:17:03Z</time>
      </trkpt>
      <trkpt lat="45.22958" lon="6.03226">
        <ele>2158.3</ele>
        <time>2016-10-31T14:17:12Z</time>
      </trkpt>
      <trkpt lat="45.22954" lon="6.03221">
        <ele>2154.93</ele>
        <time>2016-10-31T14:17:25Z</time>
      </trkpt>
      <trkpt lat="45.22954" lon="6.03215">
        <ele>2152.05</ele>
        <time>2016-10-31T14:17:35Z</time>
      </trkpt>
      <trkpt lat="45.22951" lon="6.03211">
        <ele>2150.13</ele>
        <time>2016-10-31T14:17:49Z</time>
      </trkpt>
      <trkpt lat="45.2295" lon="6.03204">
        <ele>2147.24</ele>
        <time>2016-10-31T14:18:04Z</time>
      </trkpt>
      <trkpt lat="45.22946" lon="6.032">
        <ele>2143.88</ele>
        <time>2016-10-31T14:18:13Z</time>
      </trkpt>
      <trkpt lat="45.22942" lon="6.03199">
        <ele>2141.95</ele>
        <time>2016-10-31T14:18:19Z</time>
      </trkpt>
      <trkpt lat="45.2294" lon="6.03197">
        <ele>2138.59</ele>
        <time>2016-10-31T14:18:29Z</time>
      </trkpt>
      <trkpt lat="45.2294" lon="6.03193">
        <ele>2135.71</ele>
        <time>2016-10-31T14:18:41Z</time>
      </trkpt>
      <trkpt lat="45.22937" lon="6.03186">
        <ele>2132.82</ele>
        <time>2016-10-31T14:18:54Z</time>
      </trkpt>
      <trkpt lat="45.22939" lon="6.03181">
        <ele>2129.46</ele>
        <time>2016-10-31T14:19:04Z</time>
      </trkpt>
      <trkpt lat="45.2294" lon="6.03175">
        <ele>2127.53</ele>
        <time>2016-10-31T14:19:10Z</time>
      </trkpt>
      <trkpt lat="45.22942" lon="6.0317">
        <ele>2125.61</ele>
        <time>2016-10-31T14:19:15Z</time>
      </trkpt>
      <trkpt lat="45.22944" lon="6.03164">
        <ele>2122.25</ele>
        <time>2016-10-31T14:19:24Z</time>
      </trkpt>
      <trkpt lat="45.22943" lon="6.03161">
        <ele>2120.32</ele>
        <time>2016-10-31T14:19:28Z</time>
      </trkpt>
      <trkpt lat="45.22941" lon="6.03158">
        <ele>2118.88</ele>
        <time>2016-10-31T14:19:31Z</time>
      </trkpt>
      <trkpt lat="45.22938" lon="6.03157">
        <ele>2115.52</ele>
        <time>2016-10-31T14:19:37Z</time>
      </trkpt>
      <trkpt lat="45.22937" lon="6.03162">
        <ele>2114.56</ele>
        <time>2016-10-31T14:19:55Z</time>
      </trkpt>
      <trkpt lat="45.2294" lon="6.03147">
        <ele>2112.15</ele>
        <time>2016-10-31T14:20:11Z</time>
      </trkpt>
      <trkpt lat="45.22939" lon="6.03144">
        <ele>2110.71</ele>
        <time>2016-10-31T14:20:14Z</time>
      </trkpt>
      <trkpt lat="45.22942" lon="6.03138">
        <ele>2108.31</ele>
        <time>2016-10-31T14:20:19Z</time>
      </trkpt>
      <trkpt lat="45.22945" lon="6.03135">
        <ele>2105.42</ele>
        <time>2016-10-31T14:20:23Z</time>
      </trkpt>
      <trkpt lat="45.22944" lon="6.03125">
        <ele>2102.06</ele>
        <time>2016-10-31T14:20:34Z</time>
      </trkpt>
      <trkpt lat="45.22943" lon="6.03118">
        <ele>2098.7</ele>
        <time>2016-10-31T14:20:42Z</time>
      </trkpt>
      <trkpt lat="45.22945" lon="6.03112">
        <ele>2096.77</ele>
        <time>2016-10-31T14:20:52Z</time>
      </trkpt>
      <trkpt lat="45.22948" lon="6.03109">
        <ele>2094.85</ele>
        <time>2016-10-31T14:20:55Z</time>
      </trkpt>
      <trkpt lat="45.2296" lon="6.03106">
        <ele>2095.81</ele>
        <time>2016-10-31T14:21:08Z</time>
      </trkpt>
      <trkpt lat="45.22968" lon="6.03101">
        <ele>2094.37</ele>
        <time>2016-10-31T14:21:16Z</time>
      </trkpt>
      <trkpt lat="45.22981" lon="6.03095">
        <ele>2093.89</ele>
        <time>2016-10-31T14:21:31Z</time>
      </trkpt>
      <trkpt lat="45.22996" lon="6.0308">
        <ele>2093.89</ele>
        <time>2016-10-31T14:21:48Z</time>
      </trkpt>
      <trkpt lat="45.23008" lon="6.03068">
        <ele>2094.85</ele>
        <time>2016-10-31T14:22:04Z</time>
      </trkpt>
      <trkpt lat="45.23018" lon="6.03055">
        <ele>2093.41</ele>
        <time>2016-10-31T14:22:19Z</time>
      </trkpt>
      <trkpt lat="45.23021" lon="6.03052">
        <ele>2091.97</ele>
        <time>2016-10-31T14:22:23Z</time>
      </trkpt>
      <trkpt lat="45.23031" lon="6.03045">
        <ele>2091.49</ele>
        <time>2016-10-31T14:22:36Z</time>
      </trkpt>
      <trkpt lat="45.23041" lon="6.03035">
        <ele>2092.45</ele>
        <time>2016-10-31T14:22:51Z</time>
      </trkpt>
      <trkpt lat="45.23044" lon="6.03032">
        <ele>2092.45</ele>
        <time>2016-10-31T14:22:54Z</time>
      </trkpt>
      <trkpt lat="45.2305" lon="6.03023">
        <ele>2088.6</ele>
        <time>2016-10-31T14:23:06Z</time>
      </trkpt>
      <trkpt lat="45.23059" lon="6.03008">
        <ele>2086.68</ele>
        <time>2016-10-31T14:23:19Z</time>
      </trkpt>
      <trkpt lat="45.23059" lon="6.02981">
        <ele>2083.79</ele>
        <time>2016-10-31T14:23:34Z</time>
      </trkpt>
      <trkpt lat="45.23061" lon="6.02987">
        <ele>2083.79</ele>
        <time>2016-10-31T14:23:50Z</time>
      </trkpt>
      <trkpt lat="45.23057" lon="6.02975">
        <ele>2083.79</ele>
        <time>2016-10-31T14:24:06Z</time>
      </trkpt>
      <trkpt lat="45.23056" lon="6.02971">
        <ele>2083.31</ele>
        <time>2016-10-31T14:24:12Z</time>
      </trkpt>
      <trkpt lat="45.23055" lon="6.02959">
        <ele>2082.35</ele>
        <time>2016-10-31T14:24:25Z</time>
      </trkpt>
      <trkpt lat="45.23049" lon="6.02943">
        <ele>2083.79</ele>
        <time>2016-10-31T14:24:41Z</time>
      </trkpt>
      <trkpt lat="45.23047" lon="6.02936">
        <ele>2082.35</ele>
        <time>2016-10-31T14:24:48Z</time>
      </trkpt>
      <trkpt lat="45.23045" lon="6.02924">
        <ele>2081.39</ele>
        <time>2016-10-31T14:25:01Z</time>
      </trkpt>
      <trkpt lat="45.23038" lon="6.02927">
        <ele>2079.47</ele>
        <time>2016-10-31T14:25:15Z</time>
      </trkpt>
      <trkpt lat="45.23033" lon="6.02919">
        <ele>2078.03</ele>
        <time>2016-10-31T14:25:29Z</time>
      </trkpt>
      <trkpt lat="45.23033" lon="6.0292">
        <ele>2076.59</ele>
        <time>2016-10-31T14:25:47Z</time>
      </trkpt>
      <trkpt lat="45.23033" lon="6.02921">
        <ele>2076.59</ele>
        <time>2016-10-31T14:26:41Z</time>
      </trkpt>
      <trkpt lat="45.23033" lon="6.02919">
        <ele>2076.1</ele>
        <time>2016-10-31T14:27:31Z</time>
      </trkpt>
      <trkpt lat="45.23032" lon="6.0292">
        <ele>2076.1</ele>
        <time>2016-10-31T14:28:06Z</time>
      </trkpt>
      <trkpt lat="45.23032" lon="6.02921">
        <ele>2075.62</ele>
        <time>2016-10-31T14:28:49Z</time>
      </trkpt>
      <trkpt lat="45.23033" lon="6.02923">
        <ele>2075.62</ele>
        <time>2016-10-31T14:29:37Z</time>
      </trkpt>
      <trkpt lat="45.23034" lon="6.02922">
        <ele>2075.62</ele>
        <time>2016-10-31T14:30:39Z</time>
      </trkpt>
      <trkpt lat="45.23032" lon="6.0292">
        <ele>2075.62</ele>
        <time>2016-10-31T14:31:31Z</time>
      </trkpt>
      <trkpt lat="45.23031" lon="6.02919">
        <ele>2077.07</ele>
        <time>2016-10-31T14:32:14Z</time>
      </trkpt>
      <trkpt lat="45.23031" lon="6.02917">
        <ele>2077.07</ele>
        <time>2016-10-31T14:32:35Z</time>
      </trkpt>
      <trkpt lat="45.23023" lon="6.02917">
        <ele>2077.07</ele>
        <time>2016-10-31T14:32:48Z</time>
      </trkpt>
      <trkpt lat="45.23013" lon="6.02917">
        <ele>2075.14</ele>
        <time>2016-10-31T14:32:58Z</time>
      </trkpt>
      <trkpt lat="45.23006" lon="6.02905">
        <ele>2073.22</ele>
        <time>2016-10-31T14:33:13Z</time>
      </trkpt>
      <trkpt lat="45.22999" lon="6.02889">
        <ele>2070.34</ele>
        <time>2016-10-31T14:33:29Z</time>
      </trkpt>
      <trkpt lat="45.22996" lon="6.02879">
        <ele>2066.97</ele>
        <time>2016-10-31T14:33:40Z</time>
      </trkpt>
      <trkpt lat="45.22994" lon="6.02868">
        <ele>2064.57</ele>
        <time>2016-10-31T14:33:57Z</time>
      </trkpt>
      <trkpt lat="45.22993" lon="6.02866">
        <ele>2064.57</ele>
        <time>2016-10-31T14:34:03Z</time>
      </trkpt>
      <trkpt lat="45.2299" lon="6.02855">
        <ele>2061.68</ele>
        <time>2016-10-31T14:34:23Z</time>
      </trkpt>
      <trkpt lat="45.22989" lon="6.02841">
        <ele>2059.76</ele>
        <time>2016-10-31T14:34:40Z</time>
      </trkpt>
      <trkpt lat="45.22988" lon="6.02828">
        <ele>2056.4</ele>
        <time>2016-10-31T14:34:53Z</time>
      </trkpt>
      <trkpt lat="45.22981" lon="6.02822">
        <ele>2053.03</ele>
        <time>2016-10-31T14:35:04Z</time>
      </trkpt>
      <trkpt lat="45.22977" lon="6.02811">
        <ele>2049.67</ele>
        <time>2016-10-31T14:35:17Z</time>
      </trkpt>
      <trkpt lat="45.22969" lon="6.02813">
        <ele>2045.82</ele>
        <time>2016-10-31T14:35:27Z</time>
      </trkpt>
      <trkpt lat="45.22964" lon="6.02815">
        <ele>2042.46</ele>
        <time>2016-10-31T14:35:39Z</time>
      </trkpt>
      <trkpt lat="45.22958" lon="6.0281">
        <ele>2039.57</ele>
        <time>2016-10-31T14:35:52Z</time>
      </trkpt>
      <trkpt lat="45.22953" lon="6.02805">
        <ele>2036.69</ele>
        <time>2016-10-31T14:36:04Z</time>
      </trkpt>
      <trkpt lat="45.22945" lon="6.02803">
        <ele>2032.84</ele>
        <time>2016-10-31T14:36:17Z</time>
      </trkpt>
      <trkpt lat="45.22946" lon="6.02803">
        <ele>2032.36</ele>
        <time>2016-10-31T14:36:35Z</time>
      </trkpt>
      <trkpt lat="45.22947" lon="6.02805">
        <ele>2032.36</ele>
        <time>2016-10-31T14:37:04Z</time>
      </trkpt>
      <trkpt lat="45.22939" lon="6.0281">
        <ele>2029</ele>
        <time>2016-10-31T14:37:16Z</time>
      </trkpt>
      <trkpt lat="45.22933" lon="6.02806">
        <ele>2026.12</ele>
        <time>2016-10-31T14:37:28Z</time>
      </trkpt>
      <trkpt lat="45.22928" lon="6.02813">
        <ele>2023.23</ele>
        <time>2016-10-31T14:37:44Z</time>
      </trkpt>
      <trkpt lat="45.22925" lon="6.02807">
        <ele>2021.79</ele>
        <time>2016-10-31T14:38:03Z</time>
      </trkpt>
      <trkpt lat="45.22922" lon="6.02806">
        <ele>2020.35</ele>
        <time>2016-10-31T14:38:24Z</time>
      </trkpt>
      <trkpt lat="45.22923" lon="6.02805">
        <ele>2019.87</ele>
        <time>2016-10-31T14:38:53Z</time>
      </trkpt>
      <trkpt lat="45.22919" lon="6.02801">
        <ele>2017.94</ele>
        <time>2016-10-31T14:39:23Z</time>
      </trkpt>
      <trkpt lat="45.22914" lon="6.028">
        <ele>2014.58</ele>
        <time>2016-10-31T14:39:39Z</time>
      </trkpt>
      <trkpt lat="45.22909" lon="6.02803">
        <ele>2012.18</ele>
        <time>2016-10-31T14:39:46Z</time>
      </trkpt>
      <trkpt lat="45.22907" lon="6.02802">
        <ele>2011.22</ele>
        <time>2016-10-31T14:39:49Z</time>
      </trkpt>
      <trkpt lat="45.22907" lon="6.02798">
        <ele>2009.77</ele>
        <time>2016-10-31T14:40:01Z</time>
      </trkpt>
      <trkpt lat="45.22902" lon="6.028">
        <ele>2005.93</ele>
        <time>2016-10-31T14:40:11Z</time>
      </trkpt>
      <trkpt lat="45.229" lon="6.02794">
        <ele>2004.97</ele>
        <time>2016-10-31T14:40:16Z</time>
      </trkpt>
      <trkpt lat="45.22898" lon="6.02792">
        <ele>2003.52</ele>
        <time>2016-10-31T14:40:19Z</time>
      </trkpt>
      <trkpt lat="45.22893" lon="6.02789">
        <ele>2000.64</ele>
        <time>2016-10-31T14:40:32Z</time>
      </trkpt>
      <trkpt lat="45.22892" lon="6.02778">
        <ele>1996.8</ele>
        <time>2016-10-31T14:40:42Z</time>
      </trkpt>
      <trkpt lat="45.22886" lon="6.02775">
        <ele>1994.39</ele>
        <time>2016-10-31T14:40:56Z</time>
      </trkpt>
      <trkpt lat="45.22885" lon="6.02777">
        <ele>1993.43</ele>
        <time>2016-10-31T14:40:58Z</time>
      </trkpt>
      <trkpt lat="45.22877" lon="6.02783">
        <ele>1990.07</ele>
        <time>2016-10-31T14:41:09Z</time>
      </trkpt>
      <trkpt lat="45.22874" lon="6.02775">
        <ele>1987.18</ele>
        <time>2016-10-31T14:41:18Z</time>
      </trkpt>
      <trkpt lat="45.22876" lon="6.02768">
        <ele>1984.3</ele>
        <time>2016-10-31T14:41:25Z</time>
      </trkpt>
      <trkpt lat="45.22873" lon="6.02759">
        <ele>1980.93</ele>
        <time>2016-10-31T14:41:35Z</time>
      </trkpt>
      <trkpt lat="45.22864" lon="6.02763">
        <ele>1977.09</ele>
        <time>2016-10-31T14:41:49Z</time>
      </trkpt>
      <trkpt lat="45.22864" lon="6.02752">
        <ele>1973.72</ele>
        <time>2016-10-31T14:42:01Z</time>
      </trkpt>
      <trkpt lat="45.22867" lon="6.02741">
        <ele>1970.36</ele>
        <time>2016-10-31T14:42:13Z</time>
      </trkpt>
      <trkpt lat="45.22862" lon="6.02736">
        <ele>1966.99</ele>
        <time>2016-10-31T14:42:23Z</time>
      </trkpt>
      <trkpt lat="45.22858" lon="6.02735">
        <ele>1965.07</ele>
        <time>2016-10-31T14:42:28Z</time>
      </trkpt>
      <trkpt lat="45.22849" lon="6.0274">
        <ele>1961.71</ele>
        <time>2016-10-31T14:42:40Z</time>
      </trkpt>
      <trkpt lat="45.22847" lon="6.02732">
        <ele>1958.34</ele>
        <time>2016-10-31T14:42:54Z</time>
      </trkpt>
      <trkpt lat="45.22847" lon="6.02724">
        <ele>1955.46</ele>
        <time>2016-10-31T14:43:05Z</time>
      </trkpt>
      <trkpt lat="45.22851" lon="6.02714">
        <ele>1952.09</ele>
        <time>2016-10-31T14:43:16Z</time>
      </trkpt>
      <trkpt lat="45.22853" lon="6.02703">
        <ele>1949.21</ele>
        <time>2016-10-31T14:43:30Z</time>
      </trkpt>
      <trkpt lat="45.22844" lon="6.02704">
        <ele>1946.33</ele>
        <time>2016-10-31T14:43:42Z</time>
      </trkpt>
      <trkpt lat="45.22843" lon="6.02694">
        <ele>1942.96</ele>
        <time>2016-10-31T14:43:53Z</time>
      </trkpt>
      <trkpt lat="45.22845" lon="6.02683">
        <ele>1940.08</ele>
        <time>2016-10-31T14:44:03Z</time>
      </trkpt>
      <trkpt lat="45.22847" lon="6.02674">
        <ele>1936.23</ele>
        <time>2016-10-31T14:44:16Z</time>
      </trkpt>
      <trkpt lat="45.22847" lon="6.02667">
        <ele>1934.79</ele>
        <time>2016-10-31T14:44:23Z</time>
      </trkpt>
      <trkpt lat="45.22845" lon="6.02662">
        <ele>1932.87</ele>
        <time>2016-10-31T14:44:27Z</time>
      </trkpt>
      <trkpt lat="45.22846" lon="6.02656">
        <ele>1931.43</ele>
        <time>2016-10-31T14:44:32Z</time>
      </trkpt>
      <trkpt lat="45.22846" lon="6.02629">
        <ele>1929.02</ele>
        <time>2016-10-31T14:44:49Z</time>
      </trkpt>
      <trkpt lat="45.22843" lon="6.02627">
        <ele>1928.54</ele>
        <time>2016-10-31T14:44:52Z</time>
      </trkpt>
      <trkpt lat="45.22837" lon="6.02625">
        <ele>1926.62</ele>
        <time>2016-10-31T14:44:57Z</time>
      </trkpt>
      <trkpt lat="45.22834" lon="6.02624">
        <ele>1925.18</ele>
        <time>2016-10-31T14:45:00Z</time>
      </trkpt>
      <trkpt lat="45.22832" lon="6.02622">
        <ele>1924.7</ele>
        <time>2016-10-31T14:45:02Z</time>
      </trkpt>
      <trkpt lat="45.22831" lon="6.02617">
        <ele>1924.22</ele>
        <time>2016-10-31T14:45:06Z</time>
      </trkpt>
      <trkpt lat="45.22824" lon="6.02611">
        <ele>1921.81</ele>
        <time>2016-10-31T14:45:12Z</time>
      </trkpt>
      <trkpt lat="45.22823" lon="6.02608">
        <ele>1921.81</ele>
        <time>2016-10-31T14:45:14Z</time>
      </trkpt>
      <trkpt lat="45.22815" lon="6.02593">
        <ele>1918.93</ele>
        <time>2016-10-31T14:45:26Z</time>
      </trkpt>
      <trkpt lat="45.2281" lon="6.02586">
        <ele>1917.97</ele>
        <time>2016-10-31T14:45:31Z</time>
      </trkpt>
      <trkpt lat="45.22802" lon="6.02565">
        <ele>1916.04</ele>
        <time>2016-10-31T14:45:46Z</time>
      </trkpt>
      <trkpt lat="45.22795" lon="6.02555">
        <ele>1915.08</ele>
        <time>2016-10-31T14:45:55Z</time>
      </trkpt>
      <trkpt lat="45.22792" lon="6.02554">
        <ele>1914.6</ele>
        <time>2016-10-31T14:45:57Z</time>
      </trkpt>
      <trkpt lat="45.22785" lon="6.02543">
        <ele>1912.68</ele>
        <time>2016-10-31T14:46:06Z</time>
      </trkpt>
      <trkpt lat="45.22768" lon="6.02531">
        <ele>1910.76</ele>
        <time>2016-10-31T14:46:21Z</time>
      </trkpt>
      <trkpt lat="45.22767" lon="6.0253">
        <ele>1909.8</ele>
        <time>2016-10-31T14:46:22Z</time>
      </trkpt>
      <trkpt lat="45.22765" lon="6.02528">
        <ele>1909.8</ele>
        <time>2016-10-31T14:46:24Z</time>
      </trkpt>
      <trkpt lat="45.22757" lon="6.0252">
        <ele>1908.83</ele>
        <time>2016-10-31T14:46:32Z</time>
      </trkpt>
      <trkpt lat="45.22752" lon="6.02518">
        <ele>1907.39</ele>
        <time>2016-10-31T14:46:36Z</time>
      </trkpt>
      <trkpt lat="45.22742" lon="6.0251">
        <ele>1904.03</ele>
        <time>2016-10-31T14:46:51Z</time>
      </trkpt>
      <trkpt lat="45.22734" lon="6.02513">
        <ele>1900.18</ele>
        <time>2016-10-31T14:47:03Z</time>
      </trkpt>
      <trkpt lat="45.22725" lon="6.02514">
        <ele>1897.78</ele>
        <time>2016-10-31T14:47:12Z</time>
      </trkpt>
      <trkpt lat="45.22715" lon="6.02509">
        <ele>1894.9</ele>
        <time>2016-10-31T14:47:23Z</time>
      </trkpt>
      <trkpt lat="45.2271" lon="6.02508">
        <ele>1893.93</ele>
        <time>2016-10-31T14:47:27Z</time>
      </trkpt>
      <trkpt lat="45.22707" lon="6.0251">
        <ele>1893.45</ele>
        <time>2016-10-31T14:47:30Z</time>
      </trkpt>
      <trkpt lat="45.22694" lon="6.02514">
        <ele>1889.61</ele>
        <time>2016-10-31T14:47:45Z</time>
      </trkpt>
      <trkpt lat="45.22683" lon="6.02513">
        <ele>1886.24</ele>
        <time>2016-10-31T14:47:57Z</time>
      </trkpt>
      <trkpt lat="45.22679" lon="6.02518">
        <ele>1884.8</ele>
        <time>2016-10-31T14:48:03Z</time>
      </trkpt>
      <trkpt lat="45.22677" lon="6.0252">
        <ele>1884.8</ele>
        <time>2016-10-31T14:48:05Z</time>
      </trkpt>
      <trkpt lat="45.2267" lon="6.02521">
        <ele>1882.88</ele>
        <time>2016-10-31T14:48:12Z</time>
      </trkpt>
      <trkpt lat="45.22663" lon="6.02515">
        <ele>1879.03</ele>
        <time>2016-10-31T14:48:23Z</time>
      </trkpt>
      <trkpt lat="45.22661" lon="6.02515">
        <ele>1878.55</ele>
        <time>2016-10-31T14:48:26Z</time>
      </trkpt>
      <trkpt lat="45.2266" lon="6.02513">
        <ele>1877.59</ele>
        <time>2016-10-31T14:48:28Z</time>
      </trkpt>
      <trkpt lat="45.22653" lon="6.02516">
        <ele>1875.67</ele>
        <time>2016-10-31T14:48:35Z</time>
      </trkpt>
      <trkpt lat="45.22641" lon="6.02521">
        <ele>1872.3</ele>
        <time>2016-10-31T14:48:46Z</time>
      </trkpt>
      <trkpt lat="45.22628" lon="6.0252">
        <ele>1868.46</ele>
        <time>2016-10-31T14:48:58Z</time>
      </trkpt>
      <trkpt lat="45.22626" lon="6.02519">
        <ele>1867.98</ele>
        <time>2016-10-31T14:49:00Z</time>
      </trkpt>
      <trkpt lat="45.22622" lon="6.02518">
        <ele>1866.06</ele>
        <time>2016-10-31T14:49:04Z</time>
      </trkpt>
      <trkpt lat="45.2262" lon="6.02516">
        <ele>1865.09</ele>
        <time>2016-10-31T14:49:06Z</time>
      </trkpt>
      <trkpt lat="45.22611" lon="6.02508">
        <ele>1861.73</ele>
        <time>2016-10-31T14:49:19Z</time>
      </trkpt>
      <trkpt lat="45.22609" lon="6.02506">
        <ele>1860.29</ele>
        <time>2016-10-31T14:49:22Z</time>
      </trkpt>
      <trkpt lat="45.22606" lon="6.02504">
        <ele>1859.33</ele>
        <time>2016-10-31T14:49:26Z</time>
      </trkpt>
      <trkpt lat="45.2259" lon="6.02504">
        <ele>1856.44</ele>
        <time>2016-10-31T14:49:39Z</time>
      </trkpt>
      <trkpt lat="45.22585" lon="6.02504">
        <ele>1855</ele>
        <time>2016-10-31T14:49:44Z</time>
      </trkpt>
      <trkpt lat="45.22571" lon="6.02502">
        <ele>1852.6</ele>
        <time>2016-10-31T14:49:56Z</time>
      </trkpt>
      <trkpt lat="45.22566" lon="6.02499">
        <ele>1852.12</ele>
        <time>2016-10-31T14:50:01Z</time>
      </trkpt>
      <trkpt lat="45.22561" lon="6.02499">
        <ele>1851.64</ele>
        <time>2016-10-31T14:50:05Z</time>
      </trkpt>
      <trkpt lat="45.22555" lon="6.02493">
        <ele>1850.68</ele>
        <time>2016-10-31T14:50:13Z</time>
      </trkpt>
      <trkpt lat="45.22546" lon="6.02484">
        <ele>1848.27</ele>
        <time>2016-10-31T14:50:23Z</time>
      </trkpt>
      <trkpt lat="45.22536" lon="6.0248">
        <ele>1844.91</ele>
        <time>2016-10-31T14:50:34Z</time>
      </trkpt>
      <trkpt lat="45.22533" lon="6.02478">
        <ele>1843.95</ele>
        <time>2016-10-31T14:50:40Z</time>
      </trkpt>
      <trkpt lat="45.22529" lon="6.02466">
        <ele>1841.54</ele>
        <time>2016-10-31T14:50:50Z</time>
      </trkpt>
      <trkpt lat="45.22511" lon="6.02451">
        <ele>1838.66</ele>
        <time>2016-10-31T14:51:07Z</time>
      </trkpt>
      <trkpt lat="45.22496" lon="6.02443">
        <ele>1837.22</ele>
        <time>2016-10-31T14:51:24Z</time>
      </trkpt>
      <trkpt lat="45.22485" lon="6.02437">
        <ele>1833.37</ele>
        <time>2016-10-31T14:51:37Z</time>
      </trkpt>
      <trkpt lat="45.22479" lon="6.02433">
        <ele>1830.49</ele>
        <time>2016-10-31T14:51:48Z</time>
      </trkpt>
      <trkpt lat="45.22478" lon="6.02427">
        <ele>1829.53</ele>
        <time>2016-10-31T14:51:53Z</time>
      </trkpt>
      <trkpt lat="45.22473" lon="6.02405">
        <ele>1826.64</ele>
        <time>2016-10-31T14:52:09Z</time>
      </trkpt>
      <trkpt lat="45.22469" lon="6.02414">
        <ele>1824.24</ele>
        <time>2016-10-31T14:52:23Z</time>
      </trkpt>
      <trkpt lat="45.22463" lon="6.02416">
        <ele>1820.87</ele>
        <time>2016-10-31T14:52:36Z</time>
      </trkpt>
      <trkpt lat="45.22459" lon="6.02406">
        <ele>1817.51</ele>
        <time>2016-10-31T14:52:47Z</time>
      </trkpt>
      <trkpt lat="45.22452" lon="6.02394">
        <ele>1814.15</ele>
        <time>2016-10-31T14:53:00Z</time>
      </trkpt>
      <trkpt lat="45.22448" lon="6.02399">
        <ele>1812.7</ele>
        <time>2016-10-31T14:53:09Z</time>
      </trkpt>
      <trkpt lat="45.22443" lon="6.02402">
        <ele>1810.78</ele>
        <time>2016-10-31T14:53:14Z</time>
      </trkpt>
      <trkpt lat="45.22437" lon="6.02393">
        <ele>1806.94</ele>
        <time>2016-10-31T14:53:28Z</time>
      </trkpt>
      <trkpt lat="45.22432" lon="6.0238">
        <ele>1804.05</ele>
        <time>2016-10-31T14:53:40Z</time>
      </trkpt>
      <trkpt lat="45.2243" lon="6.02375">
        <ele>1802.61</ele>
        <time>2016-10-31T14:53:44Z</time>
      </trkpt>
      <trkpt lat="45.22423" lon="6.02356">
        <ele>1798.76</ele>
        <time>2016-10-31T14:54:00Z</time>
      </trkpt>
      <trkpt lat="45.22418" lon="6.02338">
        <ele>1795.4</ele>
        <time>2016-10-31T14:54:14Z</time>
      </trkpt>
      <trkpt lat="45.22413" lon="6.02327">
        <ele>1793</ele>
        <time>2016-10-31T14:54:26Z</time>
      </trkpt>
      <trkpt lat="45.2241" lon="6.02318">
        <ele>1789.63</ele>
        <time>2016-10-31T14:54:38Z</time>
      </trkpt>
      <trkpt lat="45.22407" lon="6.02307">
        <ele>1786.27</ele>
        <time>2016-10-31T14:54:52Z</time>
      </trkpt>
      <trkpt lat="45.22405" lon="6.02293">
        <ele>1782.9</ele>
        <time>2016-10-31T14:55:04Z</time>
      </trkpt>
      <trkpt lat="45.224" lon="6.02284">
        <ele>1780.02</ele>
        <time>2016-10-31T14:55:16Z</time>
      </trkpt>
      <trkpt lat="45.22397" lon="6.02273">
        <ele>1776.17</ele>
        <time>2016-10-31T14:55:29Z</time>
      </trkpt>
      <trkpt lat="45.22395" lon="6.0226">
        <ele>1773.29</ele>
        <time>2016-10-31T14:55:40Z</time>
      </trkpt>
      <trkpt lat="45.22394" lon="6.02246">
        <ele>1770.41</ele>
        <time>2016-10-31T14:55:52Z</time>
      </trkpt>
      <trkpt lat="45.22392" lon="6.02231">
        <ele>1767.52</ele>
        <time>2016-10-31T14:56:02Z</time>
      </trkpt>
      <trkpt lat="45.22391" lon="6.0222">
        <ele>1766.08</ele>
        <time>2016-10-31T14:56:09Z</time>
      </trkpt>
      <trkpt lat="45.22389" lon="6.02205">
        <ele>1762.71</ele>
        <time>2016-10-31T14:56:21Z</time>
      </trkpt>
      <trkpt lat="45.22385" lon="6.02181">
        <ele>1759.83</ele>
        <time>2016-10-31T14:56:38Z</time>
      </trkpt>
      <trkpt lat="45.22385" lon="6.02176">
        <ele>1759.35</ele>
        <time>2016-10-31T14:56:42Z</time>
      </trkpt>
      <trkpt lat="45.22387" lon="6.0216">
        <ele>1757.43</ele>
        <time>2016-10-31T14:56:56Z</time>
      </trkpt>
      <trkpt lat="45.22385" lon="6.02143">
        <ele>1755.5</ele>
        <time>2016-10-31T14:57:10Z</time>
      </trkpt>
      <trkpt lat="45.22383" lon="6.0214">
        <ele>1753.58</ele>
        <time>2016-10-31T14:57:14Z</time>
      </trkpt>
      <trkpt lat="45.22377" lon="6.02129">
        <ele>1750.22</ele>
        <time>2016-10-31T14:57:26Z</time>
      </trkpt>
      <trkpt lat="45.22376" lon="6.02128">
        <ele>1749.74</ele>
        <time>2016-10-31T14:57:27Z</time>
      </trkpt>
      <trkpt lat="45.22373" lon="6.02118">
        <ele>1747.81</ele>
        <time>2016-10-31T14:57:35Z</time>
      </trkpt>
      <trkpt lat="45.22365" lon="6.02107">
        <ele>1744.45</ele>
        <time>2016-10-31T14:57:46Z</time>
      </trkpt>
      <trkpt lat="45.22364" lon="6.02105">
        <ele>1743.97</ele>
        <time>2016-10-31T14:57:48Z</time>
      </trkpt>
      <trkpt lat="45.22357" lon="6.02095">
        <ele>1743.49</ele>
        <time>2016-10-31T14:58:05Z</time>
      </trkpt>
      <trkpt lat="45.22356" lon="6.02098">
        <ele>1743.01</ele>
        <time>2016-10-31T14:58:35Z</time>
      </trkpt>
      <trkpt lat="45.22356" lon="6.0209">
        <ele>1742.53</ele>
        <time>2016-10-31T14:58:54Z</time>
      </trkpt>
      <trkpt lat="45.2236" lon="6.02082">
        <ele>1743.97</ele>
        <time>2016-10-31T14:59:10Z</time>
      </trkpt>
      <trkpt lat="45.22366" lon="6.02085">
        <ele>1744.45</ele>
        <time>2016-10-31T14:59:32Z</time>
      </trkpt>
      <trkpt lat="45.22361" lon="6.0208">
        <ele>1744.45</ele>
        <time>2016-10-31T15:00:00Z</time>
      </trkpt>
      <trkpt lat="45.22356" lon="6.02079">
        <ele>1744.45</ele>
        <time>2016-10-31T15:00:18Z</time>
      </trkpt>
      <trkpt lat="45.22354" lon="6.02084">
        <ele>1743.01</ele>
        <time>2016-10-31T15:00:27Z</time>
      </trkpt>
      <trkpt lat="45.22349" lon="6.02098">
        <ele>1741.08</ele>
        <time>2016-10-31T15:00:37Z</time>
      </trkpt>
      <trkpt lat="45.22347" lon="6.02113">
        <ele>1739.16</ele>
        <time>2016-10-31T15:00:49Z</time>
      </trkpt>
      <trkpt lat="45.22341" lon="6.02137">
        <ele>1737.72</ele>
        <time>2016-10-31T15:01:06Z</time>
      </trkpt>
      <trkpt lat="45.22333" lon="6.02151">
        <ele>1737.72</ele>
        <time>2016-10-31T15:01:18Z</time>
      </trkpt>
      <trkpt lat="45.22329" lon="6.02162">
        <ele>1737.72</ele>
        <time>2016-10-31T15:01:25Z</time>
      </trkpt>
      <trkpt lat="45.22316" lon="6.02171">
        <ele>1738.68</ele>
        <time>2016-10-31T15:01:37Z</time>
      </trkpt>
      <trkpt lat="45.22299" lon="6.0217">
        <ele>1739.64</ele>
        <time>2016-10-31T15:01:54Z</time>
      </trkpt>
      <trkpt lat="45.22287" lon="6.02172">
        <ele>1738.2</ele>
        <time>2016-10-31T15:02:06Z</time>
      </trkpt>
      <trkpt lat="45.22285" lon="6.02173">
        <ele>1737.72</ele>
        <time>2016-10-31T15:02:08Z</time>
      </trkpt>
      <trkpt lat="45.22263" lon="6.02173">
        <ele>1734.84</ele>
        <time>2016-10-31T15:02:25Z</time>
      </trkpt>
      <trkpt lat="45.22261" lon="6.02173">
        <ele>1734.84</ele>
        <time>2016-10-31T15:02:27Z</time>
      </trkpt>
      <trkpt lat="45.22257" lon="6.02174">
        <ele>1734.36</ele>
        <time>2016-10-31T15:02:30Z</time>
      </trkpt>
      <trkpt lat="45.22242" lon="6.0217">
        <ele>1732.43</ele>
        <time>2016-10-31T15:02:41Z</time>
      </trkpt>
      <trkpt lat="45.2224" lon="6.02166">
        <ele>1731.95</ele>
        <time>2016-10-31T15:02:44Z</time>
      </trkpt>
      <trkpt lat="45.22241" lon="6.02161">
        <ele>1731.47</ele>
        <time>2016-10-31T15:02:47Z</time>
      </trkpt>
      <trkpt lat="45.22245" lon="6.02134">
        <ele>1728.59</ele>
        <time>2016-10-31T15:03:04Z</time>
      </trkpt>
      <trkpt lat="45.22248" lon="6.02109">
        <ele>1727.63</ele>
        <time>2016-10-31T15:03:19Z</time>
      </trkpt>
      <trkpt lat="45.22249" lon="6.02094">
        <ele>1725.7</ele>
        <time>2016-10-31T15:03:36Z</time>
      </trkpt>
      <trkpt lat="45.22247" lon="6.02079">
        <ele>1722.82</ele>
        <time>2016-10-31T15:03:46Z</time>
      </trkpt>
      <trkpt lat="45.22248" lon="6.02067">
        <ele>1719.94</ele>
        <time>2016-10-31T15:03:55Z</time>
      </trkpt>
      <trkpt lat="45.2225" lon="6.02049">
        <ele>1716.09</ele>
        <time>2016-10-31T15:04:05Z</time>
      </trkpt>
      <trkpt lat="45.22251" lon="6.02046">
        <ele>1715.61</ele>
        <time>2016-10-31T15:04:07Z</time>
      </trkpt>
      <trkpt lat="45.2225" lon="6.02027">
        <ele>1712.25</ele>
        <time>2016-10-31T15:04:21Z</time>
      </trkpt>
      <trkpt lat="45.22249" lon="6.02018">
        <ele>1711.28</ele>
        <time>2016-10-31T15:04:26Z</time>
      </trkpt>
      <trkpt lat="45.22251" lon="6.02006">
        <ele>1708.88</ele>
        <time>2016-10-31T15:04:34Z</time>
      </trkpt>
      <trkpt lat="45.22248" lon="6.01982">
        <ele>1705.52</ele>
        <time>2016-10-31T15:04:48Z</time>
      </trkpt>
      <trkpt lat="45.22247" lon="6.01977">
        <ele>1705.04</ele>
        <time>2016-10-31T15:04:51Z</time>
      </trkpt>
      <trkpt lat="45.22245" lon="6.01966">
        <ele>1704.07</ele>
        <time>2016-10-31T15:04:58Z</time>
      </trkpt>
      <trkpt lat="45.22249" lon="6.01936">
        <ele>1703.59</ele>
        <time>2016-10-31T15:05:17Z</time>
      </trkpt>
      <trkpt lat="45.2225" lon="6.01933">
        <ele>1703.11</ele>
        <time>2016-10-31T15:05:20Z</time>
      </trkpt>
      <trkpt lat="45.22251" lon="6.01917">
        <ele>1701.67</ele>
        <time>2016-10-31T15:05:29Z</time>
      </trkpt>
      <trkpt lat="45.22248" lon="6.01882">
        <ele>1698.79</ele>
        <time>2016-10-31T15:05:48Z</time>
      </trkpt>
      <trkpt lat="45.22248" lon="6.01859">
        <ele>1696.86</ele>
        <time>2016-10-31T15:06:03Z</time>
      </trkpt>
      <trkpt lat="45.22248" lon="6.01842">
        <ele>1694.94</ele>
        <time>2016-10-31T15:06:13Z</time>
      </trkpt>
      <trkpt lat="45.22238" lon="6.01819">
        <ele>1691.58</ele>
        <time>2016-10-31T15:06:26Z</time>
      </trkpt>
      <trkpt lat="45.22237" lon="6.01814">
        <ele>1691.1</ele>
        <time>2016-10-31T15:06:29Z</time>
      </trkpt>
      <trkpt lat="45.22235" lon="6.01806">
        <ele>1689.65</ele>
        <time>2016-10-31T15:06:33Z</time>
      </trkpt>
      <trkpt lat="45.2223" lon="6.01798">
        <ele>1689.17</ele>
        <time>2016-10-31T15:06:52Z</time>
      </trkpt>
      <trkpt lat="45.22227" lon="6.01795">
        <ele>1689.17</ele>
        <time>2016-10-31T15:07:13Z</time>
      </trkpt>
      <trkpt lat="45.22223" lon="6.01791">
        <ele>1689.17</ele>
        <time>2016-10-31T15:07:17Z</time>
      </trkpt>
      <trkpt lat="45.22219" lon="6.01782">
        <ele>1687.25</ele>
        <time>2016-10-31T15:07:23Z</time>
      </trkpt>
      <trkpt lat="45.22226" lon="6.01763">
        <ele>1684.85</ele>
        <time>2016-10-31T15:07:38Z</time>
      </trkpt>
      <trkpt lat="45.22238" lon="6.01756">
        <ele>1682.44</ele>
        <time>2016-10-31T15:07:50Z</time>
      </trkpt>
      <trkpt lat="45.22253" lon="6.01756">
        <ele>1679.08</ele>
        <time>2016-10-31T15:08:04Z</time>
      </trkpt>
      <trkpt lat="45.2226" lon="6.01751">
        <ele>1678.6</ele>
        <time>2016-10-31T15:08:10Z</time>
      </trkpt>
      <trkpt lat="45.22263" lon="6.01718">
        <ele>1678.6</ele>
        <time>2016-10-31T15:08:29Z</time>
      </trkpt>
      <trkpt lat="45.22265" lon="6.01687">
        <ele>1678.6</ele>
        <time>2016-10-31T15:08:46Z</time>
      </trkpt>
      <trkpt lat="45.22266" lon="6.01671">
        <ele>1678.6</ele>
        <time>2016-10-31T15:08:56Z</time>
      </trkpt>
      <trkpt lat="45.22266" lon="6.01649">
        <ele>1680.52</ele>
        <time>2016-10-31T15:09:12Z</time>
      </trkpt>
      <trkpt lat="45.22266" lon="6.01633">
        <ele>1681.48</ele>
        <time>2016-10-31T15:09:23Z</time>
      </trkpt>
      <trkpt lat="45.22263" lon="6.01627">
        <ele>1681.96</ele>
        <time>2016-10-31T15:09:29Z</time>
      </trkpt>
      <trkpt lat="45.2226" lon="6.01602">
        <ele>1681.96</ele>
        <time>2016-10-31T15:09:45Z</time>
      </trkpt>
      <trkpt lat="45.22254" lon="6.01578">
        <ele>1681.96</ele>
        <time>2016-10-31T15:10:01Z</time>
      </trkpt>
      <trkpt lat="45.22254" lon="6.01568">
        <ele>1680.52</ele>
        <time>2016-10-31T15:10:06Z</time>
      </trkpt>
      <trkpt lat="45.22255" lon="6.01566">
        <ele>1680.52</ele>
        <time>2016-10-31T15:10:07Z</time>
      </trkpt>
      <trkpt lat="45.22251" lon="6.01545">
        <ele>1680.52</ele>
        <time>2016-10-31T15:10:19Z</time>
      </trkpt>
      <trkpt lat="45.22246" lon="6.01521">
        <ele>1680.04</ele>
        <time>2016-10-31T15:10:35Z</time>
      </trkpt>
      <trkpt lat="45.22246" lon="6.01517">
        <ele>1680.04</ele>
        <time>2016-10-31T15:10:37Z</time>
      </trkpt>
      <trkpt lat="45.22244" lon="6.01495">
        <ele>1679.56</ele>
        <time>2016-10-31T15:10:51Z</time>
      </trkpt>
      <trkpt lat="45.22241" lon="6.01478">
        <ele>1678.6</ele>
        <time>2016-10-31T15:11:00Z</time>
      </trkpt>
      <trkpt lat="45.2224" lon="6.01473">
        <ele>1678.12</ele>
        <time>2016-10-31T15:11:03Z</time>
      </trkpt>
      <trkpt lat="45.22239" lon="6.01469">
        <ele>1677.64</ele>
        <time>2016-10-31T15:11:05Z</time>
      </trkpt>
      <trkpt lat="45.22231" lon="6.0144">
        <ele>1676.68</ele>
        <time>2016-10-31T15:11:21Z</time>
      </trkpt>
      <trkpt lat="45.22234" lon="6.01424">
        <ele>1673.31</ele>
        <time>2016-10-31T15:11:34Z</time>
      </trkpt>
      <trkpt lat="45.22239" lon="6.01403">
        <ele>1669.95</ele>
        <time>2016-10-31T15:11:48Z</time>
      </trkpt>
      <trkpt lat="45.22254" lon="6.01376">
        <ele>1667.54</ele>
        <time>2016-10-31T15:12:06Z</time>
      </trkpt>
      <trkpt lat="45.22263" lon="6.01372">
        <ele>1664.66</ele>
        <time>2016-10-31T15:12:17Z</time>
      </trkpt>
      <trkpt lat="45.22273" lon="6.01359">
        <ele>1662.26</ele>
        <time>2016-10-31T15:12:29Z</time>
      </trkpt>
      <trkpt lat="45.22277" lon="6.01336">
        <ele>1659.37</ele>
        <time>2016-10-31T15:12:44Z</time>
      </trkpt>
      <trkpt lat="45.2228" lon="6.01322">
        <ele>1657.45</ele>
        <time>2016-10-31T15:12:54Z</time>
      </trkpt>
      <trkpt lat="45.22283" lon="6.01313">
        <ele>1655.53</ele>
        <time>2016-10-31T15:12:59Z</time>
      </trkpt>
      <trkpt lat="45.22281" lon="6.01302">
        <ele>1653.12</ele>
        <time>2016-10-31T15:13:14Z</time>
      </trkpt>
      <trkpt lat="45.2228" lon="6.01301">
        <ele>1652.64</ele>
        <time>2016-10-31T15:13:15Z</time>
      </trkpt>
      <trkpt lat="45.22274" lon="6.01302">
        <ele>1651.2</ele>
        <time>2016-10-31T15:13:23Z</time>
      </trkpt>
      <trkpt lat="45.22267" lon="6.01303">
        <ele>1649.76</ele>
        <time>2016-10-31T15:13:29Z</time>
      </trkpt>
      <trkpt lat="45.22264" lon="6.01304">
        <ele>1649.28</ele>
        <time>2016-10-31T15:13:31Z</time>
      </trkpt>
      <trkpt lat="45.22251" lon="6.01302">
        <ele>1645.91</ele>
        <time>2016-10-31T15:13:43Z</time>
      </trkpt>
      <trkpt lat="45.22239" lon="6.01297">
        <ele>1643.03</ele>
        <time>2016-10-31T15:13:54Z</time>
      </trkpt>
      <trkpt lat="45.22231" lon="6.01286">
        <ele>1639.19</ele>
        <time>2016-10-31T15:14:08Z</time>
      </trkpt>
      <trkpt lat="45.22231" lon="6.01281">
        <ele>1638.22</ele>
        <time>2016-10-31T15:14:15Z</time>
      </trkpt>
      <trkpt lat="45.22233" lon="6.01266">
        <ele>1634.38</ele>
        <time>2016-10-31T15:14:29Z</time>
      </trkpt>
      <trkpt lat="45.22238" lon="6.01247">
        <ele>1631.01</ele>
        <time>2016-10-31T15:14:40Z</time>
      </trkpt>
      <trkpt lat="45.22243" lon="6.0123">
        <ele>1628.13</ele>
        <time>2016-10-31T15:14:53Z</time>
      </trkpt>
      <trkpt lat="45.22242" lon="6.01221">
        <ele>1624.77</ele>
        <time>2016-10-31T15:15:00Z</time>
      </trkpt>
      <trkpt lat="45.2224" lon="6.01214">
        <ele>1621.4</ele>
        <time>2016-10-31T15:15:07Z</time>
      </trkpt>
      <trkpt lat="45.2224" lon="6.0121">
        <ele>1620.44</ele>
        <time>2016-10-31T15:15:10Z</time>
      </trkpt>
      <trkpt lat="45.22241" lon="6.01207">
        <ele>1619.48</ele>
        <time>2016-10-31T15:15:12Z</time>
      </trkpt>
      <trkpt lat="45.22242" lon="6.01187">
        <ele>1615.63</ele>
        <time>2016-10-31T15:15:24Z</time>
      </trkpt>
      <trkpt lat="45.22237" lon="6.0116">
        <ele>1612.75</ele>
        <time>2016-10-31T15:15:39Z</time>
      </trkpt>
      <trkpt lat="45.22237" lon="6.01158">
        <ele>1612.75</ele>
        <time>2016-10-31T15:15:40Z</time>
      </trkpt>
      <trkpt lat="45.22236" lon="6.01151">
        <ele>1611.79</ele>
        <time>2016-10-31T15:15:44Z</time>
      </trkpt>
      <trkpt lat="45.22235" lon="6.01114">
        <ele>1609.86</ele>
        <time>2016-10-31T15:16:01Z</time>
      </trkpt>
      <trkpt lat="45.22234" lon="6.01097">
        <ele>1606.5</ele>
        <time>2016-10-31T15:16:12Z</time>
      </trkpt>
      <trkpt lat="45.22231" lon="6.01086">
        <ele>1603.14</ele>
        <time>2016-10-31T15:16:24Z</time>
      </trkpt>
      <trkpt lat="45.22232" lon="6.01061">
        <ele>1599.77</ele>
        <time>2016-10-31T15:16:38Z</time>
      </trkpt>
      <trkpt lat="45.22231" lon="6.01059">
        <ele>1599.29</ele>
        <time>2016-10-31T15:16:40Z</time>
      </trkpt>
      <trkpt lat="45.22231" lon="6.01041">
        <ele>1596.41</ele>
        <time>2016-10-31T15:16:52Z</time>
      </trkpt>
      <trkpt lat="45.22231" lon="6.01018">
        <ele>1593.04</ele>
        <time>2016-10-31T15:17:05Z</time>
      </trkpt>
      <trkpt lat="45.22229" lon="6.01006">
        <ele>1592.08</ele>
        <time>2016-10-31T15:17:12Z</time>
      </trkpt>
      <trkpt lat="45.22233" lon="6.00978">
        <ele>1588.72</ele>
        <time>2016-10-31T15:17:24Z</time>
      </trkpt>
      <trkpt lat="45.22233" lon="6.00961">
        <ele>1585.83</ele>
        <time>2016-10-31T15:17:36Z</time>
      </trkpt>
      <trkpt lat="45.2223" lon="6.00941">
        <ele>1581.51</ele>
        <time>2016-10-31T15:17:48Z</time>
      </trkpt>
      <trkpt lat="45.22229" lon="6.00928">
        <ele>1578.62</ele>
        <time>2016-10-31T15:18:03Z</time>
      </trkpt>
      <trkpt lat="45.22232" lon="6.00928">
        <ele>1576.7</ele>
        <time>2016-10-31T15:18:11Z</time>
      </trkpt>
      <trkpt lat="45.22246" lon="6.00924">
        <ele>1573.33</ele>
        <time>2016-10-31T15:18:25Z</time>
      </trkpt>
      <trkpt lat="45.22256" lon="6.00919">
        <ele>1570.45</ele>
        <time>2016-10-31T15:18:37Z</time>
      </trkpt>
      <trkpt lat="45.22258" lon="6.00916">
        <ele>1569.97</ele>
        <time>2016-10-31T15:18:39Z</time>
      </trkpt>
      <trkpt lat="45.22256" lon="6.00907">
        <ele>1567.09</ele>
        <time>2016-10-31T15:18:46Z</time>
      </trkpt>
      <trkpt lat="45.22255" lon="6.00907">
        <ele>1567.09</ele>
        <time>2016-10-31T15:18:48Z</time>
      </trkpt>
      <trkpt lat="45.2225" lon="6.00903">
        <ele>1565.64</ele>
        <time>2016-10-31T15:18:53Z</time>
      </trkpt>
      <trkpt lat="45.22245" lon="6.00888">
        <ele>1562.76</ele>
        <time>2016-10-31T15:19:04Z</time>
      </trkpt>
      <trkpt lat="45.22239" lon="6.00875">
        <ele>1559.4</ele>
        <time>2016-10-31T15:19:15Z</time>
      </trkpt>
      <trkpt lat="45.22236" lon="6.0087">
        <ele>1558.43</ele>
        <time>2016-10-31T15:19:19Z</time>
      </trkpt>
      <trkpt lat="45.22228" lon="6.00853">
        <ele>1555.07</ele>
        <time>2016-10-31T15:19:33Z</time>
      </trkpt>
      <trkpt lat="45.22221" lon="6.00835">
        <ele>1552.19</ele>
        <time>2016-10-31T15:19:48Z</time>
      </trkpt>
      <trkpt lat="45.22228" lon="6.00816">
        <ele>1548.82</ele>
        <time>2016-10-31T15:20:01Z</time>
      </trkpt>
      <trkpt lat="45.22228" lon="6.00814">
        <ele>1547.86</ele>
        <time>2016-10-31T15:20:03Z</time>
      </trkpt>
      <trkpt lat="45.22229" lon="6.00811">
        <ele>1547.38</ele>
        <time>2016-10-31T15:20:05Z</time>
      </trkpt>
      <trkpt lat="45.22229" lon="6.00809">
        <ele>1545.94</ele>
        <time>2016-10-31T15:20:07Z</time>
      </trkpt>
      <trkpt lat="45.22229" lon="6.00799">
        <ele>1544.5</ele>
        <time>2016-10-31T15:20:11Z</time>
      </trkpt>
      <trkpt lat="45.22231" lon="6.0079">
        <ele>1542.09</ele>
        <time>2016-10-31T15:20:17Z</time>
      </trkpt>
      <trkpt lat="45.22231" lon="6.00782">
        <ele>1539.69</ele>
        <time>2016-10-31T15:20:23Z</time>
      </trkpt>
      <trkpt lat="45.22232" lon="6.00773">
        <ele>1538.73</ele>
        <time>2016-10-31T15:20:29Z</time>
      </trkpt>
      <trkpt lat="45.22237" lon="6.00755">
        <ele>1535.84</ele>
        <time>2016-10-31T15:20:43Z</time>
      </trkpt>
      <trkpt lat="45.22236" lon="6.00742">
        <ele>1533.92</ele>
        <time>2016-10-31T15:20:48Z</time>
      </trkpt>
      <trkpt lat="45.22235" lon="6.00733">
        <ele>1532.96</ele>
        <time>2016-10-31T15:20:51Z</time>
      </trkpt>
      <trkpt lat="45.22237" lon="6.00703">
        <ele>1529.59</ele>
        <time>2016-10-31T15:21:05Z</time>
      </trkpt>
      <trkpt lat="45.22242" lon="6.00672">
        <ele>1527.19</ele>
        <time>2016-10-31T15:21:23Z</time>
      </trkpt>
      <trkpt lat="45.22244" lon="6.00653">
        <ele>1523.83</ele>
        <time>2016-10-31T15:21:37Z</time>
      </trkpt>
      <trkpt lat="45.22239" lon="6.00641">
        <ele>1520.46</ele>
        <time>2016-10-31T15:21:45Z</time>
      </trkpt>
      <trkpt lat="45.22239" lon="6.00639">
        <ele>1519.98</ele>
        <time>2016-10-31T15:21:46Z</time>
      </trkpt>
      <trkpt lat="45.22233" lon="6.00626">
        <ele>1515.66</ele>
        <time>2016-10-31T15:21:55Z</time>
      </trkpt>
      <trkpt lat="45.22232" lon="6.0061">
        <ele>1512.77</ele>
        <time>2016-10-31T15:22:07Z</time>
      </trkpt>
      <trkpt lat="45.22229" lon="6.00599">
        <ele>1509.89</ele>
        <time>2016-10-31T15:22:15Z</time>
      </trkpt>
      <trkpt lat="45.22229" lon="6.00588">
        <ele>1506.52</ele>
        <time>2016-10-31T15:22:24Z</time>
      </trkpt>
      <trkpt lat="45.22227" lon="6.00573">
        <ele>1502.68</ele>
        <time>2016-10-31T15:22:34Z</time>
      </trkpt>
      <trkpt lat="45.22225" lon="6.00561">
        <ele>1499.79</ele>
        <time>2016-10-31T15:22:42Z</time>
      </trkpt>
      <trkpt lat="45.22224" lon="6.00547">
        <ele>1496.43</ele>
        <time>2016-10-31T15:22:50Z</time>
      </trkpt>
      <trkpt lat="45.22224" lon="6.00535">
        <ele>1493.06</ele>
        <time>2016-10-31T15:22:58Z</time>
      </trkpt>
      <trkpt lat="45.22223" lon="6.00526">
        <ele>1491.14</ele>
        <time>2016-10-31T15:23:05Z</time>
      </trkpt>
      <trkpt lat="45.22223" lon="6.00513">
        <ele>1487.3</ele>
        <time>2016-10-31T15:23:13Z</time>
      </trkpt>
      <trkpt lat="45.22226" lon="6.00506">
        <ele>1484.41</ele>
        <time>2016-10-31T15:23:19Z</time>
      </trkpt>
      <trkpt lat="45.22226" lon="6.00502">
        <ele>1483.45</ele>
        <time>2016-10-31T15:23:21Z</time>
      </trkpt>
      <trkpt lat="45.22229" lon="6.00482">
        <ele>1479.61</ele>
        <time>2016-10-31T15:23:29Z</time>
      </trkpt>
      <trkpt lat="45.22232" lon="6.00462">
        <ele>1476.24</ele>
        <time>2016-10-31T15:23:38Z</time>
      </trkpt>
      <trkpt lat="45.22236" lon="6.00451">
        <ele>1473.84</ele>
        <time>2016-10-31T15:23:43Z</time>
      </trkpt>
      <trkpt lat="45.22239" lon="6.00442">
        <ele>1471.44</ele>
        <time>2016-10-31T15:23:47Z</time>
      </trkpt>
      <trkpt lat="45.22242" lon="6.00439">
        <ele>1469.99</ele>
        <time>2016-10-31T15:23:49Z</time>
      </trkpt>
      <trkpt lat="45.22251" lon="6.00437">
        <ele>1466.63</ele>
        <time>2016-10-31T15:23:56Z</time>
      </trkpt>
      <trkpt lat="45.22264" lon="6.00438">
        <ele>1463.26</ele>
        <time>2016-10-31T15:24:07Z</time>
      </trkpt>
      <trkpt lat="45.22269" lon="6.00436">
        <ele>1461.82</ele>
        <time>2016-10-31T15:24:12Z</time>
      </trkpt>
      <trkpt lat="45.22276" lon="6.00426">
        <ele>1457.5</ele>
        <time>2016-10-31T15:24:25Z</time>
      </trkpt>
      <trkpt lat="45.22277" lon="6.00424">
        <ele>1456.05</ele>
        <time>2016-10-31T15:24:27Z</time>
      </trkpt>
      <trkpt lat="45.22279" lon="6.00412">
        <ele>1453.65</ele>
        <time>2016-10-31T15:24:33Z</time>
      </trkpt>
      <trkpt lat="45.22284" lon="6.00401">
        <ele>1450.29</ele>
        <time>2016-10-31T15:24:41Z</time>
      </trkpt>
      <trkpt lat="45.22285" lon="6.00395">
        <ele>1448.84</ele>
        <time>2016-10-31T15:24:43Z</time>
      </trkpt>
      <trkpt lat="45.22286" lon="6.00392">
        <ele>1448.36</ele>
        <time>2016-10-31T15:24:45Z</time>
      </trkpt>
      <trkpt lat="45.22291" lon="6.00383">
        <ele>1445.96</ele>
        <time>2016-10-31T15:24:49Z</time>
      </trkpt>
      <trkpt lat="45.22294" lon="6.00379">
        <ele>1445</ele>
        <time>2016-10-31T15:24:51Z</time>
      </trkpt>
      <trkpt lat="45.22301" lon="6.00363">
        <ele>1441.63</ele>
        <time>2016-10-31T15:25:01Z</time>
      </trkpt>
      <trkpt lat="45.22306" lon="6.00351">
        <ele>1439.23</ele>
        <time>2016-10-31T15:25:14Z</time>
      </trkpt>
      <trkpt lat="45.22311" lon="6.00336">
        <ele>1435.39</ele>
        <time>2016-10-31T15:25:25Z</time>
      </trkpt>
      <trkpt lat="45.22316" lon="6.00307">
        <ele>1432.5</ele>
        <time>2016-10-31T15:25:39Z</time>
      </trkpt>
      <trkpt lat="45.22313" lon="6.00276">
        <ele>1429.14</ele>
        <time>2016-10-31T15:25:55Z</time>
      </trkpt>
      <trkpt lat="45.22309" lon="6.00258">
        <ele>1426.25</ele>
        <time>2016-10-31T15:26:06Z</time>
      </trkpt>
      <trkpt lat="45.22302" lon="6.00247">
        <ele>1422.89</ele>
        <time>2016-10-31T15:26:18Z</time>
      </trkpt>
      <trkpt lat="45.22302" lon="6.00235">
        <ele>1419.52</ele>
        <time>2016-10-31T15:26:26Z</time>
      </trkpt>
      <trkpt lat="45.22303" lon="6.00234">
        <ele>1419.52</ele>
        <time>2016-10-31T15:26:27Z</time>
      </trkpt>
      <trkpt lat="45.22303" lon="6.0023">
        <ele>1418.56</ele>
        <time>2016-10-31T15:26:29Z</time>
      </trkpt>
      <trkpt lat="45.22303" lon="6.00224">
        <ele>1417.12</ele>
        <time>2016-10-31T15:26:32Z</time>
      </trkpt>
      <trkpt lat="45.22307" lon="6.00215">
        <ele>1414.24</ele>
        <time>2016-10-31T15:26:40Z</time>
      </trkpt>
      <trkpt lat="45.22309" lon="6.00214">
        <ele>1413.76</ele>
        <time>2016-10-31T15:26:43Z</time>
      </trkpt>
      <trkpt lat="45.22321" lon="6.00209">
        <ele>1411.83</ele>
        <time>2016-10-31T15:26:55Z</time>
      </trkpt>
      <trkpt lat="45.22328" lon="6.00203">
        <ele>1410.87</ele>
        <time>2016-10-31T15:27:00Z</time>
      </trkpt>
      <trkpt lat="45.22341" lon="6.00182">
        <ele>1408.95</ele>
        <time>2016-10-31T15:27:14Z</time>
      </trkpt>
      <trkpt lat="45.22359" lon="6.00161">
        <ele>1406.55</ele>
        <time>2016-10-31T15:27:33Z</time>
      </trkpt>
      <trkpt lat="45.22361" lon="6.0016">
        <ele>1406.55</ele>
        <time>2016-10-31T15:27:35Z</time>
      </trkpt>
      <trkpt lat="45.22362" lon="6.00157">
        <ele>1406.55</ele>
        <time>2016-10-31T15:27:37Z</time>
      </trkpt>
      <trkpt lat="45.22363" lon="6.00154">
        <ele>1406.07</ele>
        <time>2016-10-31T15:27:39Z</time>
      </trkpt>
      <trkpt lat="45.22364" lon="6.00138">
        <ele>1402.7</ele>
        <time>2016-10-31T15:27:52Z</time>
      </trkpt>
      <trkpt lat="45.22374" lon="6.00126">
        <ele>1399.34</ele>
        <time>2016-10-31T15:28:03Z</time>
      </trkpt>
      <trkpt lat="45.22387" lon="6.0012">
        <ele>1395.49</ele>
        <time>2016-10-31T15:28:14Z</time>
      </trkpt>
      <trkpt lat="45.22392" lon="6.00115">
        <ele>1394.53</ele>
        <time>2016-10-31T15:28:18Z</time>
      </trkpt>
      <trkpt lat="45.22405" lon="6.00101">
        <ele>1391.17</ele>
        <time>2016-10-31T15:28:29Z</time>
      </trkpt>
      <trkpt lat="45.22412" lon="6.00089">
        <ele>1388.28</ele>
        <time>2016-10-31T15:28:38Z</time>
      </trkpt>
      <trkpt lat="45.22416" lon="6.00077">
        <ele>1384.92</ele>
        <time>2016-10-31T15:28:48Z</time>
      </trkpt>
      <trkpt lat="45.2242" lon="6.00066">
        <ele>1381.55</ele>
        <time>2016-10-31T15:28:59Z</time>
      </trkpt>
      <trkpt lat="45.22427" lon="6.00051">
        <ele>1377.71</ele>
        <time>2016-10-31T15:29:12Z</time>
      </trkpt>
      <trkpt lat="45.2243" lon="6.00038">
        <ele>1374.82</ele>
        <time>2016-10-31T15:29:24Z</time>
      </trkpt>
      <trkpt lat="45.22432" lon="6.00025">
        <ele>1371.46</ele>
        <time>2016-10-31T15:29:35Z</time>
      </trkpt>
      <trkpt lat="45.22436" lon="6.00012">
        <ele>1368.57</ele>
        <time>2016-10-31T15:29:47Z</time>
      </trkpt>
      <trkpt lat="45.22439" lon="6.00003">
        <ele>1366.65</ele>
        <time>2016-10-31T15:29:52Z</time>
      </trkpt>
      <trkpt lat="45.22445" lon="5.99986">
        <ele>1364.25</ele>
        <time>2016-10-31T15:30:06Z</time>
      </trkpt>
      <trkpt lat="45.22446" lon="5.99977">
        <ele>1363.77</ele>
        <time>2016-10-31T15:30:11Z</time>
      </trkpt>
      <trkpt lat="45.22453" lon="5.99946">
        <ele>1360.4</ele>
        <time>2016-10-31T15:30:27Z</time>
      </trkpt>
      <trkpt lat="45.22454" lon="5.99931">
        <ele>1357.52</ele>
        <time>2016-10-31T15:30:44Z</time>
      </trkpt>
      <trkpt lat="45.22452" lon="5.99915">
        <ele>1354.63</ele>
        <time>2016-10-31T15:30:58Z</time>
      </trkpt>
      <trkpt lat="45.22445" lon="5.99905">
        <ele>1351.27</ele>
        <time>2016-10-31T15:31:11Z</time>
      </trkpt>
      <trkpt lat="45.22444" lon="5.99892">
        <ele>1347.91</ele>
        <time>2016-10-31T15:31:25Z</time>
      </trkpt>
      <trkpt lat="45.22447" lon="5.99892">
        <ele>1348.39</ele>
        <time>2016-10-31T15:31:32Z</time>
      </trkpt>
      <trkpt lat="45.22452" lon="5.99893">
        <ele>1348.39</ele>
        <time>2016-10-31T15:31:38Z</time>
      </trkpt>
      <trkpt lat="45.2247" lon="5.99888">
        <ele>1349.83</ele>
        <time>2016-10-31T15:31:50Z</time>
      </trkpt>
      <trkpt lat="45.22485" lon="5.99867">
        <ele>1350.31</ele>
        <time>2016-10-31T15:32:09Z</time>
      </trkpt>
      <trkpt lat="45.22489" lon="5.99856">
        <ele>1351.27</ele>
        <time>2016-10-31T15:32:26Z</time>
      </trkpt>
      <trkpt lat="45.2249" lon="5.99857">
        <ele>1351.27</ele>
        <time>2016-10-31T15:32:31Z</time>
      </trkpt>
    </trkseg>
  </trk>
</gpx>